<?xml version="1.0" encoding="UTF-8" standalone="no" ?>
<gpx xmlns="http://www.topografix.com/GPX/1/1" xmlns:xsi="http://www.w3.org/2001/XMLSchema-instance" xsi:schemaLocation="http://www.topografix.com/GPX/1/1 http://www.topografix.com/GPX/1/1/gpx.xsd" version="1.1" creator="VisuGPX - https://www.visugpx.com">
  <metadata>
    <name>Rando - La Dôle</name>
    <desc><![CDATA[Belle rando sur un sommet Suisse, la Dôle. Point de vue fantastique sur les Alpes.]]></desc>
  </metadata>
  <trk>
    <name><![CDATA[26-OCT-15 13:05:36]]></name>
    <trkseg>
      <trkpt lat="46.38931" lon="6.05313">
        <ele>1271.96</ele>
        <time>2015-10-26T07:23:32Z</time>
      </trkpt>
      <trkpt lat="46.3893" lon="6.05312">
        <ele>1271.96</ele>
        <time>2015-10-26T07:23:33Z</time>
      </trkpt>
      <trkpt lat="46.38925" lon="6.05312">
        <ele>1271.96</ele>
        <time>2015-10-26T07:23:38Z</time>
      </trkpt>
      <trkpt lat="46.3892" lon="6.05321">
        <ele>1271.96</ele>
        <time>2015-10-26T07:23:45Z</time>
      </trkpt>
      <trkpt lat="46.3892" lon="6.05332">
        <ele>1274.85</ele>
        <time>2015-10-26T07:24:00Z</time>
      </trkpt>
      <trkpt lat="46.38925" lon="6.0534">
        <ele>1274.36</ele>
        <time>2015-10-26T07:24:07Z</time>
      </trkpt>
      <trkpt lat="46.38931" lon="6.05356">
        <ele>1273.88</ele>
        <time>2015-10-26T07:24:16Z</time>
      </trkpt>
      <trkpt lat="46.38935" lon="6.0537">
        <ele>1274.36</ele>
        <time>2015-10-26T07:24:24Z</time>
      </trkpt>
      <trkpt lat="46.3894" lon="6.05388">
        <ele>1274.85</ele>
        <time>2015-10-26T07:24:33Z</time>
      </trkpt>
      <trkpt lat="46.38939" lon="6.05393">
        <ele>1274.85</ele>
        <time>2015-10-26T07:24:36Z</time>
      </trkpt>
      <trkpt lat="46.38927" lon="6.05413">
        <ele>1277.25</ele>
        <time>2015-10-26T07:24:50Z</time>
      </trkpt>
      <trkpt lat="46.38924" lon="6.05438">
        <ele>1279.65</ele>
        <time>2015-10-26T07:25:03Z</time>
      </trkpt>
      <trkpt lat="46.38928" lon="6.05459">
        <ele>1281.09</ele>
        <time>2015-10-26T07:25:18Z</time>
      </trkpt>
      <trkpt lat="46.38929" lon="6.05461">
        <ele>1281.09</ele>
        <time>2015-10-26T07:25:20Z</time>
      </trkpt>
      <trkpt lat="46.38937" lon="6.05493">
        <ele>1282.06</ele>
        <time>2015-10-26T07:25:34Z</time>
      </trkpt>
      <trkpt lat="46.38939" lon="6.05504">
        <ele>1282.54</ele>
        <time>2015-10-26T07:25:40Z</time>
      </trkpt>
      <trkpt lat="46.38941" lon="6.05511">
        <ele>1283.02</ele>
        <time>2015-10-26T07:25:44Z</time>
      </trkpt>
      <trkpt lat="46.38944" lon="6.05521">
        <ele>1283.5</ele>
        <time>2015-10-26T07:25:50Z</time>
      </trkpt>
      <trkpt lat="46.38945" lon="6.05526">
        <ele>1283.5</ele>
        <time>2015-10-26T07:25:53Z</time>
      </trkpt>
      <trkpt lat="46.38947" lon="6.05538">
        <ele>1283.98</ele>
        <time>2015-10-26T07:25:59Z</time>
      </trkpt>
      <trkpt lat="46.38948" lon="6.05543">
        <ele>1284.46</ele>
        <time>2015-10-26T07:26:02Z</time>
      </trkpt>
      <trkpt lat="46.38949" lon="6.05561">
        <ele>1284.46</ele>
        <time>2015-10-26T07:26:12Z</time>
      </trkpt>
      <trkpt lat="46.38952" lon="6.05576">
        <ele>1285.42</ele>
        <time>2015-10-26T07:26:20Z</time>
      </trkpt>
      <trkpt lat="46.38955" lon="6.05589">
        <ele>1285.42</ele>
        <time>2015-10-26T07:26:27Z</time>
      </trkpt>
      <trkpt lat="46.38957" lon="6.05599">
        <ele>1285.9</ele>
        <time>2015-10-26T07:26:32Z</time>
      </trkpt>
      <trkpt lat="46.3896" lon="6.05606">
        <ele>1285.9</ele>
        <time>2015-10-26T07:26:36Z</time>
      </trkpt>
      <trkpt lat="46.38962" lon="6.05629">
        <ele>1286.86</ele>
        <time>2015-10-26T07:26:48Z</time>
      </trkpt>
      <trkpt lat="46.3896" lon="6.0565">
        <ele>1289.27</ele>
        <time>2015-10-26T07:27:01Z</time>
      </trkpt>
      <trkpt lat="46.3896" lon="6.05653">
        <ele>1289.75</ele>
        <time>2015-10-26T07:27:03Z</time>
      </trkpt>
      <trkpt lat="46.38963" lon="6.0566">
        <ele>1290.23</ele>
        <time>2015-10-26T07:27:08Z</time>
      </trkpt>
      <trkpt lat="46.38973" lon="6.05681">
        <ele>1291.67</ele>
        <time>2015-10-26T07:27:21Z</time>
      </trkpt>
      <trkpt lat="46.38973" lon="6.05682">
        <ele>1292.15</ele>
        <time>2015-10-26T07:27:22Z</time>
      </trkpt>
      <trkpt lat="46.38976" lon="6.05687">
        <ele>1292.15</ele>
        <time>2015-10-26T07:27:25Z</time>
      </trkpt>
      <trkpt lat="46.38978" lon="6.05695">
        <ele>1292.63</ele>
        <time>2015-10-26T07:27:29Z</time>
      </trkpt>
      <trkpt lat="46.38981" lon="6.05705">
        <ele>1293.59</ele>
        <time>2015-10-26T07:27:36Z</time>
      </trkpt>
      <trkpt lat="46.38983" lon="6.05714">
        <ele>1294.55</ele>
        <time>2015-10-26T07:27:42Z</time>
      </trkpt>
      <trkpt lat="46.3899" lon="6.05724">
        <ele>1295.99</ele>
        <time>2015-10-26T07:27:49Z</time>
      </trkpt>
      <trkpt lat="46.38994" lon="6.05734">
        <ele>1296.96</ele>
        <time>2015-10-26T07:27:56Z</time>
      </trkpt>
      <trkpt lat="46.38997" lon="6.05749">
        <ele>1297.44</ele>
        <time>2015-10-26T07:28:03Z</time>
      </trkpt>
      <trkpt lat="46.38998" lon="6.05754">
        <ele>1297.92</ele>
        <time>2015-10-26T07:28:06Z</time>
      </trkpt>
      <trkpt lat="46.39" lon="6.05759">
        <ele>1297.92</ele>
        <time>2015-10-26T07:28:09Z</time>
      </trkpt>
      <trkpt lat="46.39001" lon="6.0577">
        <ele>1297.44</ele>
        <time>2015-10-26T07:28:15Z</time>
      </trkpt>
      <trkpt lat="46.39009" lon="6.05786">
        <ele>1298.4</ele>
        <time>2015-10-26T07:28:26Z</time>
      </trkpt>
      <trkpt lat="46.39015" lon="6.05804">
        <ele>1299.36</ele>
        <time>2015-10-26T07:28:37Z</time>
      </trkpt>
      <trkpt lat="46.39018" lon="6.05813">
        <ele>1299.36</ele>
        <time>2015-10-26T07:28:41Z</time>
      </trkpt>
      <trkpt lat="46.39019" lon="6.05819">
        <ele>1300.32</ele>
        <time>2015-10-26T07:28:45Z</time>
      </trkpt>
      <trkpt lat="46.39019" lon="6.0583">
        <ele>1300.8</ele>
        <time>2015-10-26T07:28:51Z</time>
      </trkpt>
      <trkpt lat="46.39019" lon="6.05842">
        <ele>1302.24</ele>
        <time>2015-10-26T07:28:58Z</time>
      </trkpt>
      <trkpt lat="46.3902" lon="6.05863">
        <ele>1304.65</ele>
        <time>2015-10-26T07:29:12Z</time>
      </trkpt>
      <trkpt lat="46.3902" lon="6.05867">
        <ele>1305.61</ele>
        <time>2015-10-26T07:29:17Z</time>
      </trkpt>
      <trkpt lat="46.39017" lon="6.0588">
        <ele>1307.53</ele>
        <time>2015-10-26T07:29:25Z</time>
      </trkpt>
      <trkpt lat="46.39022" lon="6.05902">
        <ele>1309.45</ele>
        <time>2015-10-26T07:29:36Z</time>
      </trkpt>
      <trkpt lat="46.39022" lon="6.05907">
        <ele>1309.45</ele>
        <time>2015-10-26T07:29:38Z</time>
      </trkpt>
      <trkpt lat="46.39024" lon="6.05917">
        <ele>1310.41</ele>
        <time>2015-10-26T07:29:44Z</time>
      </trkpt>
      <trkpt lat="46.39029" lon="6.05939">
        <ele>1311.38</ele>
        <time>2015-10-26T07:29:58Z</time>
      </trkpt>
      <trkpt lat="46.39025" lon="6.05945">
        <ele>1311.86</ele>
        <time>2015-10-26T07:30:03Z</time>
      </trkpt>
      <trkpt lat="46.39024" lon="6.05948">
        <ele>1311.86</ele>
        <time>2015-10-26T07:30:05Z</time>
      </trkpt>
      <trkpt lat="46.39016" lon="6.05958">
        <ele>1311.86</ele>
        <time>2015-10-26T07:30:13Z</time>
      </trkpt>
      <trkpt lat="46.39014" lon="6.05961">
        <ele>1311.86</ele>
        <time>2015-10-26T07:30:16Z</time>
      </trkpt>
      <trkpt lat="46.39005" lon="6.05967">
        <ele>1312.34</ele>
        <time>2015-10-26T07:30:23Z</time>
      </trkpt>
      <trkpt lat="46.38995" lon="6.05985">
        <ele>1312.34</ele>
        <time>2015-10-26T07:30:36Z</time>
      </trkpt>
      <trkpt lat="46.38986" lon="6.06012">
        <ele>1312.82</ele>
        <time>2015-10-26T07:30:49Z</time>
      </trkpt>
      <trkpt lat="46.38979" lon="6.06029">
        <ele>1314.74</ele>
        <time>2015-10-26T07:30:59Z</time>
      </trkpt>
      <trkpt lat="46.3898" lon="6.06045">
        <ele>1315.22</ele>
        <time>2015-10-26T07:31:06Z</time>
      </trkpt>
      <trkpt lat="46.38982" lon="6.06049">
        <ele>1315.22</ele>
        <time>2015-10-26T07:31:08Z</time>
      </trkpt>
      <trkpt lat="46.38983" lon="6.06055">
        <ele>1316.18</ele>
        <time>2015-10-26T07:31:12Z</time>
      </trkpt>
      <trkpt lat="46.38991" lon="6.06062">
        <ele>1316.66</ele>
        <time>2015-10-26T07:31:19Z</time>
      </trkpt>
      <trkpt lat="46.38993" lon="6.06074">
        <ele>1317.62</ele>
        <time>2015-10-26T07:31:26Z</time>
      </trkpt>
      <trkpt lat="46.38999" lon="6.06089">
        <ele>1318.1</ele>
        <time>2015-10-26T07:31:36Z</time>
      </trkpt>
      <trkpt lat="46.38994" lon="6.06109">
        <ele>1318.59</ele>
        <time>2015-10-26T07:31:44Z</time>
      </trkpt>
      <trkpt lat="46.38995" lon="6.06117">
        <ele>1319.07</ele>
        <time>2015-10-26T07:31:48Z</time>
      </trkpt>
      <trkpt lat="46.38994" lon="6.0613">
        <ele>1320.51</ele>
        <time>2015-10-26T07:31:57Z</time>
      </trkpt>
      <trkpt lat="46.38994" lon="6.06136">
        <ele>1321.47</ele>
        <time>2015-10-26T07:32:03Z</time>
      </trkpt>
      <trkpt lat="46.38989" lon="6.06152">
        <ele>1323.87</ele>
        <time>2015-10-26T07:32:12Z</time>
      </trkpt>
      <trkpt lat="46.38989" lon="6.06157">
        <ele>1324.83</ele>
        <time>2015-10-26T07:32:16Z</time>
      </trkpt>
      <trkpt lat="46.3899" lon="6.0617">
        <ele>1325.8</ele>
        <time>2015-10-26T07:32:22Z</time>
      </trkpt>
      <trkpt lat="46.3899" lon="6.06174">
        <ele>1326.28</ele>
        <time>2015-10-26T07:32:24Z</time>
      </trkpt>
      <trkpt lat="46.38988" lon="6.06178">
        <ele>1326.76</ele>
        <time>2015-10-26T07:32:27Z</time>
      </trkpt>
      <trkpt lat="46.38988" lon="6.06192">
        <ele>1327.72</ele>
        <time>2015-10-26T07:32:38Z</time>
      </trkpt>
      <trkpt lat="46.3899" lon="6.06196">
        <ele>1328.2</ele>
        <time>2015-10-26T07:32:43Z</time>
      </trkpt>
      <trkpt lat="46.38995" lon="6.06206">
        <ele>1328.68</ele>
        <time>2015-10-26T07:32:50Z</time>
      </trkpt>
      <trkpt lat="46.38999" lon="6.06225">
        <ele>1329.16</ele>
        <time>2015-10-26T07:33:02Z</time>
      </trkpt>
      <trkpt lat="46.39002" lon="6.06242">
        <ele>1330.6</ele>
        <time>2015-10-26T07:33:17Z</time>
      </trkpt>
      <trkpt lat="46.39001" lon="6.06244">
        <ele>1331.08</ele>
        <time>2015-10-26T07:33:18Z</time>
      </trkpt>
      <trkpt lat="46.39011" lon="6.06261">
        <ele>1333.01</ele>
        <time>2015-10-26T07:33:33Z</time>
      </trkpt>
      <trkpt lat="46.39032" lon="6.06276">
        <ele>1334.45</ele>
        <time>2015-10-26T07:33:46Z</time>
      </trkpt>
      <trkpt lat="46.39039" lon="6.06284">
        <ele>1334.93</ele>
        <time>2015-10-26T07:33:51Z</time>
      </trkpt>
      <trkpt lat="46.39044" lon="6.06301">
        <ele>1336.85</ele>
        <time>2015-10-26T07:34:03Z</time>
      </trkpt>
      <trkpt lat="46.39048" lon="6.06309">
        <ele>1337.81</ele>
        <time>2015-10-26T07:34:09Z</time>
      </trkpt>
      <trkpt lat="46.39059" lon="6.06325">
        <ele>1339.25</ele>
        <time>2015-10-26T07:34:20Z</time>
      </trkpt>
      <trkpt lat="46.3906" lon="6.06331">
        <ele>1340.7</ele>
        <time>2015-10-26T07:34:26Z</time>
      </trkpt>
      <trkpt lat="46.39062" lon="6.06344">
        <ele>1342.14</ele>
        <time>2015-10-26T07:34:34Z</time>
      </trkpt>
      <trkpt lat="46.39065" lon="6.06351">
        <ele>1342.62</ele>
        <time>2015-10-26T07:34:39Z</time>
      </trkpt>
      <trkpt lat="46.39069" lon="6.06356">
        <ele>1342.62</ele>
        <time>2015-10-26T07:34:42Z</time>
      </trkpt>
      <trkpt lat="46.3908" lon="6.06367">
        <ele>1343.1</ele>
        <time>2015-10-26T07:34:59Z</time>
      </trkpt>
      <trkpt lat="46.39101" lon="6.06383">
        <ele>1344.06</ele>
        <time>2015-10-26T07:35:13Z</time>
      </trkpt>
      <trkpt lat="46.39119" lon="6.06405">
        <ele>1345.5</ele>
        <time>2015-10-26T07:35:29Z</time>
      </trkpt>
      <trkpt lat="46.39121" lon="6.06407">
        <ele>1345.02</ele>
        <time>2015-10-26T07:35:31Z</time>
      </trkpt>
      <trkpt lat="46.39123" lon="6.06409">
        <ele>1345.5</ele>
        <time>2015-10-26T07:35:33Z</time>
      </trkpt>
      <trkpt lat="46.39134" lon="6.0642">
        <ele>1345.98</ele>
        <time>2015-10-26T07:35:44Z</time>
      </trkpt>
      <trkpt lat="46.39148" lon="6.06435">
        <ele>1346.46</ele>
        <time>2015-10-26T07:35:54Z</time>
      </trkpt>
      <trkpt lat="46.39153" lon="6.06446">
        <ele>1346.46</ele>
        <time>2015-10-26T07:35:58Z</time>
      </trkpt>
      <trkpt lat="46.39162" lon="6.06457">
        <ele>1346.94</ele>
        <time>2015-10-26T07:36:06Z</time>
      </trkpt>
      <trkpt lat="46.39171" lon="6.06467">
        <ele>1346.94</ele>
        <time>2015-10-26T07:36:12Z</time>
      </trkpt>
      <trkpt lat="46.39184" lon="6.06477">
        <ele>1347.43</ele>
        <time>2015-10-26T07:36:19Z</time>
      </trkpt>
      <trkpt lat="46.39203" lon="6.06488">
        <ele>1347.43</ele>
        <time>2015-10-26T07:36:33Z</time>
      </trkpt>
      <trkpt lat="46.39216" lon="6.06496">
        <ele>1348.39</ele>
        <time>2015-10-26T07:36:47Z</time>
      </trkpt>
      <trkpt lat="46.3922" lon="6.06497">
        <ele>1348.39</ele>
        <time>2015-10-26T07:36:59Z</time>
      </trkpt>
      <trkpt lat="46.39253" lon="6.06516">
        <ele>1348.39</ele>
        <time>2015-10-26T07:37:15Z</time>
      </trkpt>
      <trkpt lat="46.39276" lon="6.06533">
        <ele>1348.39</ele>
        <time>2015-10-26T07:37:28Z</time>
      </trkpt>
      <trkpt lat="46.39297" lon="6.06558">
        <ele>1347.91</ele>
        <time>2015-10-26T07:37:43Z</time>
      </trkpt>
      <trkpt lat="46.39299" lon="6.0657">
        <ele>1347.91</ele>
        <time>2015-10-26T07:37:48Z</time>
      </trkpt>
      <trkpt lat="46.393" lon="6.06575">
        <ele>1347.91</ele>
        <time>2015-10-26T07:37:50Z</time>
      </trkpt>
      <trkpt lat="46.39312" lon="6.06595">
        <ele>1346.46</ele>
        <time>2015-10-26T07:38:02Z</time>
      </trkpt>
      <trkpt lat="46.39324" lon="6.06615">
        <ele>1345.02</ele>
        <time>2015-10-26T07:38:16Z</time>
      </trkpt>
      <trkpt lat="46.39328" lon="6.06625">
        <ele>1344.54</ele>
        <time>2015-10-26T07:38:22Z</time>
      </trkpt>
      <trkpt lat="46.39331" lon="6.06628">
        <ele>1344.54</ele>
        <time>2015-10-26T07:38:24Z</time>
      </trkpt>
      <trkpt lat="46.39344" lon="6.06647">
        <ele>1342.62</ele>
        <time>2015-10-26T07:38:36Z</time>
      </trkpt>
      <trkpt lat="46.39348" lon="6.0666">
        <ele>1342.14</ele>
        <time>2015-10-26T07:38:42Z</time>
      </trkpt>
      <trkpt lat="46.39361" lon="6.06676">
        <ele>1341.18</ele>
        <time>2015-10-26T07:38:54Z</time>
      </trkpt>
      <trkpt lat="46.39361" lon="6.06676">
        <ele>1341.18</ele>
        <time>2015-10-26T07:38:55Z</time>
      </trkpt>
      <trkpt lat="46.39365" lon="6.06681">
        <ele>1341.18</ele>
        <time>2015-10-26T07:38:58Z</time>
      </trkpt>
      <trkpt lat="46.39369" lon="6.06688">
        <ele>1340.7</ele>
        <time>2015-10-26T07:39:01Z</time>
      </trkpt>
      <trkpt lat="46.39381" lon="6.067">
        <ele>1340.7</ele>
        <time>2015-10-26T07:39:11Z</time>
      </trkpt>
      <trkpt lat="46.39386" lon="6.06704">
        <ele>1341.18</ele>
        <time>2015-10-26T07:39:15Z</time>
      </trkpt>
      <trkpt lat="46.39399" lon="6.06707">
        <ele>1341.18</ele>
        <time>2015-10-26T07:39:26Z</time>
      </trkpt>
      <trkpt lat="46.39402" lon="6.06709">
        <ele>1341.18</ele>
        <time>2015-10-26T07:39:28Z</time>
      </trkpt>
      <trkpt lat="46.39413" lon="6.06712">
        <ele>1341.66</ele>
        <time>2015-10-26T07:39:35Z</time>
      </trkpt>
      <trkpt lat="46.39431" lon="6.06715">
        <ele>1341.18</ele>
        <time>2015-10-26T07:39:48Z</time>
      </trkpt>
      <trkpt lat="46.39447" lon="6.06724">
        <ele>1340.22</ele>
        <time>2015-10-26T07:39:59Z</time>
      </trkpt>
      <trkpt lat="46.39466" lon="6.06739">
        <ele>1339.25</ele>
        <time>2015-10-26T07:40:12Z</time>
      </trkpt>
      <trkpt lat="46.39475" lon="6.06748">
        <ele>1339.25</ele>
        <time>2015-10-26T07:40:18Z</time>
      </trkpt>
      <trkpt lat="46.39479" lon="6.06757">
        <ele>1338.29</ele>
        <time>2015-10-26T07:40:25Z</time>
      </trkpt>
      <trkpt lat="46.3948" lon="6.06761">
        <ele>1338.29</ele>
        <time>2015-10-26T07:40:27Z</time>
      </trkpt>
      <trkpt lat="46.39485" lon="6.0677">
        <ele>1337.81</ele>
        <time>2015-10-26T07:40:31Z</time>
      </trkpt>
      <trkpt lat="46.39491" lon="6.0678">
        <ele>1336.85</ele>
        <time>2015-10-26T07:40:38Z</time>
      </trkpt>
      <trkpt lat="46.39509" lon="6.06786">
        <ele>1335.89</ele>
        <time>2015-10-26T07:40:50Z</time>
      </trkpt>
      <trkpt lat="46.39534" lon="6.06797">
        <ele>1334.93</ele>
        <time>2015-10-26T07:41:05Z</time>
      </trkpt>
      <trkpt lat="46.39547" lon="6.06797">
        <ele>1333.97</ele>
        <time>2015-10-26T07:41:15Z</time>
      </trkpt>
      <trkpt lat="46.39556" lon="6.06792">
        <ele>1333.97</ele>
        <time>2015-10-26T07:41:24Z</time>
      </trkpt>
      <trkpt lat="46.39569" lon="6.06782">
        <ele>1333.49</ele>
        <time>2015-10-26T07:41:36Z</time>
      </trkpt>
      <trkpt lat="46.39571" lon="6.06782">
        <ele>1333.49</ele>
        <time>2015-10-26T07:41:38Z</time>
      </trkpt>
      <trkpt lat="46.39586" lon="6.06771">
        <ele>1333.49</ele>
        <time>2015-10-26T07:41:49Z</time>
      </trkpt>
      <trkpt lat="46.39588" lon="6.06768">
        <ele>1333.97</ele>
        <time>2015-10-26T07:41:51Z</time>
      </trkpt>
      <trkpt lat="46.39603" lon="6.06746">
        <ele>1333.97</ele>
        <time>2015-10-26T07:42:03Z</time>
      </trkpt>
      <trkpt lat="46.39604" lon="6.06744">
        <ele>1333.97</ele>
        <time>2015-10-26T07:42:05Z</time>
      </trkpt>
      <trkpt lat="46.39619" lon="6.06736">
        <ele>1333.97</ele>
        <time>2015-10-26T07:42:17Z</time>
      </trkpt>
      <trkpt lat="46.39622" lon="6.06735">
        <ele>1333.97</ele>
        <time>2015-10-26T07:42:19Z</time>
      </trkpt>
      <trkpt lat="46.39643" lon="6.06733">
        <ele>1334.93</ele>
        <time>2015-10-26T07:42:34Z</time>
      </trkpt>
      <trkpt lat="46.39646" lon="6.06733">
        <ele>1334.93</ele>
        <time>2015-10-26T07:42:36Z</time>
      </trkpt>
      <trkpt lat="46.39658" lon="6.0673">
        <ele>1335.41</ele>
        <time>2015-10-26T07:42:42Z</time>
      </trkpt>
      <trkpt lat="46.39662" lon="6.06731">
        <ele>1335.41</ele>
        <time>2015-10-26T07:42:44Z</time>
      </trkpt>
      <trkpt lat="46.3968" lon="6.06737">
        <ele>1335.89</ele>
        <time>2015-10-26T07:43:00Z</time>
      </trkpt>
      <trkpt lat="46.39705" lon="6.06744">
        <ele>1337.33</ele>
        <time>2015-10-26T07:43:17Z</time>
      </trkpt>
      <trkpt lat="46.39726" lon="6.06747">
        <ele>1337.81</ele>
        <time>2015-10-26T07:43:31Z</time>
      </trkpt>
      <trkpt lat="46.39743" lon="6.06755">
        <ele>1337.81</ele>
        <time>2015-10-26T07:43:45Z</time>
      </trkpt>
      <trkpt lat="46.39755" lon="6.06757">
        <ele>1337.33</ele>
        <time>2015-10-26T07:43:58Z</time>
      </trkpt>
      <trkpt lat="46.39758" lon="6.06758">
        <ele>1337.33</ele>
        <time>2015-10-26T07:44:01Z</time>
      </trkpt>
      <trkpt lat="46.39773" lon="6.06758">
        <ele>1337.33</ele>
        <time>2015-10-26T07:44:08Z</time>
      </trkpt>
      <trkpt lat="46.39792" lon="6.06773">
        <ele>1336.85</ele>
        <time>2015-10-26T07:44:22Z</time>
      </trkpt>
      <trkpt lat="46.39808" lon="6.06781">
        <ele>1336.85</ele>
        <time>2015-10-26T07:44:35Z</time>
      </trkpt>
      <trkpt lat="46.39825" lon="6.06794">
        <ele>1337.81</ele>
        <time>2015-10-26T07:44:48Z</time>
      </trkpt>
      <trkpt lat="46.39841" lon="6.06816">
        <ele>1338.29</ele>
        <time>2015-10-26T07:44:59Z</time>
      </trkpt>
      <trkpt lat="46.3986" lon="6.06836">
        <ele>1339.25</ele>
        <time>2015-10-26T07:45:12Z</time>
      </trkpt>
      <trkpt lat="46.39865" lon="6.06843">
        <ele>1339.25</ele>
        <time>2015-10-26T07:45:16Z</time>
      </trkpt>
      <trkpt lat="46.39884" lon="6.0686">
        <ele>1339.73</ele>
        <time>2015-10-26T07:45:30Z</time>
      </trkpt>
      <trkpt lat="46.39901" lon="6.06878">
        <ele>1340.7</ele>
        <time>2015-10-26T07:45:45Z</time>
      </trkpt>
      <trkpt lat="46.39916" lon="6.0689">
        <ele>1341.66</ele>
        <time>2015-10-26T07:45:57Z</time>
      </trkpt>
      <trkpt lat="46.39926" lon="6.06904">
        <ele>1343.1</ele>
        <time>2015-10-26T07:46:08Z</time>
      </trkpt>
      <trkpt lat="46.3993" lon="6.06907">
        <ele>1343.1</ele>
        <time>2015-10-26T07:46:11Z</time>
      </trkpt>
      <trkpt lat="46.39935" lon="6.06914">
        <ele>1343.58</ele>
        <time>2015-10-26T07:46:18Z</time>
      </trkpt>
      <trkpt lat="46.39947" lon="6.0693">
        <ele>1345.5</ele>
        <time>2015-10-26T07:46:30Z</time>
      </trkpt>
      <trkpt lat="46.39954" lon="6.06938">
        <ele>1345.5</ele>
        <time>2015-10-26T07:46:37Z</time>
      </trkpt>
      <trkpt lat="46.3996" lon="6.06944">
        <ele>1345.98</ele>
        <time>2015-10-26T07:46:40Z</time>
      </trkpt>
      <trkpt lat="46.39972" lon="6.06958">
        <ele>1346.94</ele>
        <time>2015-10-26T07:46:50Z</time>
      </trkpt>
      <trkpt lat="46.3999" lon="6.06974">
        <ele>1347.43</ele>
        <time>2015-10-26T07:47:04Z</time>
      </trkpt>
      <trkpt lat="46.39991" lon="6.06975">
        <ele>1347.43</ele>
        <time>2015-10-26T07:47:05Z</time>
      </trkpt>
      <trkpt lat="46.39994" lon="6.0698">
        <ele>1347.43</ele>
        <time>2015-10-26T07:47:07Z</time>
      </trkpt>
      <trkpt lat="46.4001" lon="6.06998">
        <ele>1348.39</ele>
        <time>2015-10-26T07:47:21Z</time>
      </trkpt>
      <trkpt lat="46.40019" lon="6.07007">
        <ele>1349.35</ele>
        <time>2015-10-26T07:47:30Z</time>
      </trkpt>
      <trkpt lat="46.40025" lon="6.07014">
        <ele>1349.35</ele>
        <time>2015-10-26T07:47:34Z</time>
      </trkpt>
      <trkpt lat="46.40046" lon="6.07033">
        <ele>1350.31</ele>
        <time>2015-10-26T07:47:49Z</time>
      </trkpt>
      <trkpt lat="46.40046" lon="6.07033">
        <ele>1350.31</ele>
        <time>2015-10-26T07:47:50Z</time>
      </trkpt>
      <trkpt lat="46.40048" lon="6.07037">
        <ele>1350.79</ele>
        <time>2015-10-26T07:47:53Z</time>
      </trkpt>
      <trkpt lat="46.40064" lon="6.07052">
        <ele>1350.79</ele>
        <time>2015-10-26T07:48:05Z</time>
      </trkpt>
      <trkpt lat="46.40076" lon="6.07063">
        <ele>1350.79</ele>
        <time>2015-10-26T07:48:17Z</time>
      </trkpt>
      <trkpt lat="46.40076" lon="6.07064">
        <ele>1350.79</ele>
        <time>2015-10-26T07:48:19Z</time>
      </trkpt>
      <trkpt lat="46.40079" lon="6.07068">
        <ele>1350.79</ele>
        <time>2015-10-26T07:48:21Z</time>
      </trkpt>
      <trkpt lat="46.40084" lon="6.07074">
        <ele>1350.31</ele>
        <time>2015-10-26T07:48:25Z</time>
      </trkpt>
      <trkpt lat="46.40095" lon="6.07089">
        <ele>1350.79</ele>
        <time>2015-10-26T07:48:35Z</time>
      </trkpt>
      <trkpt lat="46.40102" lon="6.07096">
        <ele>1350.79</ele>
        <time>2015-10-26T07:48:40Z</time>
      </trkpt>
      <trkpt lat="46.40108" lon="6.07103">
        <ele>1351.27</ele>
        <time>2015-10-26T07:48:46Z</time>
      </trkpt>
      <trkpt lat="46.40121" lon="6.07122">
        <ele>1351.27</ele>
        <time>2015-10-26T07:48:58Z</time>
      </trkpt>
      <trkpt lat="46.40122" lon="6.07127">
        <ele>1351.27</ele>
        <time>2015-10-26T07:49:02Z</time>
      </trkpt>
      <trkpt lat="46.40124" lon="6.07131">
        <ele>1351.27</ele>
        <time>2015-10-26T07:49:04Z</time>
      </trkpt>
      <trkpt lat="46.40128" lon="6.07141">
        <ele>1351.27</ele>
        <time>2015-10-26T07:49:10Z</time>
      </trkpt>
      <trkpt lat="46.40131" lon="6.07146">
        <ele>1351.75</ele>
        <time>2015-10-26T07:49:13Z</time>
      </trkpt>
      <trkpt lat="46.40139" lon="6.07161">
        <ele>1352.23</ele>
        <time>2015-10-26T07:49:21Z</time>
      </trkpt>
      <trkpt lat="46.40141" lon="6.07164">
        <ele>1352.23</ele>
        <time>2015-10-26T07:49:23Z</time>
      </trkpt>
      <trkpt lat="46.40147" lon="6.07174">
        <ele>1353.19</ele>
        <time>2015-10-26T07:49:31Z</time>
      </trkpt>
      <trkpt lat="46.40157" lon="6.0719">
        <ele>1354.15</ele>
        <time>2015-10-26T07:49:41Z</time>
      </trkpt>
      <trkpt lat="46.40161" lon="6.07196">
        <ele>1354.63</ele>
        <time>2015-10-26T07:49:45Z</time>
      </trkpt>
      <trkpt lat="46.40167" lon="6.07205">
        <ele>1355.6</ele>
        <time>2015-10-26T07:49:50Z</time>
      </trkpt>
      <trkpt lat="46.40169" lon="6.0721">
        <ele>1355.6</ele>
        <time>2015-10-26T07:49:53Z</time>
      </trkpt>
      <trkpt lat="46.40176" lon="6.07223">
        <ele>1356.56</ele>
        <time>2015-10-26T07:50:01Z</time>
      </trkpt>
      <trkpt lat="46.40179" lon="6.07229">
        <ele>1357.04</ele>
        <time>2015-10-26T07:50:04Z</time>
      </trkpt>
      <trkpt lat="46.40187" lon="6.07246">
        <ele>1357.52</ele>
        <time>2015-10-26T07:50:14Z</time>
      </trkpt>
      <trkpt lat="46.40188" lon="6.07252">
        <ele>1357.52</ele>
        <time>2015-10-26T07:50:17Z</time>
      </trkpt>
      <trkpt lat="46.40197" lon="6.0727">
        <ele>1358.48</ele>
        <time>2015-10-26T07:50:28Z</time>
      </trkpt>
      <trkpt lat="46.40199" lon="6.07275">
        <ele>1358.48</ele>
        <time>2015-10-26T07:50:31Z</time>
      </trkpt>
      <trkpt lat="46.40206" lon="6.07293">
        <ele>1359.44</ele>
        <time>2015-10-26T07:50:41Z</time>
      </trkpt>
      <trkpt lat="46.40209" lon="6.07299">
        <ele>1359.44</ele>
        <time>2015-10-26T07:50:45Z</time>
      </trkpt>
      <trkpt lat="46.40215" lon="6.0731">
        <ele>1359.44</ele>
        <time>2015-10-26T07:50:53Z</time>
      </trkpt>
      <trkpt lat="46.40217" lon="6.07313">
        <ele>1359.44</ele>
        <time>2015-10-26T07:50:55Z</time>
      </trkpt>
      <trkpt lat="46.40228" lon="6.07336">
        <ele>1358.96</ele>
        <time>2015-10-26T07:51:08Z</time>
      </trkpt>
      <trkpt lat="46.40228" lon="6.07336">
        <ele>1358.48</ele>
        <time>2015-10-26T07:51:10Z</time>
      </trkpt>
      <trkpt lat="46.40229" lon="6.07338">
        <ele>1358.96</ele>
        <time>2015-10-26T07:51:12Z</time>
      </trkpt>
      <trkpt lat="46.40242" lon="6.07364">
        <ele>1358</ele>
        <time>2015-10-26T07:51:24Z</time>
      </trkpt>
      <trkpt lat="46.40247" lon="6.07373">
        <ele>1358</ele>
        <time>2015-10-26T07:51:30Z</time>
      </trkpt>
      <trkpt lat="46.40254" lon="6.07391">
        <ele>1358</ele>
        <time>2015-10-26T07:51:41Z</time>
      </trkpt>
      <trkpt lat="46.40256" lon="6.07397">
        <ele>1357.52</ele>
        <time>2015-10-26T07:51:44Z</time>
      </trkpt>
      <trkpt lat="46.40265" lon="6.07417">
        <ele>1358.48</ele>
        <time>2015-10-26T07:51:55Z</time>
      </trkpt>
      <trkpt lat="46.40264" lon="6.0742">
        <ele>1358.48</ele>
        <time>2015-10-26T07:51:57Z</time>
      </trkpt>
      <trkpt lat="46.40269" lon="6.07432">
        <ele>1358.48</ele>
        <time>2015-10-26T07:52:03Z</time>
      </trkpt>
      <trkpt lat="46.40278" lon="6.07461">
        <ele>1360.4</ele>
        <time>2015-10-26T07:52:16Z</time>
      </trkpt>
      <trkpt lat="46.4028" lon="6.07462">
        <ele>1359.92</ele>
        <time>2015-10-26T07:52:18Z</time>
      </trkpt>
      <trkpt lat="46.4029" lon="6.07492">
        <ele>1361.36</ele>
        <time>2015-10-26T07:52:32Z</time>
      </trkpt>
      <trkpt lat="46.40294" lon="6.07501">
        <ele>1362.33</ele>
        <time>2015-10-26T07:52:38Z</time>
      </trkpt>
      <trkpt lat="46.40297" lon="6.07511">
        <ele>1362.33</ele>
        <time>2015-10-26T07:52:42Z</time>
      </trkpt>
      <trkpt lat="46.40309" lon="6.07538">
        <ele>1363.29</ele>
        <time>2015-10-26T07:52:57Z</time>
      </trkpt>
      <trkpt lat="46.40314" lon="6.07551">
        <ele>1364.25</ele>
        <time>2015-10-26T07:53:04Z</time>
      </trkpt>
      <trkpt lat="46.40315" lon="6.07557">
        <ele>1364.25</ele>
        <time>2015-10-26T07:53:08Z</time>
      </trkpt>
      <trkpt lat="46.40317" lon="6.07575">
        <ele>1365.21</ele>
        <time>2015-10-26T07:53:19Z</time>
      </trkpt>
      <trkpt lat="46.40318" lon="6.07597">
        <ele>1366.17</ele>
        <time>2015-10-26T07:53:30Z</time>
      </trkpt>
      <trkpt lat="46.40318" lon="6.07598">
        <ele>1366.17</ele>
        <time>2015-10-26T07:53:31Z</time>
      </trkpt>
      <trkpt lat="46.40319" lon="6.07603">
        <ele>1366.65</ele>
        <time>2015-10-26T07:53:34Z</time>
      </trkpt>
      <trkpt lat="46.40321" lon="6.07616">
        <ele>1367.13</ele>
        <time>2015-10-26T07:53:42Z</time>
      </trkpt>
      <trkpt lat="46.40324" lon="6.07647">
        <ele>1368.09</ele>
        <time>2015-10-26T07:53:54Z</time>
      </trkpt>
      <trkpt lat="46.40324" lon="6.07649">
        <ele>1368.57</ele>
        <time>2015-10-26T07:53:55Z</time>
      </trkpt>
      <trkpt lat="46.40327" lon="6.07669">
        <ele>1369.05</ele>
        <time>2015-10-26T07:54:05Z</time>
      </trkpt>
      <trkpt lat="46.40328" lon="6.0769">
        <ele>1370.02</ele>
        <time>2015-10-26T07:54:14Z</time>
      </trkpt>
      <trkpt lat="46.40327" lon="6.07695">
        <ele>1370.02</ele>
        <time>2015-10-26T07:54:16Z</time>
      </trkpt>
      <trkpt lat="46.40328" lon="6.07703">
        <ele>1370.5</ele>
        <time>2015-10-26T07:54:20Z</time>
      </trkpt>
      <trkpt lat="46.40329" lon="6.07708">
        <ele>1370.5</ele>
        <time>2015-10-26T07:54:24Z</time>
      </trkpt>
      <trkpt lat="46.40329" lon="6.0771">
        <ele>1370.98</ele>
        <time>2015-10-26T07:54:27Z</time>
      </trkpt>
      <trkpt lat="46.40329" lon="6.07709">
        <ele>1370.5</ele>
        <time>2015-10-26T07:54:38Z</time>
      </trkpt>
      <trkpt lat="46.4033" lon="6.07709">
        <ele>1370.98</ele>
        <time>2015-10-26T07:55:13Z</time>
      </trkpt>
      <trkpt lat="46.4033" lon="6.07709">
        <ele>1370.5</ele>
        <time>2015-10-26T07:55:48Z</time>
      </trkpt>
      <trkpt lat="46.40331" lon="6.07708">
        <ele>1370.98</ele>
        <time>2015-10-26T07:56:22Z</time>
      </trkpt>
      <trkpt lat="46.40331" lon="6.0771">
        <ele>1371.46</ele>
        <time>2015-10-26T07:56:26Z</time>
      </trkpt>
      <trkpt lat="46.4033" lon="6.0772">
        <ele>1371.94</ele>
        <time>2015-10-26T07:56:32Z</time>
      </trkpt>
      <trkpt lat="46.40327" lon="6.07729">
        <ele>1372.42</ele>
        <time>2015-10-26T07:56:46Z</time>
      </trkpt>
      <trkpt lat="46.40326" lon="6.0773">
        <ele>1372.42</ele>
        <time>2015-10-26T07:57:03Z</time>
      </trkpt>
      <trkpt lat="46.40326" lon="6.0773">
        <ele>1372.9</ele>
        <time>2015-10-26T07:57:08Z</time>
      </trkpt>
      <trkpt lat="46.40333" lon="6.07731">
        <ele>1372.42</ele>
        <time>2015-10-26T07:57:16Z</time>
      </trkpt>
      <trkpt lat="46.40345" lon="6.07742">
        <ele>1373.38</ele>
        <time>2015-10-26T07:57:24Z</time>
      </trkpt>
      <trkpt lat="46.40352" lon="6.07762">
        <ele>1372.9</ele>
        <time>2015-10-26T07:57:39Z</time>
      </trkpt>
      <trkpt lat="46.40354" lon="6.0777">
        <ele>1372.42</ele>
        <time>2015-10-26T07:57:42Z</time>
      </trkpt>
      <trkpt lat="46.40363" lon="6.07792">
        <ele>1371.46</ele>
        <time>2015-10-26T07:57:50Z</time>
      </trkpt>
      <trkpt lat="46.40375" lon="6.07798">
        <ele>1370.02</ele>
        <time>2015-10-26T07:58:00Z</time>
      </trkpt>
      <trkpt lat="46.40384" lon="6.07796">
        <ele>1370.02</ele>
        <time>2015-10-26T07:58:08Z</time>
      </trkpt>
      <trkpt lat="46.40399" lon="6.07795">
        <ele>1370.5</ele>
        <time>2015-10-26T07:58:20Z</time>
      </trkpt>
      <trkpt lat="46.40404" lon="6.07795">
        <ele>1371.46</ele>
        <time>2015-10-26T07:58:25Z</time>
      </trkpt>
      <trkpt lat="46.40412" lon="6.07797">
        <ele>1372.42</ele>
        <time>2015-10-26T07:58:33Z</time>
      </trkpt>
      <trkpt lat="46.40414" lon="6.07798">
        <ele>1372.42</ele>
        <time>2015-10-26T07:58:35Z</time>
      </trkpt>
      <trkpt lat="46.40432" lon="6.07816">
        <ele>1372.9</ele>
        <time>2015-10-26T07:58:49Z</time>
      </trkpt>
      <trkpt lat="46.40434" lon="6.07819">
        <ele>1373.38</ele>
        <time>2015-10-26T07:58:51Z</time>
      </trkpt>
      <trkpt lat="46.40439" lon="6.07822">
        <ele>1372.9</ele>
        <time>2015-10-26T07:58:55Z</time>
      </trkpt>
      <trkpt lat="46.4046" lon="6.07833">
        <ele>1373.38</ele>
        <time>2015-10-26T07:59:09Z</time>
      </trkpt>
      <trkpt lat="46.40464" lon="6.07833">
        <ele>1373.86</ele>
        <time>2015-10-26T07:59:11Z</time>
      </trkpt>
      <trkpt lat="46.40481" lon="6.07838">
        <ele>1374.34</ele>
        <time>2015-10-26T07:59:25Z</time>
      </trkpt>
      <trkpt lat="46.40492" lon="6.07842">
        <ele>1375.3</ele>
        <time>2015-10-26T07:59:32Z</time>
      </trkpt>
      <trkpt lat="46.40516" lon="6.07857">
        <ele>1377.23</ele>
        <time>2015-10-26T07:59:46Z</time>
      </trkpt>
      <trkpt lat="46.40521" lon="6.07862">
        <ele>1377.23</ele>
        <time>2015-10-26T07:59:50Z</time>
      </trkpt>
      <trkpt lat="46.40534" lon="6.07875">
        <ele>1378.19</ele>
        <time>2015-10-26T08:00:03Z</time>
      </trkpt>
      <trkpt lat="46.40539" lon="6.07879">
        <ele>1378.67</ele>
        <time>2015-10-26T08:00:08Z</time>
      </trkpt>
      <trkpt lat="46.40544" lon="6.07883">
        <ele>1378.67</ele>
        <time>2015-10-26T08:00:12Z</time>
      </trkpt>
      <trkpt lat="46.40562" lon="6.07897">
        <ele>1380.11</ele>
        <time>2015-10-26T08:00:27Z</time>
      </trkpt>
      <trkpt lat="46.40565" lon="6.07899">
        <ele>1380.11</ele>
        <time>2015-10-26T08:00:30Z</time>
      </trkpt>
      <trkpt lat="46.40575" lon="6.07905">
        <ele>1380.59</ele>
        <time>2015-10-26T08:00:37Z</time>
      </trkpt>
      <trkpt lat="46.40589" lon="6.07917">
        <ele>1380.59</ele>
        <time>2015-10-26T08:00:49Z</time>
      </trkpt>
      <trkpt lat="46.40604" lon="6.07932">
        <ele>1379.15</ele>
        <time>2015-10-26T08:01:01Z</time>
      </trkpt>
      <trkpt lat="46.40604" lon="6.07932">
        <ele>1378.67</ele>
        <time>2015-10-26T08:01:06Z</time>
      </trkpt>
      <trkpt lat="46.40606" lon="6.07937">
        <ele>1378.19</ele>
        <time>2015-10-26T08:01:09Z</time>
      </trkpt>
      <trkpt lat="46.4062" lon="6.07965">
        <ele>1377.71</ele>
        <time>2015-10-26T08:01:21Z</time>
      </trkpt>
      <trkpt lat="46.4062" lon="6.0797">
        <ele>1377.71</ele>
        <time>2015-10-26T08:01:23Z</time>
      </trkpt>
      <trkpt lat="46.40618" lon="6.07985">
        <ele>1378.19</ele>
        <time>2015-10-26T08:01:28Z</time>
      </trkpt>
      <trkpt lat="46.40618" lon="6.07991">
        <ele>1378.19</ele>
        <time>2015-10-26T08:01:31Z</time>
      </trkpt>
      <trkpt lat="46.40622" lon="6.08012">
        <ele>1380.11</ele>
        <time>2015-10-26T08:01:41Z</time>
      </trkpt>
      <trkpt lat="46.40621" lon="6.08016">
        <ele>1380.11</ele>
        <time>2015-10-26T08:01:44Z</time>
      </trkpt>
      <trkpt lat="46.40626" lon="6.0803">
        <ele>1382.03</ele>
        <time>2015-10-26T08:01:53Z</time>
      </trkpt>
      <trkpt lat="46.40634" lon="6.08048">
        <ele>1382.99</ele>
        <time>2015-10-26T08:02:03Z</time>
      </trkpt>
      <trkpt lat="46.40649" lon="6.08065">
        <ele>1384.44</ele>
        <time>2015-10-26T08:02:15Z</time>
      </trkpt>
      <trkpt lat="46.40661" lon="6.08066">
        <ele>1384.44</ele>
        <time>2015-10-26T08:02:24Z</time>
      </trkpt>
      <trkpt lat="46.40669" lon="6.08063">
        <ele>1384.44</ele>
        <time>2015-10-26T08:02:31Z</time>
      </trkpt>
      <trkpt lat="46.40681" lon="6.08062">
        <ele>1384.44</ele>
        <time>2015-10-26T08:02:41Z</time>
      </trkpt>
      <trkpt lat="46.40687" lon="6.08063">
        <ele>1384.92</ele>
        <time>2015-10-26T08:02:46Z</time>
      </trkpt>
      <trkpt lat="46.40699" lon="6.0807">
        <ele>1385.4</ele>
        <time>2015-10-26T08:02:54Z</time>
      </trkpt>
      <trkpt lat="46.4071" lon="6.08083">
        <ele>1387.32</ele>
        <time>2015-10-26T08:03:08Z</time>
      </trkpt>
      <trkpt lat="46.40715" lon="6.08103">
        <ele>1388.28</ele>
        <time>2015-10-26T08:03:18Z</time>
      </trkpt>
      <trkpt lat="46.40716" lon="6.08109">
        <ele>1388.28</ele>
        <time>2015-10-26T08:03:22Z</time>
      </trkpt>
      <trkpt lat="46.40723" lon="6.08125">
        <ele>1390.2</ele>
        <time>2015-10-26T08:03:32Z</time>
      </trkpt>
      <trkpt lat="46.40726" lon="6.08127">
        <ele>1391.17</ele>
        <time>2015-10-26T08:03:36Z</time>
      </trkpt>
      <trkpt lat="46.40737" lon="6.08133">
        <ele>1393.09</ele>
        <time>2015-10-26T08:03:46Z</time>
      </trkpt>
      <trkpt lat="46.40747" lon="6.08138">
        <ele>1394.05</ele>
        <time>2015-10-26T08:03:53Z</time>
      </trkpt>
      <trkpt lat="46.40756" lon="6.08144">
        <ele>1395.49</ele>
        <time>2015-10-26T08:04:00Z</time>
      </trkpt>
      <trkpt lat="46.40772" lon="6.08156">
        <ele>1396.93</ele>
        <time>2015-10-26T08:04:13Z</time>
      </trkpt>
      <trkpt lat="46.40786" lon="6.0817">
        <ele>1398.37</ele>
        <time>2015-10-26T08:04:25Z</time>
      </trkpt>
      <trkpt lat="46.40791" lon="6.08175">
        <ele>1398.37</ele>
        <time>2015-10-26T08:04:29Z</time>
      </trkpt>
      <trkpt lat="46.40794" lon="6.0818">
        <ele>1398.86</ele>
        <time>2015-10-26T08:04:32Z</time>
      </trkpt>
      <trkpt lat="46.40796" lon="6.08183">
        <ele>1398.86</ele>
        <time>2015-10-26T08:04:34Z</time>
      </trkpt>
      <trkpt lat="46.40801" lon="6.0819">
        <ele>1399.82</ele>
        <time>2015-10-26T08:04:40Z</time>
      </trkpt>
      <trkpt lat="46.40812" lon="6.08199">
        <ele>1401.74</ele>
        <time>2015-10-26T08:04:49Z</time>
      </trkpt>
      <trkpt lat="46.40826" lon="6.08208">
        <ele>1404.14</ele>
        <time>2015-10-26T08:05:02Z</time>
      </trkpt>
      <trkpt lat="46.40828" lon="6.08208">
        <ele>1404.62</ele>
        <time>2015-10-26T08:05:04Z</time>
      </trkpt>
      <trkpt lat="46.40831" lon="6.08211">
        <ele>1405.1</ele>
        <time>2015-10-26T08:05:07Z</time>
      </trkpt>
      <trkpt lat="46.4084" lon="6.08214">
        <ele>1406.55</ele>
        <time>2015-10-26T08:05:16Z</time>
      </trkpt>
      <trkpt lat="46.40843" lon="6.08216">
        <ele>1407.03</ele>
        <time>2015-10-26T08:05:18Z</time>
      </trkpt>
      <trkpt lat="46.40852" lon="6.08218">
        <ele>1407.51</ele>
        <time>2015-10-26T08:05:25Z</time>
      </trkpt>
      <trkpt lat="46.40869" lon="6.08222">
        <ele>1407.99</ele>
        <time>2015-10-26T08:05:38Z</time>
      </trkpt>
      <trkpt lat="46.40885" lon="6.08222">
        <ele>1408.47</ele>
        <time>2015-10-26T08:05:50Z</time>
      </trkpt>
      <trkpt lat="46.40893" lon="6.08219">
        <ele>1408.95</ele>
        <time>2015-10-26T08:05:55Z</time>
      </trkpt>
      <trkpt lat="46.40897" lon="6.08219">
        <ele>1408.95</ele>
        <time>2015-10-26T08:05:59Z</time>
      </trkpt>
      <trkpt lat="46.40904" lon="6.08219">
        <ele>1409.43</ele>
        <time>2015-10-26T08:06:04Z</time>
      </trkpt>
      <trkpt lat="46.40921" lon="6.08215">
        <ele>1407.99</ele>
        <time>2015-10-26T08:06:17Z</time>
      </trkpt>
      <trkpt lat="46.40937" lon="6.08215">
        <ele>1406.55</ele>
        <time>2015-10-26T08:06:29Z</time>
      </trkpt>
      <trkpt lat="46.40945" lon="6.08215">
        <ele>1405.58</ele>
        <time>2015-10-26T08:06:36Z</time>
      </trkpt>
      <trkpt lat="46.40964" lon="6.08217">
        <ele>1404.62</ele>
        <time>2015-10-26T08:06:50Z</time>
      </trkpt>
      <trkpt lat="46.40981" lon="6.08218">
        <ele>1404.14</ele>
        <time>2015-10-26T08:07:03Z</time>
      </trkpt>
      <trkpt lat="46.40994" lon="6.08218">
        <ele>1403.18</ele>
        <time>2015-10-26T08:07:13Z</time>
      </trkpt>
      <trkpt lat="46.41003" lon="6.08218">
        <ele>1401.74</ele>
        <time>2015-10-26T08:07:26Z</time>
      </trkpt>
      <trkpt lat="46.41003" lon="6.08219">
        <ele>1401.74</ele>
        <time>2015-10-26T08:07:34Z</time>
      </trkpt>
      <trkpt lat="46.41008" lon="6.08228">
        <ele>1403.18</ele>
        <time>2015-10-26T08:07:42Z</time>
      </trkpt>
      <trkpt lat="46.41011" lon="6.0824">
        <ele>1404.14</ele>
        <time>2015-10-26T08:07:52Z</time>
      </trkpt>
      <trkpt lat="46.41011" lon="6.08245">
        <ele>1404.62</ele>
        <time>2015-10-26T08:07:55Z</time>
      </trkpt>
      <trkpt lat="46.41012" lon="6.08251">
        <ele>1404.62</ele>
        <time>2015-10-26T08:07:58Z</time>
      </trkpt>
      <trkpt lat="46.41012" lon="6.08256">
        <ele>1404.62</ele>
        <time>2015-10-26T08:08:01Z</time>
      </trkpt>
      <trkpt lat="46.41016" lon="6.08281">
        <ele>1405.1</ele>
        <time>2015-10-26T08:08:15Z</time>
      </trkpt>
      <trkpt lat="46.41017" lon="6.08289">
        <ele>1405.58</ele>
        <time>2015-10-26T08:08:19Z</time>
      </trkpt>
      <trkpt lat="46.41018" lon="6.08297">
        <ele>1405.58</ele>
        <time>2015-10-26T08:08:23Z</time>
      </trkpt>
      <trkpt lat="46.41019" lon="6.08308">
        <ele>1406.55</ele>
        <time>2015-10-26T08:08:29Z</time>
      </trkpt>
      <trkpt lat="46.41021" lon="6.08312">
        <ele>1406.55</ele>
        <time>2015-10-26T08:08:32Z</time>
      </trkpt>
      <trkpt lat="46.41022" lon="6.08314">
        <ele>1407.03</ele>
        <time>2015-10-26T08:08:34Z</time>
      </trkpt>
      <trkpt lat="46.41024" lon="6.0833">
        <ele>1408.95</ele>
        <time>2015-10-26T08:08:45Z</time>
      </trkpt>
      <trkpt lat="46.41024" lon="6.08336">
        <ele>1409.91</ele>
        <time>2015-10-26T08:08:50Z</time>
      </trkpt>
      <trkpt lat="46.41025" lon="6.08339">
        <ele>1410.87</ele>
        <time>2015-10-26T08:08:52Z</time>
      </trkpt>
      <trkpt lat="46.41026" lon="6.08345">
        <ele>1410.87</ele>
        <time>2015-10-26T08:08:56Z</time>
      </trkpt>
      <trkpt lat="46.41027" lon="6.08352">
        <ele>1411.35</ele>
        <time>2015-10-26T08:09:00Z</time>
      </trkpt>
      <trkpt lat="46.41028" lon="6.08358">
        <ele>1412.31</ele>
        <time>2015-10-26T08:09:04Z</time>
      </trkpt>
      <trkpt lat="46.41027" lon="6.08361">
        <ele>1412.79</ele>
        <time>2015-10-26T08:09:08Z</time>
      </trkpt>
      <trkpt lat="46.41029" lon="6.08374">
        <ele>1416.16</ele>
        <time>2015-10-26T08:09:19Z</time>
      </trkpt>
      <trkpt lat="46.41028" lon="6.08383">
        <ele>1418.08</ele>
        <time>2015-10-26T08:09:28Z</time>
      </trkpt>
      <trkpt lat="46.41028" lon="6.08389">
        <ele>1419.04</ele>
        <time>2015-10-26T08:09:40Z</time>
      </trkpt>
      <trkpt lat="46.41026" lon="6.084">
        <ele>1422.41</ele>
        <time>2015-10-26T08:09:49Z</time>
      </trkpt>
      <trkpt lat="46.41026" lon="6.08404">
        <ele>1422.41</ele>
        <time>2015-10-26T08:09:52Z</time>
      </trkpt>
      <trkpt lat="46.41026" lon="6.08407">
        <ele>1423.37</ele>
        <time>2015-10-26T08:09:55Z</time>
      </trkpt>
      <trkpt lat="46.41027" lon="6.08411">
        <ele>1423.85</ele>
        <time>2015-10-26T08:09:58Z</time>
      </trkpt>
      <trkpt lat="46.41031" lon="6.08417">
        <ele>1425.77</ele>
        <time>2015-10-26T08:10:04Z</time>
      </trkpt>
      <trkpt lat="46.41032" lon="6.08418">
        <ele>1426.25</ele>
        <time>2015-10-26T08:10:06Z</time>
      </trkpt>
      <trkpt lat="46.41034" lon="6.08422">
        <ele>1426.73</ele>
        <time>2015-10-26T08:10:10Z</time>
      </trkpt>
      <trkpt lat="46.41036" lon="6.08425">
        <ele>1428.18</ele>
        <time>2015-10-26T08:10:14Z</time>
      </trkpt>
      <trkpt lat="46.41039" lon="6.0843">
        <ele>1428.66</ele>
        <time>2015-10-26T08:10:18Z</time>
      </trkpt>
      <trkpt lat="46.41045" lon="6.08438">
        <ele>1430.1</ele>
        <time>2015-10-26T08:10:26Z</time>
      </trkpt>
      <trkpt lat="46.41048" lon="6.08443">
        <ele>1430.1</ele>
        <time>2015-10-26T08:10:37Z</time>
      </trkpt>
      <trkpt lat="46.41048" lon="6.08443">
        <ele>1430.58</ele>
        <time>2015-10-26T08:11:16Z</time>
      </trkpt>
      <trkpt lat="46.41048" lon="6.08443">
        <ele>1430.1</ele>
        <time>2015-10-26T08:11:48Z</time>
      </trkpt>
      <trkpt lat="46.41048" lon="6.0845">
        <ele>1431.06</ele>
        <time>2015-10-26T08:11:52Z</time>
      </trkpt>
      <trkpt lat="46.41053" lon="6.08462">
        <ele>1431.54</ele>
        <time>2015-10-26T08:12:00Z</time>
      </trkpt>
      <trkpt lat="46.41054" lon="6.08464">
        <ele>1432.02</ele>
        <time>2015-10-26T08:12:02Z</time>
      </trkpt>
      <trkpt lat="46.41057" lon="6.08472">
        <ele>1432.02</ele>
        <time>2015-10-26T08:12:10Z</time>
      </trkpt>
      <trkpt lat="46.41062" lon="6.0848">
        <ele>1431.54</ele>
        <time>2015-10-26T08:12:23Z</time>
      </trkpt>
      <trkpt lat="46.41062" lon="6.08483">
        <ele>1431.06</ele>
        <time>2015-10-26T08:12:27Z</time>
      </trkpt>
      <trkpt lat="46.41062" lon="6.08487">
        <ele>1430.58</ele>
        <time>2015-10-26T08:12:30Z</time>
      </trkpt>
      <trkpt lat="46.41063" lon="6.08493">
        <ele>1430.1</ele>
        <time>2015-10-26T08:12:34Z</time>
      </trkpt>
      <trkpt lat="46.41064" lon="6.08498">
        <ele>1429.14</ele>
        <time>2015-10-26T08:12:38Z</time>
      </trkpt>
      <trkpt lat="46.41062" lon="6.08504">
        <ele>1427.7</ele>
        <time>2015-10-26T08:12:44Z</time>
      </trkpt>
      <trkpt lat="46.41064" lon="6.08514">
        <ele>1425.29</ele>
        <time>2015-10-26T08:12:52Z</time>
      </trkpt>
      <trkpt lat="46.41065" lon="6.08517">
        <ele>1424.81</ele>
        <time>2015-10-26T08:12:55Z</time>
      </trkpt>
      <trkpt lat="46.41072" lon="6.08523">
        <ele>1422.41</ele>
        <time>2015-10-26T08:13:04Z</time>
      </trkpt>
      <trkpt lat="46.41077" lon="6.0853">
        <ele>1420.97</ele>
        <time>2015-10-26T08:13:10Z</time>
      </trkpt>
      <trkpt lat="46.41081" lon="6.08531">
        <ele>1420</ele>
        <time>2015-10-26T08:13:14Z</time>
      </trkpt>
      <trkpt lat="46.41088" lon="6.08536">
        <ele>1417.6</ele>
        <time>2015-10-26T08:13:23Z</time>
      </trkpt>
      <trkpt lat="46.41091" lon="6.08553">
        <ele>1415.2</ele>
        <time>2015-10-26T08:13:35Z</time>
      </trkpt>
      <trkpt lat="46.41091" lon="6.08553">
        <ele>1415.2</ele>
        <time>2015-10-26T08:13:37Z</time>
      </trkpt>
      <trkpt lat="46.41096" lon="6.08553">
        <ele>1415.2</ele>
        <time>2015-10-26T08:13:41Z</time>
      </trkpt>
      <trkpt lat="46.41101" lon="6.08551">
        <ele>1414.24</ele>
        <time>2015-10-26T08:13:45Z</time>
      </trkpt>
      <trkpt lat="46.41104" lon="6.08551">
        <ele>1413.76</ele>
        <time>2015-10-26T08:13:48Z</time>
      </trkpt>
      <trkpt lat="46.41108" lon="6.08549">
        <ele>1412.79</ele>
        <time>2015-10-26T08:13:51Z</time>
      </trkpt>
      <trkpt lat="46.41109" lon="6.08549">
        <ele>1411.35</ele>
        <time>2015-10-26T08:13:54Z</time>
      </trkpt>
      <trkpt lat="46.41112" lon="6.08558">
        <ele>1411.83</ele>
        <time>2015-10-26T08:13:59Z</time>
      </trkpt>
      <trkpt lat="46.41112" lon="6.08564">
        <ele>1411.35</ele>
        <time>2015-10-26T08:14:02Z</time>
      </trkpt>
      <trkpt lat="46.41122" lon="6.08578">
        <ele>1407.99</ele>
        <time>2015-10-26T08:14:12Z</time>
      </trkpt>
      <trkpt lat="46.41123" lon="6.08579">
        <ele>1407.03</ele>
        <time>2015-10-26T08:14:16Z</time>
      </trkpt>
      <trkpt lat="46.41129" lon="6.08589">
        <ele>1403.18</ele>
        <time>2015-10-26T08:14:29Z</time>
      </trkpt>
      <trkpt lat="46.41133" lon="6.08591">
        <ele>1399.82</ele>
        <time>2015-10-26T08:14:39Z</time>
      </trkpt>
      <trkpt lat="46.41137" lon="6.08591">
        <ele>1398.37</ele>
        <time>2015-10-26T08:14:44Z</time>
      </trkpt>
      <trkpt lat="46.41141" lon="6.08588">
        <ele>1396.45</ele>
        <time>2015-10-26T08:14:52Z</time>
      </trkpt>
      <trkpt lat="46.41152" lon="6.08594">
        <ele>1394.53</ele>
        <time>2015-10-26T08:15:03Z</time>
      </trkpt>
      <trkpt lat="46.41152" lon="6.08594">
        <ele>1394.05</ele>
        <time>2015-10-26T08:15:04Z</time>
      </trkpt>
      <trkpt lat="46.41151" lon="6.08597">
        <ele>1394.53</ele>
        <time>2015-10-26T08:15:07Z</time>
      </trkpt>
      <trkpt lat="46.4115" lon="6.08605">
        <ele>1395.97</ele>
        <time>2015-10-26T08:15:11Z</time>
      </trkpt>
      <trkpt lat="46.41147" lon="6.0861">
        <ele>1395.97</ele>
        <time>2015-10-26T08:15:15Z</time>
      </trkpt>
      <trkpt lat="46.41146" lon="6.08621">
        <ele>1397.89</ele>
        <time>2015-10-26T08:15:21Z</time>
      </trkpt>
      <trkpt lat="46.41144" lon="6.0863">
        <ele>1398.86</ele>
        <time>2015-10-26T08:15:25Z</time>
      </trkpt>
      <trkpt lat="46.41143" lon="6.08638">
        <ele>1399.34</ele>
        <time>2015-10-26T08:15:29Z</time>
      </trkpt>
      <trkpt lat="46.4114" lon="6.0865">
        <ele>1400.78</ele>
        <time>2015-10-26T08:15:36Z</time>
      </trkpt>
      <trkpt lat="46.41139" lon="6.08655">
        <ele>1401.74</ele>
        <time>2015-10-26T08:15:39Z</time>
      </trkpt>
      <trkpt lat="46.41138" lon="6.08659">
        <ele>1401.74</ele>
        <time>2015-10-26T08:15:43Z</time>
      </trkpt>
      <trkpt lat="46.41136" lon="6.08659">
        <ele>1402.7</ele>
        <time>2015-10-26T08:15:46Z</time>
      </trkpt>
      <trkpt lat="46.41132" lon="6.0866">
        <ele>1403.18</ele>
        <time>2015-10-26T08:15:50Z</time>
      </trkpt>
      <trkpt lat="46.41129" lon="6.08672">
        <ele>1404.62</ele>
        <time>2015-10-26T08:15:57Z</time>
      </trkpt>
      <trkpt lat="46.41129" lon="6.08684">
        <ele>1404.14</ele>
        <time>2015-10-26T08:16:03Z</time>
      </trkpt>
      <trkpt lat="46.41126" lon="6.08707">
        <ele>1404.62</ele>
        <time>2015-10-26T08:16:14Z</time>
      </trkpt>
      <trkpt lat="46.41123" lon="6.08724">
        <ele>1405.1</ele>
        <time>2015-10-26T08:16:24Z</time>
      </trkpt>
      <trkpt lat="46.41123" lon="6.08726">
        <ele>1404.62</ele>
        <time>2015-10-26T08:16:25Z</time>
      </trkpt>
      <trkpt lat="46.41123" lon="6.08729">
        <ele>1404.62</ele>
        <time>2015-10-26T08:16:35Z</time>
      </trkpt>
      <trkpt lat="46.41123" lon="6.08726">
        <ele>1404.62</ele>
        <time>2015-10-26T08:16:46Z</time>
      </trkpt>
      <trkpt lat="46.41123" lon="6.08726">
        <ele>1404.62</ele>
        <time>2015-10-26T08:17:18Z</time>
      </trkpt>
      <trkpt lat="46.41124" lon="6.08727">
        <ele>1405.1</ele>
        <time>2015-10-26T08:17:26Z</time>
      </trkpt>
      <trkpt lat="46.41124" lon="6.0873">
        <ele>1404.14</ele>
        <time>2015-10-26T08:17:42Z</time>
      </trkpt>
      <trkpt lat="46.41125" lon="6.08729">
        <ele>1404.62</ele>
        <time>2015-10-26T08:18:12Z</time>
      </trkpt>
      <trkpt lat="46.41127" lon="6.0874">
        <ele>1404.14</ele>
        <time>2015-10-26T08:18:20Z</time>
      </trkpt>
      <trkpt lat="46.41124" lon="6.08741">
        <ele>1403.66</ele>
        <time>2015-10-26T08:18:23Z</time>
      </trkpt>
      <trkpt lat="46.41122" lon="6.08742">
        <ele>1403.66</ele>
        <time>2015-10-26T08:18:38Z</time>
      </trkpt>
      <trkpt lat="46.41122" lon="6.08742">
        <ele>1403.66</ele>
        <time>2015-10-26T08:18:56Z</time>
      </trkpt>
      <trkpt lat="46.41124" lon="6.08744">
        <ele>1403.66</ele>
        <time>2015-10-26T08:19:00Z</time>
      </trkpt>
      <trkpt lat="46.41133" lon="6.08749">
        <ele>1404.62</ele>
        <time>2015-10-26T08:19:10Z</time>
      </trkpt>
      <trkpt lat="46.41139" lon="6.08747">
        <ele>1406.07</ele>
        <time>2015-10-26T08:19:16Z</time>
      </trkpt>
      <trkpt lat="46.41143" lon="6.08746">
        <ele>1407.03</ele>
        <time>2015-10-26T08:19:30Z</time>
      </trkpt>
      <trkpt lat="46.41143" lon="6.08746">
        <ele>1407.03</ele>
        <time>2015-10-26T08:19:48Z</time>
      </trkpt>
      <trkpt lat="46.41143" lon="6.08746">
        <ele>1407.03</ele>
        <time>2015-10-26T08:19:59Z</time>
      </trkpt>
      <trkpt lat="46.41148" lon="6.08743">
        <ele>1407.99</ele>
        <time>2015-10-26T08:20:04Z</time>
      </trkpt>
      <trkpt lat="46.41157" lon="6.08737">
        <ele>1409.91</ele>
        <time>2015-10-26T08:20:12Z</time>
      </trkpt>
      <trkpt lat="46.41167" lon="6.08739">
        <ele>1412.31</ele>
        <time>2015-10-26T08:20:24Z</time>
      </trkpt>
      <trkpt lat="46.41171" lon="6.08737">
        <ele>1413.28</ele>
        <time>2015-10-26T08:20:29Z</time>
      </trkpt>
      <trkpt lat="46.41174" lon="6.08739">
        <ele>1414.24</ele>
        <time>2015-10-26T08:20:33Z</time>
      </trkpt>
      <trkpt lat="46.41176" lon="6.08741">
        <ele>1414.24</ele>
        <time>2015-10-26T08:20:36Z</time>
      </trkpt>
      <trkpt lat="46.41178" lon="6.08742">
        <ele>1415.2</ele>
        <time>2015-10-26T08:20:39Z</time>
      </trkpt>
      <trkpt lat="46.41186" lon="6.08744">
        <ele>1417.6</ele>
        <time>2015-10-26T08:20:50Z</time>
      </trkpt>
      <trkpt lat="46.41192" lon="6.08747">
        <ele>1419.04</ele>
        <time>2015-10-26T08:20:56Z</time>
      </trkpt>
      <trkpt lat="46.41198" lon="6.08752">
        <ele>1421.45</ele>
        <time>2015-10-26T08:21:06Z</time>
      </trkpt>
      <trkpt lat="46.41201" lon="6.08756">
        <ele>1423.85</ele>
        <time>2015-10-26T08:21:16Z</time>
      </trkpt>
      <trkpt lat="46.41203" lon="6.08761">
        <ele>1426.73</ele>
        <time>2015-10-26T08:21:24Z</time>
      </trkpt>
      <trkpt lat="46.41208" lon="6.08769">
        <ele>1429.14</ele>
        <time>2015-10-26T08:21:36Z</time>
      </trkpt>
      <trkpt lat="46.41211" lon="6.08773">
        <ele>1431.54</ele>
        <time>2015-10-26T08:21:46Z</time>
      </trkpt>
      <trkpt lat="46.41215" lon="6.08775">
        <ele>1433.46</ele>
        <time>2015-10-26T08:21:58Z</time>
      </trkpt>
      <trkpt lat="46.41221" lon="6.08782">
        <ele>1435.87</ele>
        <time>2015-10-26T08:22:09Z</time>
      </trkpt>
      <trkpt lat="46.41223" lon="6.08789">
        <ele>1438.75</ele>
        <time>2015-10-26T08:22:21Z</time>
      </trkpt>
      <trkpt lat="46.41226" lon="6.08799">
        <ele>1441.15</ele>
        <time>2015-10-26T08:22:32Z</time>
      </trkpt>
      <trkpt lat="46.41226" lon="6.08799">
        <ele>1441.63</ele>
        <time>2015-10-26T08:22:33Z</time>
      </trkpt>
      <trkpt lat="46.41229" lon="6.08805">
        <ele>1443.56</ele>
        <time>2015-10-26T08:22:42Z</time>
      </trkpt>
      <trkpt lat="46.41232" lon="6.0881">
        <ele>1445.96</ele>
        <time>2015-10-26T08:22:51Z</time>
      </trkpt>
      <trkpt lat="46.41235" lon="6.08816">
        <ele>1448.36</ele>
        <time>2015-10-26T08:23:02Z</time>
      </trkpt>
      <trkpt lat="46.4124" lon="6.08822">
        <ele>1451.25</ele>
        <time>2015-10-26T08:23:14Z</time>
      </trkpt>
      <trkpt lat="46.41242" lon="6.08823">
        <ele>1451.73</ele>
        <time>2015-10-26T08:23:18Z</time>
      </trkpt>
      <trkpt lat="46.41245" lon="6.08824">
        <ele>1453.17</ele>
        <time>2015-10-26T08:23:23Z</time>
      </trkpt>
      <trkpt lat="46.41252" lon="6.08826">
        <ele>1454.13</ele>
        <time>2015-10-26T08:23:31Z</time>
      </trkpt>
      <trkpt lat="46.41255" lon="6.08828">
        <ele>1455.57</ele>
        <time>2015-10-26T08:23:34Z</time>
      </trkpt>
      <trkpt lat="46.41259" lon="6.0883">
        <ele>1456.05</ele>
        <time>2015-10-26T08:23:38Z</time>
      </trkpt>
      <trkpt lat="46.41264" lon="6.08827">
        <ele>1456.05</ele>
        <time>2015-10-26T08:23:42Z</time>
      </trkpt>
      <trkpt lat="46.4127" lon="6.08828">
        <ele>1456.05</ele>
        <time>2015-10-26T08:23:46Z</time>
      </trkpt>
      <trkpt lat="46.41284" lon="6.08828">
        <ele>1455.09</ele>
        <time>2015-10-26T08:23:57Z</time>
      </trkpt>
      <trkpt lat="46.41298" lon="6.08823">
        <ele>1455.57</ele>
        <time>2015-10-26T08:24:09Z</time>
      </trkpt>
      <trkpt lat="46.41307" lon="6.08822">
        <ele>1456.05</ele>
        <time>2015-10-26T08:24:19Z</time>
      </trkpt>
      <trkpt lat="46.41312" lon="6.08825">
        <ele>1457.02</ele>
        <time>2015-10-26T08:24:23Z</time>
      </trkpt>
      <trkpt lat="46.41317" lon="6.08825">
        <ele>1457.98</ele>
        <time>2015-10-26T08:24:28Z</time>
      </trkpt>
      <trkpt lat="46.41323" lon="6.08828">
        <ele>1458.94</ele>
        <time>2015-10-26T08:24:35Z</time>
      </trkpt>
      <trkpt lat="46.41327" lon="6.08828">
        <ele>1459.42</ele>
        <time>2015-10-26T08:24:39Z</time>
      </trkpt>
      <trkpt lat="46.4133" lon="6.0883">
        <ele>1460.38</ele>
        <time>2015-10-26T08:24:43Z</time>
      </trkpt>
      <trkpt lat="46.41333" lon="6.08832">
        <ele>1460.86</ele>
        <time>2015-10-26T08:24:46Z</time>
      </trkpt>
      <trkpt lat="46.41343" lon="6.08839">
        <ele>1462.78</ele>
        <time>2015-10-26T08:24:58Z</time>
      </trkpt>
      <trkpt lat="46.41347" lon="6.08843">
        <ele>1463.74</ele>
        <time>2015-10-26T08:25:04Z</time>
      </trkpt>
      <trkpt lat="46.41349" lon="6.08846">
        <ele>1464.71</ele>
        <time>2015-10-26T08:25:07Z</time>
      </trkpt>
      <trkpt lat="46.41352" lon="6.08853">
        <ele>1465.19</ele>
        <time>2015-10-26T08:25:13Z</time>
      </trkpt>
      <trkpt lat="46.41356" lon="6.08849">
        <ele>1465.19</ele>
        <time>2015-10-26T08:25:24Z</time>
      </trkpt>
      <trkpt lat="46.41356" lon="6.08849">
        <ele>1465.19</ele>
        <time>2015-10-26T08:25:39Z</time>
      </trkpt>
      <trkpt lat="46.41357" lon="6.08849">
        <ele>1465.19</ele>
        <time>2015-10-26T08:26:06Z</time>
      </trkpt>
      <trkpt lat="46.41356" lon="6.08849">
        <ele>1465.67</ele>
        <time>2015-10-26T08:26:35Z</time>
      </trkpt>
      <trkpt lat="46.41354" lon="6.08853">
        <ele>1465.19</ele>
        <time>2015-10-26T08:26:44Z</time>
      </trkpt>
      <trkpt lat="46.41354" lon="6.08853">
        <ele>1465.19</ele>
        <time>2015-10-26T08:27:18Z</time>
      </trkpt>
      <trkpt lat="46.41354" lon="6.08853">
        <ele>1466.15</ele>
        <time>2015-10-26T08:27:25Z</time>
      </trkpt>
      <trkpt lat="46.41357" lon="6.08854">
        <ele>1466.15</ele>
        <time>2015-10-26T08:27:28Z</time>
      </trkpt>
      <trkpt lat="46.4136" lon="6.08857">
        <ele>1465.67</ele>
        <time>2015-10-26T08:27:31Z</time>
      </trkpt>
      <trkpt lat="46.41362" lon="6.08856">
        <ele>1465.67</ele>
        <time>2015-10-26T08:27:33Z</time>
      </trkpt>
      <trkpt lat="46.41367" lon="6.08875">
        <ele>1464.71</ele>
        <time>2015-10-26T08:27:44Z</time>
      </trkpt>
      <trkpt lat="46.41368" lon="6.08881">
        <ele>1464.71</ele>
        <time>2015-10-26T08:27:48Z</time>
      </trkpt>
      <trkpt lat="46.4137" lon="6.08899">
        <ele>1463.74</ele>
        <time>2015-10-26T08:27:58Z</time>
      </trkpt>
      <trkpt lat="46.4137" lon="6.08901">
        <ele>1463.74</ele>
        <time>2015-10-26T08:27:59Z</time>
      </trkpt>
      <trkpt lat="46.41372" lon="6.08912">
        <ele>1463.26</ele>
        <time>2015-10-26T08:28:06Z</time>
      </trkpt>
      <trkpt lat="46.41374" lon="6.08934">
        <ele>1462.78</ele>
        <time>2015-10-26T08:28:18Z</time>
      </trkpt>
      <trkpt lat="46.41375" lon="6.08941">
        <ele>1462.78</ele>
        <time>2015-10-26T08:28:23Z</time>
      </trkpt>
      <trkpt lat="46.41373" lon="6.0895">
        <ele>1464.23</ele>
        <time>2015-10-26T08:28:32Z</time>
      </trkpt>
      <trkpt lat="46.41378" lon="6.08964">
        <ele>1464.71</ele>
        <time>2015-10-26T08:28:40Z</time>
      </trkpt>
      <trkpt lat="46.41387" lon="6.08974">
        <ele>1464.23</ele>
        <time>2015-10-26T08:28:52Z</time>
      </trkpt>
      <trkpt lat="46.41392" lon="6.08976">
        <ele>1463.74</ele>
        <time>2015-10-26T08:28:57Z</time>
      </trkpt>
      <trkpt lat="46.41407" lon="6.0899">
        <ele>1465.19</ele>
        <time>2015-10-26T08:29:12Z</time>
      </trkpt>
      <trkpt lat="46.41412" lon="6.08991">
        <ele>1465.67</ele>
        <time>2015-10-26T08:29:17Z</time>
      </trkpt>
      <trkpt lat="46.41414" lon="6.08991">
        <ele>1465.19</ele>
        <time>2015-10-26T08:29:19Z</time>
      </trkpt>
      <trkpt lat="46.41422" lon="6.08992">
        <ele>1466.15</ele>
        <time>2015-10-26T08:29:26Z</time>
      </trkpt>
      <trkpt lat="46.41437" lon="6.08991">
        <ele>1467.11</ele>
        <time>2015-10-26T08:29:38Z</time>
      </trkpt>
      <trkpt lat="46.41438" lon="6.08993">
        <ele>1467.59</ele>
        <time>2015-10-26T08:29:40Z</time>
      </trkpt>
      <trkpt lat="46.41441" lon="6.08995">
        <ele>1468.07</ele>
        <time>2015-10-26T08:29:43Z</time>
      </trkpt>
      <trkpt lat="46.41447" lon="6.08998">
        <ele>1468.55</ele>
        <time>2015-10-26T08:29:48Z</time>
      </trkpt>
      <trkpt lat="46.41453" lon="6.08999">
        <ele>1469.51</ele>
        <time>2015-10-26T08:29:54Z</time>
      </trkpt>
      <trkpt lat="46.41458" lon="6.09003">
        <ele>1469.99</ele>
        <time>2015-10-26T08:29:58Z</time>
      </trkpt>
      <trkpt lat="46.41465" lon="6.09007">
        <ele>1470.47</ele>
        <time>2015-10-26T08:30:04Z</time>
      </trkpt>
      <trkpt lat="46.41468" lon="6.09008">
        <ele>1470.95</ele>
        <time>2015-10-26T08:30:07Z</time>
      </trkpt>
      <trkpt lat="46.41473" lon="6.09011">
        <ele>1470.95</ele>
        <time>2015-10-26T08:30:11Z</time>
      </trkpt>
      <trkpt lat="46.41475" lon="6.09013">
        <ele>1471.44</ele>
        <time>2015-10-26T08:30:13Z</time>
      </trkpt>
      <trkpt lat="46.4148" lon="6.0902">
        <ele>1472.4</ele>
        <time>2015-10-26T08:30:20Z</time>
      </trkpt>
      <trkpt lat="46.41484" lon="6.09026">
        <ele>1472.88</ele>
        <time>2015-10-26T08:30:25Z</time>
      </trkpt>
      <trkpt lat="46.4149" lon="6.0903">
        <ele>1473.36</ele>
        <time>2015-10-26T08:30:30Z</time>
      </trkpt>
      <trkpt lat="46.41493" lon="6.09035">
        <ele>1474.32</ele>
        <time>2015-10-26T08:30:35Z</time>
      </trkpt>
      <trkpt lat="46.41499" lon="6.09041">
        <ele>1473.84</ele>
        <time>2015-10-26T08:30:43Z</time>
      </trkpt>
      <trkpt lat="46.41508" lon="6.09054">
        <ele>1473.36</ele>
        <time>2015-10-26T08:30:55Z</time>
      </trkpt>
      <trkpt lat="46.4151" lon="6.09058">
        <ele>1473.84</ele>
        <time>2015-10-26T08:30:58Z</time>
      </trkpt>
      <trkpt lat="46.41515" lon="6.09067">
        <ele>1474.32</ele>
        <time>2015-10-26T08:31:05Z</time>
      </trkpt>
      <trkpt lat="46.41516" lon="6.09071">
        <ele>1474.8</ele>
        <time>2015-10-26T08:31:07Z</time>
      </trkpt>
      <trkpt lat="46.41524" lon="6.09076">
        <ele>1475.28</ele>
        <time>2015-10-26T08:31:14Z</time>
      </trkpt>
      <trkpt lat="46.41527" lon="6.09078">
        <ele>1475.28</ele>
        <time>2015-10-26T08:31:17Z</time>
      </trkpt>
      <trkpt lat="46.41529" lon="6.0908">
        <ele>1475.76</ele>
        <time>2015-10-26T08:31:19Z</time>
      </trkpt>
      <trkpt lat="46.41532" lon="6.09089">
        <ele>1476.72</ele>
        <time>2015-10-26T08:31:25Z</time>
      </trkpt>
      <trkpt lat="46.41537" lon="6.09098">
        <ele>1478.16</ele>
        <time>2015-10-26T08:31:33Z</time>
      </trkpt>
      <trkpt lat="46.41543" lon="6.09109">
        <ele>1480.09</ele>
        <time>2015-10-26T08:31:42Z</time>
      </trkpt>
      <trkpt lat="46.41547" lon="6.09115">
        <ele>1481.05</ele>
        <time>2015-10-26T08:31:47Z</time>
      </trkpt>
      <trkpt lat="46.41551" lon="6.0912">
        <ele>1481.53</ele>
        <time>2015-10-26T08:31:52Z</time>
      </trkpt>
      <trkpt lat="46.41556" lon="6.0913">
        <ele>1482.49</ele>
        <time>2015-10-26T08:31:59Z</time>
      </trkpt>
      <trkpt lat="46.41564" lon="6.09145">
        <ele>1484.89</ele>
        <time>2015-10-26T08:32:11Z</time>
      </trkpt>
      <trkpt lat="46.41564" lon="6.09146">
        <ele>1484.89</ele>
        <time>2015-10-26T08:32:12Z</time>
      </trkpt>
      <trkpt lat="46.41567" lon="6.09154">
        <ele>1486.34</ele>
        <time>2015-10-26T08:32:19Z</time>
      </trkpt>
      <trkpt lat="46.41569" lon="6.09157">
        <ele>1486.82</ele>
        <time>2015-10-26T08:32:22Z</time>
      </trkpt>
      <trkpt lat="46.41572" lon="6.0916">
        <ele>1488.26</ele>
        <time>2015-10-26T08:32:27Z</time>
      </trkpt>
      <trkpt lat="46.41578" lon="6.09162">
        <ele>1488.26</ele>
        <time>2015-10-26T08:32:32Z</time>
      </trkpt>
      <trkpt lat="46.41581" lon="6.09165">
        <ele>1488.26</ele>
        <time>2015-10-26T08:32:35Z</time>
      </trkpt>
      <trkpt lat="46.41593" lon="6.09169">
        <ele>1486.82</ele>
        <time>2015-10-26T08:32:47Z</time>
      </trkpt>
      <trkpt lat="46.41599" lon="6.09175">
        <ele>1487.78</ele>
        <time>2015-10-26T08:32:53Z</time>
      </trkpt>
      <trkpt lat="46.41602" lon="6.09179">
        <ele>1488.26</ele>
        <time>2015-10-26T08:32:56Z</time>
      </trkpt>
      <trkpt lat="46.4161" lon="6.09188">
        <ele>1489.22</ele>
        <time>2015-10-26T08:33:06Z</time>
      </trkpt>
      <trkpt lat="46.41612" lon="6.09192">
        <ele>1490.18</ele>
        <time>2015-10-26T08:33:09Z</time>
      </trkpt>
      <trkpt lat="46.41616" lon="6.09196">
        <ele>1490.66</ele>
        <time>2015-10-26T08:33:13Z</time>
      </trkpt>
      <trkpt lat="46.41622" lon="6.09203">
        <ele>1491.14</ele>
        <time>2015-10-26T08:33:20Z</time>
      </trkpt>
      <trkpt lat="46.41624" lon="6.09207">
        <ele>1491.62</ele>
        <time>2015-10-26T08:33:23Z</time>
      </trkpt>
      <trkpt lat="46.41628" lon="6.09215">
        <ele>1491.62</ele>
        <time>2015-10-26T08:33:27Z</time>
      </trkpt>
      <trkpt lat="46.41631" lon="6.0922">
        <ele>1492.1</ele>
        <time>2015-10-26T08:33:32Z</time>
      </trkpt>
      <trkpt lat="46.41636" lon="6.09236">
        <ele>1493.06</ele>
        <time>2015-10-26T08:33:44Z</time>
      </trkpt>
      <trkpt lat="46.41637" lon="6.09238">
        <ele>1493.55</ele>
        <time>2015-10-26T08:33:46Z</time>
      </trkpt>
      <trkpt lat="46.4164" lon="6.0925">
        <ele>1494.03</ele>
        <time>2015-10-26T08:33:56Z</time>
      </trkpt>
      <trkpt lat="46.41641" lon="6.09252">
        <ele>1494.51</ele>
        <time>2015-10-26T08:34:01Z</time>
      </trkpt>
      <trkpt lat="46.41649" lon="6.0927">
        <ele>1495.95</ele>
        <time>2015-10-26T08:34:16Z</time>
      </trkpt>
      <trkpt lat="46.4165" lon="6.09271">
        <ele>1495.47</ele>
        <time>2015-10-26T08:34:17Z</time>
      </trkpt>
      <trkpt lat="46.41654" lon="6.09275">
        <ele>1497.39</ele>
        <time>2015-10-26T08:34:22Z</time>
      </trkpt>
      <trkpt lat="46.41659" lon="6.09287">
        <ele>1498.83</ele>
        <time>2015-10-26T08:34:30Z</time>
      </trkpt>
      <trkpt lat="46.41663" lon="6.09295">
        <ele>1499.31</ele>
        <time>2015-10-26T08:34:36Z</time>
      </trkpt>
      <trkpt lat="46.41664" lon="6.09298">
        <ele>1499.79</ele>
        <time>2015-10-26T08:34:38Z</time>
      </trkpt>
      <trkpt lat="46.41668" lon="6.09306">
        <ele>1499.31</ele>
        <time>2015-10-26T08:34:43Z</time>
      </trkpt>
      <trkpt lat="46.41668" lon="6.09309">
        <ele>1499.79</ele>
        <time>2015-10-26T08:34:45Z</time>
      </trkpt>
      <trkpt lat="46.41673" lon="6.09322">
        <ele>1498.83</ele>
        <time>2015-10-26T08:34:52Z</time>
      </trkpt>
      <trkpt lat="46.41674" lon="6.09328">
        <ele>1498.35</ele>
        <time>2015-10-26T08:34:55Z</time>
      </trkpt>
      <trkpt lat="46.41679" lon="6.09339">
        <ele>1497.39</ele>
        <time>2015-10-26T08:35:02Z</time>
      </trkpt>
      <trkpt lat="46.41682" lon="6.09347">
        <ele>1497.87</ele>
        <time>2015-10-26T08:35:06Z</time>
      </trkpt>
      <trkpt lat="46.41685" lon="6.09355">
        <ele>1497.39</ele>
        <time>2015-10-26T08:35:10Z</time>
      </trkpt>
      <trkpt lat="46.41687" lon="6.09357">
        <ele>1497.39</ele>
        <time>2015-10-26T08:35:12Z</time>
      </trkpt>
      <trkpt lat="46.41692" lon="6.09368">
        <ele>1497.39</ele>
        <time>2015-10-26T08:35:20Z</time>
      </trkpt>
      <trkpt lat="46.41696" lon="6.09377">
        <ele>1497.39</ele>
        <time>2015-10-26T08:35:25Z</time>
      </trkpt>
      <trkpt lat="46.417" lon="6.09387">
        <ele>1498.35</ele>
        <time>2015-10-26T08:35:32Z</time>
      </trkpt>
      <trkpt lat="46.41702" lon="6.09393">
        <ele>1498.83</ele>
        <time>2015-10-26T08:35:36Z</time>
      </trkpt>
      <trkpt lat="46.41708" lon="6.09401">
        <ele>1501.24</ele>
        <time>2015-10-26T08:35:45Z</time>
      </trkpt>
      <trkpt lat="46.41713" lon="6.09411">
        <ele>1503.16</ele>
        <time>2015-10-26T08:35:54Z</time>
      </trkpt>
      <trkpt lat="46.41715" lon="6.09416">
        <ele>1503.64</ele>
        <time>2015-10-26T08:35:58Z</time>
      </trkpt>
      <trkpt lat="46.41719" lon="6.09417">
        <ele>1504.6</ele>
        <time>2015-10-26T08:36:02Z</time>
      </trkpt>
      <trkpt lat="46.41721" lon="6.09421">
        <ele>1504.6</ele>
        <time>2015-10-26T08:36:05Z</time>
      </trkpt>
      <trkpt lat="46.41723" lon="6.09424">
        <ele>1505.08</ele>
        <time>2015-10-26T08:36:08Z</time>
      </trkpt>
      <trkpt lat="46.41727" lon="6.09431">
        <ele>1507</ele>
        <time>2015-10-26T08:36:15Z</time>
      </trkpt>
      <trkpt lat="46.4173" lon="6.09437">
        <ele>1508.45</ele>
        <time>2015-10-26T08:36:23Z</time>
      </trkpt>
      <trkpt lat="46.41733" lon="6.0944">
        <ele>1510.37</ele>
        <time>2015-10-26T08:36:30Z</time>
      </trkpt>
      <trkpt lat="46.41734" lon="6.09444">
        <ele>1510.85</ele>
        <time>2015-10-26T08:36:32Z</time>
      </trkpt>
      <trkpt lat="46.41738" lon="6.09449">
        <ele>1511.81</ele>
        <time>2015-10-26T08:36:38Z</time>
      </trkpt>
      <trkpt lat="46.41742" lon="6.09456">
        <ele>1513.25</ele>
        <time>2015-10-26T08:36:45Z</time>
      </trkpt>
      <trkpt lat="46.41743" lon="6.09458">
        <ele>1513.73</ele>
        <time>2015-10-26T08:36:49Z</time>
      </trkpt>
      <trkpt lat="46.41748" lon="6.09462">
        <ele>1515.66</ele>
        <time>2015-10-26T08:36:58Z</time>
      </trkpt>
      <trkpt lat="46.41752" lon="6.0947">
        <ele>1518.54</ele>
        <time>2015-10-26T08:37:10Z</time>
      </trkpt>
      <trkpt lat="46.41759" lon="6.09477">
        <ele>1520.46</ele>
        <time>2015-10-26T08:37:20Z</time>
      </trkpt>
      <trkpt lat="46.41761" lon="6.09479">
        <ele>1520.94</ele>
        <time>2015-10-26T08:37:23Z</time>
      </trkpt>
      <trkpt lat="46.41763" lon="6.09482">
        <ele>1521.9</ele>
        <time>2015-10-26T08:37:26Z</time>
      </trkpt>
      <trkpt lat="46.41768" lon="6.09485">
        <ele>1522.39</ele>
        <time>2015-10-26T08:37:32Z</time>
      </trkpt>
      <trkpt lat="46.41772" lon="6.09486">
        <ele>1522.87</ele>
        <time>2015-10-26T08:37:36Z</time>
      </trkpt>
      <trkpt lat="46.41775" lon="6.09487">
        <ele>1523.35</ele>
        <time>2015-10-26T08:37:39Z</time>
      </trkpt>
      <trkpt lat="46.41778" lon="6.09488">
        <ele>1523.35</ele>
        <time>2015-10-26T08:37:44Z</time>
      </trkpt>
      <trkpt lat="46.41784" lon="6.09496">
        <ele>1524.79</ele>
        <time>2015-10-26T08:37:53Z</time>
      </trkpt>
      <trkpt lat="46.41791" lon="6.09499">
        <ele>1526.71</ele>
        <time>2015-10-26T08:38:04Z</time>
      </trkpt>
      <trkpt lat="46.41796" lon="6.09506">
        <ele>1528.15</ele>
        <time>2015-10-26T08:38:12Z</time>
      </trkpt>
      <trkpt lat="46.41798" lon="6.0951">
        <ele>1528.63</ele>
        <time>2015-10-26T08:38:15Z</time>
      </trkpt>
      <trkpt lat="46.41802" lon="6.0951">
        <ele>1530.08</ele>
        <time>2015-10-26T08:38:29Z</time>
      </trkpt>
      <trkpt lat="46.41802" lon="6.0951">
        <ele>1529.59</ele>
        <time>2015-10-26T08:38:33Z</time>
      </trkpt>
      <trkpt lat="46.41809" lon="6.09519">
        <ele>1532</ele>
        <time>2015-10-26T08:38:44Z</time>
      </trkpt>
      <trkpt lat="46.41813" lon="6.09522">
        <ele>1533.44</ele>
        <time>2015-10-26T08:38:51Z</time>
      </trkpt>
      <trkpt lat="46.41819" lon="6.09524">
        <ele>1536.32</ele>
        <time>2015-10-26T08:39:02Z</time>
      </trkpt>
      <trkpt lat="46.41819" lon="6.09526">
        <ele>1536.32</ele>
        <time>2015-10-26T08:39:04Z</time>
      </trkpt>
      <trkpt lat="46.41823" lon="6.0953">
        <ele>1538.73</ele>
        <time>2015-10-26T08:39:12Z</time>
      </trkpt>
      <trkpt lat="46.41824" lon="6.09532">
        <ele>1539.69</ele>
        <time>2015-10-26T08:39:17Z</time>
      </trkpt>
      <trkpt lat="46.41827" lon="6.0954">
        <ele>1541.13</ele>
        <time>2015-10-26T08:39:23Z</time>
      </trkpt>
      <trkpt lat="46.41829" lon="6.09546">
        <ele>1541.61</ele>
        <time>2015-10-26T08:39:28Z</time>
      </trkpt>
      <trkpt lat="46.41836" lon="6.09555">
        <ele>1544.01</ele>
        <time>2015-10-26T08:39:39Z</time>
      </trkpt>
      <trkpt lat="46.41839" lon="6.09557">
        <ele>1545.46</ele>
        <time>2015-10-26T08:39:44Z</time>
      </trkpt>
      <trkpt lat="46.41846" lon="6.0956">
        <ele>1547.38</ele>
        <time>2015-10-26T08:39:53Z</time>
      </trkpt>
      <trkpt lat="46.41851" lon="6.09562">
        <ele>1548.34</ele>
        <time>2015-10-26T08:39:59Z</time>
      </trkpt>
      <trkpt lat="46.41858" lon="6.09566">
        <ele>1550.26</ele>
        <time>2015-10-26T08:40:09Z</time>
      </trkpt>
      <trkpt lat="46.41864" lon="6.09573">
        <ele>1552.67</ele>
        <time>2015-10-26T08:40:20Z</time>
      </trkpt>
      <trkpt lat="46.41867" lon="6.09576">
        <ele>1553.15</ele>
        <time>2015-10-26T08:40:25Z</time>
      </trkpt>
      <trkpt lat="46.4187" lon="6.0958">
        <ele>1554.11</ele>
        <time>2015-10-26T08:40:30Z</time>
      </trkpt>
      <trkpt lat="46.41877" lon="6.09585">
        <ele>1556.51</ele>
        <time>2015-10-26T08:40:40Z</time>
      </trkpt>
      <trkpt lat="46.41878" lon="6.09586">
        <ele>1556.99</ele>
        <time>2015-10-26T08:40:43Z</time>
      </trkpt>
      <trkpt lat="46.4188" lon="6.09587">
        <ele>1556.99</ele>
        <time>2015-10-26T08:40:45Z</time>
      </trkpt>
      <trkpt lat="46.41882" lon="6.09588">
        <ele>1557.95</ele>
        <time>2015-10-26T08:40:48Z</time>
      </trkpt>
      <trkpt lat="46.41888" lon="6.09592">
        <ele>1559.88</ele>
        <time>2015-10-26T08:40:58Z</time>
      </trkpt>
      <trkpt lat="46.41893" lon="6.09598">
        <ele>1561.8</ele>
        <time>2015-10-26T08:41:07Z</time>
      </trkpt>
      <trkpt lat="46.41899" lon="6.09605">
        <ele>1562.76</ele>
        <time>2015-10-26T08:41:16Z</time>
      </trkpt>
      <trkpt lat="46.41905" lon="6.09612">
        <ele>1564.2</ele>
        <time>2015-10-26T08:41:26Z</time>
      </trkpt>
      <trkpt lat="46.41907" lon="6.09615">
        <ele>1565.16</ele>
        <time>2015-10-26T08:41:31Z</time>
      </trkpt>
      <trkpt lat="46.41911" lon="6.09616">
        <ele>1566.12</ele>
        <time>2015-10-26T08:41:36Z</time>
      </trkpt>
      <trkpt lat="46.41915" lon="6.09618">
        <ele>1567.09</ele>
        <time>2015-10-26T08:41:46Z</time>
      </trkpt>
      <trkpt lat="46.41915" lon="6.09618">
        <ele>1567.09</ele>
        <time>2015-10-26T08:42:06Z</time>
      </trkpt>
      <trkpt lat="46.41915" lon="6.09618">
        <ele>1567.09</ele>
        <time>2015-10-26T08:42:31Z</time>
      </trkpt>
      <trkpt lat="46.41915" lon="6.09618">
        <ele>1567.09</ele>
        <time>2015-10-26T08:42:49Z</time>
      </trkpt>
      <trkpt lat="46.41916" lon="6.09618">
        <ele>1567.57</ele>
        <time>2015-10-26T08:43:09Z</time>
      </trkpt>
      <trkpt lat="46.41916" lon="6.09618">
        <ele>1567.09</ele>
        <time>2015-10-26T08:43:18Z</time>
      </trkpt>
      <trkpt lat="46.41915" lon="6.0962">
        <ele>1567.09</ele>
        <time>2015-10-26T08:43:32Z</time>
      </trkpt>
      <trkpt lat="46.41916" lon="6.09621">
        <ele>1568.05</ele>
        <time>2015-10-26T08:43:37Z</time>
      </trkpt>
      <trkpt lat="46.41917" lon="6.09626">
        <ele>1568.53</ele>
        <time>2015-10-26T08:43:41Z</time>
      </trkpt>
      <trkpt lat="46.41919" lon="6.09636">
        <ele>1569.49</ele>
        <time>2015-10-26T08:43:47Z</time>
      </trkpt>
      <trkpt lat="46.41919" lon="6.0964">
        <ele>1569.49</ele>
        <time>2015-10-26T08:43:50Z</time>
      </trkpt>
      <trkpt lat="46.41919" lon="6.09647">
        <ele>1570.45</ele>
        <time>2015-10-26T08:43:54Z</time>
      </trkpt>
      <trkpt lat="46.4192" lon="6.09653">
        <ele>1571.41</ele>
        <time>2015-10-26T08:43:58Z</time>
      </trkpt>
      <trkpt lat="46.41917" lon="6.09661">
        <ele>1572.85</ele>
        <time>2015-10-26T08:44:05Z</time>
      </trkpt>
      <trkpt lat="46.41916" lon="6.09664">
        <ele>1573.82</ele>
        <time>2015-10-26T08:44:08Z</time>
      </trkpt>
      <trkpt lat="46.41913" lon="6.09674">
        <ele>1576.22</ele>
        <time>2015-10-26T08:44:18Z</time>
      </trkpt>
      <trkpt lat="46.41911" lon="6.0968">
        <ele>1579.58</ele>
        <time>2015-10-26T08:44:28Z</time>
      </trkpt>
      <trkpt lat="46.41908" lon="6.09682">
        <ele>1579.58</ele>
        <time>2015-10-26T08:44:31Z</time>
      </trkpt>
      <trkpt lat="46.41907" lon="6.09684">
        <ele>1580.54</ele>
        <time>2015-10-26T08:44:33Z</time>
      </trkpt>
      <trkpt lat="46.41911" lon="6.09696">
        <ele>1581.99</ele>
        <time>2015-10-26T08:44:42Z</time>
      </trkpt>
      <trkpt lat="46.41912" lon="6.09698">
        <ele>1581.99</ele>
        <time>2015-10-26T08:44:44Z</time>
      </trkpt>
      <trkpt lat="46.41914" lon="6.097">
        <ele>1582.95</ele>
        <time>2015-10-26T08:44:47Z</time>
      </trkpt>
      <trkpt lat="46.41918" lon="6.09707">
        <ele>1584.39</ele>
        <time>2015-10-26T08:44:53Z</time>
      </trkpt>
      <trkpt lat="46.41924" lon="6.09713">
        <ele>1584.87</ele>
        <time>2015-10-26T08:45:00Z</time>
      </trkpt>
      <trkpt lat="46.41926" lon="6.09721">
        <ele>1584.39</ele>
        <time>2015-10-26T08:45:05Z</time>
      </trkpt>
      <trkpt lat="46.41934" lon="6.09726">
        <ele>1583.91</ele>
        <time>2015-10-26T08:45:13Z</time>
      </trkpt>
      <trkpt lat="46.41941" lon="6.09732">
        <ele>1585.35</ele>
        <time>2015-10-26T08:45:21Z</time>
      </trkpt>
      <trkpt lat="46.41944" lon="6.09735">
        <ele>1585.35</ele>
        <time>2015-10-26T08:45:33Z</time>
      </trkpt>
      <trkpt lat="46.41944" lon="6.09735">
        <ele>1585.35</ele>
        <time>2015-10-26T08:46:07Z</time>
      </trkpt>
      <trkpt lat="46.41944" lon="6.09735">
        <ele>1585.35</ele>
        <time>2015-10-26T08:46:11Z</time>
      </trkpt>
      <trkpt lat="46.41943" lon="6.09737">
        <ele>1585.35</ele>
        <time>2015-10-26T08:46:22Z</time>
      </trkpt>
      <trkpt lat="46.41943" lon="6.09737">
        <ele>1586.31</ele>
        <time>2015-10-26T08:46:32Z</time>
      </trkpt>
      <trkpt lat="46.41947" lon="6.09743">
        <ele>1585.83</ele>
        <time>2015-10-26T08:46:39Z</time>
      </trkpt>
      <trkpt lat="46.41953" lon="6.09753">
        <ele>1584.87</ele>
        <time>2015-10-26T08:46:47Z</time>
      </trkpt>
      <trkpt lat="46.41959" lon="6.0976">
        <ele>1582.47</ele>
        <time>2015-10-26T08:46:55Z</time>
      </trkpt>
      <trkpt lat="46.41965" lon="6.09766">
        <ele>1581.51</ele>
        <time>2015-10-26T08:47:01Z</time>
      </trkpt>
      <trkpt lat="46.41969" lon="6.09768">
        <ele>1581.03</ele>
        <time>2015-10-26T08:47:04Z</time>
      </trkpt>
      <trkpt lat="46.41973" lon="6.09772">
        <ele>1581.99</ele>
        <time>2015-10-26T08:47:08Z</time>
      </trkpt>
      <trkpt lat="46.41976" lon="6.09776">
        <ele>1582.47</ele>
        <time>2015-10-26T08:47:12Z</time>
      </trkpt>
      <trkpt lat="46.41983" lon="6.09786">
        <ele>1581.99</ele>
        <time>2015-10-26T08:47:22Z</time>
      </trkpt>
      <trkpt lat="46.41985" lon="6.09787">
        <ele>1581.99</ele>
        <time>2015-10-26T08:47:39Z</time>
      </trkpt>
      <trkpt lat="46.41985" lon="6.09787">
        <ele>1582.47</ele>
        <time>2015-10-26T08:47:42Z</time>
      </trkpt>
      <trkpt lat="46.4199" lon="6.0979">
        <ele>1581.03</ele>
        <time>2015-10-26T08:47:49Z</time>
      </trkpt>
      <trkpt lat="46.41993" lon="6.09794">
        <ele>1579.1</ele>
        <time>2015-10-26T08:47:54Z</time>
      </trkpt>
      <trkpt lat="46.41999" lon="6.09799">
        <ele>1575.74</ele>
        <time>2015-10-26T08:48:01Z</time>
      </trkpt>
      <trkpt lat="46.42002" lon="6.09799">
        <ele>1574.78</ele>
        <time>2015-10-26T08:48:04Z</time>
      </trkpt>
      <trkpt lat="46.42008" lon="6.09801">
        <ele>1573.82</ele>
        <time>2015-10-26T08:48:09Z</time>
      </trkpt>
      <trkpt lat="46.42011" lon="6.09802">
        <ele>1572.85</ele>
        <time>2015-10-26T08:48:12Z</time>
      </trkpt>
      <trkpt lat="46.42013" lon="6.09804">
        <ele>1572.85</ele>
        <time>2015-10-26T08:48:14Z</time>
      </trkpt>
      <trkpt lat="46.42018" lon="6.09802">
        <ele>1570.93</ele>
        <time>2015-10-26T08:48:18Z</time>
      </trkpt>
      <trkpt lat="46.42028" lon="6.09803">
        <ele>1569.49</ele>
        <time>2015-10-26T08:48:29Z</time>
      </trkpt>
      <trkpt lat="46.42037" lon="6.09822">
        <ele>1567.09</ele>
        <time>2015-10-26T08:48:42Z</time>
      </trkpt>
      <trkpt lat="46.42038" lon="6.09824">
        <ele>1566.61</ele>
        <time>2015-10-26T08:48:44Z</time>
      </trkpt>
      <trkpt lat="46.42042" lon="6.09831">
        <ele>1565.64</ele>
        <time>2015-10-26T08:48:49Z</time>
      </trkpt>
      <trkpt lat="46.42043" lon="6.09835">
        <ele>1565.16</ele>
        <time>2015-10-26T08:48:52Z</time>
      </trkpt>
      <trkpt lat="46.42043" lon="6.09839">
        <ele>1564.2</ele>
        <time>2015-10-26T08:48:54Z</time>
      </trkpt>
      <trkpt lat="46.42045" lon="6.09846">
        <ele>1561.8</ele>
        <time>2015-10-26T08:49:01Z</time>
      </trkpt>
      <trkpt lat="46.42046" lon="6.09852">
        <ele>1560.84</ele>
        <time>2015-10-26T08:49:05Z</time>
      </trkpt>
      <trkpt lat="46.4205" lon="6.09861">
        <ele>1558.92</ele>
        <time>2015-10-26T08:49:15Z</time>
      </trkpt>
      <trkpt lat="46.42049" lon="6.09861">
        <ele>1558.92</ele>
        <time>2015-10-26T08:49:18Z</time>
      </trkpt>
      <trkpt lat="46.42046" lon="6.09862">
        <ele>1558.92</ele>
        <time>2015-10-26T08:49:22Z</time>
      </trkpt>
      <trkpt lat="46.42043" lon="6.09867">
        <ele>1557.95</ele>
        <time>2015-10-26T08:49:36Z</time>
      </trkpt>
      <trkpt lat="46.42043" lon="6.09867">
        <ele>1557.95</ele>
        <time>2015-10-26T08:50:02Z</time>
      </trkpt>
      <trkpt lat="46.42044" lon="6.09867">
        <ele>1557.95</ele>
        <time>2015-10-26T08:50:03Z</time>
      </trkpt>
      <trkpt lat="46.4205" lon="6.09869">
        <ele>1558.43</ele>
        <time>2015-10-26T08:50:08Z</time>
      </trkpt>
      <trkpt lat="46.42045" lon="6.09871">
        <ele>1557.47</ele>
        <time>2015-10-26T08:50:18Z</time>
      </trkpt>
      <trkpt lat="46.42043" lon="6.09873">
        <ele>1557.47</ele>
        <time>2015-10-26T08:50:21Z</time>
      </trkpt>
      <trkpt lat="46.42037" lon="6.09886">
        <ele>1555.55</ele>
        <time>2015-10-26T08:50:33Z</time>
      </trkpt>
      <trkpt lat="46.42033" lon="6.09893">
        <ele>1553.15</ele>
        <time>2015-10-26T08:50:45Z</time>
      </trkpt>
      <trkpt lat="46.42029" lon="6.09903">
        <ele>1550.74</ele>
        <time>2015-10-26T08:50:58Z</time>
      </trkpt>
      <trkpt lat="46.42029" lon="6.09905">
        <ele>1548.82</ele>
        <time>2015-10-26T08:51:08Z</time>
      </trkpt>
      <trkpt lat="46.42026" lon="6.09909">
        <ele>1547.38</ele>
        <time>2015-10-26T08:51:22Z</time>
      </trkpt>
      <trkpt lat="46.42023" lon="6.09917">
        <ele>1545.46</ele>
        <time>2015-10-26T08:51:34Z</time>
      </trkpt>
      <trkpt lat="46.42022" lon="6.09917">
        <ele>1544.98</ele>
        <time>2015-10-26T08:51:35Z</time>
      </trkpt>
      <trkpt lat="46.4202" lon="6.09917">
        <ele>1544.01</ele>
        <time>2015-10-26T08:51:51Z</time>
      </trkpt>
      <trkpt lat="46.4202" lon="6.09917">
        <ele>1544.01</ele>
        <time>2015-10-26T08:51:52Z</time>
      </trkpt>
      <trkpt lat="46.42018" lon="6.09919">
        <ele>1543.53</ele>
        <time>2015-10-26T08:51:55Z</time>
      </trkpt>
      <trkpt lat="46.42015" lon="6.09923">
        <ele>1542.09</ele>
        <time>2015-10-26T08:51:59Z</time>
      </trkpt>
      <trkpt lat="46.42006" lon="6.09937">
        <ele>1539.21</ele>
        <time>2015-10-26T08:52:10Z</time>
      </trkpt>
      <trkpt lat="46.42006" lon="6.09937">
        <ele>1539.21</ele>
        <time>2015-10-26T08:52:32Z</time>
      </trkpt>
      <trkpt lat="46.42006" lon="6.09937">
        <ele>1539.69</ele>
        <time>2015-10-26T08:52:45Z</time>
      </trkpt>
      <trkpt lat="46.42005" lon="6.0994">
        <ele>1539.21</ele>
        <time>2015-10-26T08:52:48Z</time>
      </trkpt>
      <trkpt lat="46.42" lon="6.09956">
        <ele>1539.21</ele>
        <time>2015-10-26T08:52:56Z</time>
      </trkpt>
      <trkpt lat="46.41994" lon="6.09961">
        <ele>1540.17</ele>
        <time>2015-10-26T08:53:01Z</time>
      </trkpt>
      <trkpt lat="46.41987" lon="6.09972">
        <ele>1542.09</ele>
        <time>2015-10-26T08:53:11Z</time>
      </trkpt>
      <trkpt lat="46.41985" lon="6.09977">
        <ele>1542.09</ele>
        <time>2015-10-26T08:53:16Z</time>
      </trkpt>
      <trkpt lat="46.41983" lon="6.09981">
        <ele>1541.61</ele>
        <time>2015-10-26T08:53:19Z</time>
      </trkpt>
      <trkpt lat="46.41981" lon="6.09983">
        <ele>1541.13</ele>
        <time>2015-10-26T08:53:21Z</time>
      </trkpt>
      <trkpt lat="46.41977" lon="6.09992">
        <ele>1540.17</ele>
        <time>2015-10-26T08:53:29Z</time>
      </trkpt>
      <trkpt lat="46.41976" lon="6.1">
        <ele>1539.21</ele>
        <time>2015-10-26T08:53:34Z</time>
      </trkpt>
      <trkpt lat="46.41978" lon="6.1002">
        <ele>1539.21</ele>
        <time>2015-10-26T08:53:46Z</time>
      </trkpt>
      <trkpt lat="46.41978" lon="6.10021">
        <ele>1539.69</ele>
        <time>2015-10-26T08:54:08Z</time>
      </trkpt>
      <trkpt lat="46.41977" lon="6.10023">
        <ele>1539.21</ele>
        <time>2015-10-26T08:54:11Z</time>
      </trkpt>
      <trkpt lat="46.41977" lon="6.10032">
        <ele>1539.69</ele>
        <time>2015-10-26T08:54:22Z</time>
      </trkpt>
      <trkpt lat="46.41977" lon="6.10032">
        <ele>1539.69</ele>
        <time>2015-10-26T08:54:27Z</time>
      </trkpt>
      <trkpt lat="46.41977" lon="6.10032">
        <ele>1541.61</ele>
        <time>2015-10-26T08:54:35Z</time>
      </trkpt>
      <trkpt lat="46.41977" lon="6.10034">
        <ele>1540.17</ele>
        <time>2015-10-26T08:54:37Z</time>
      </trkpt>
      <trkpt lat="46.4198" lon="6.10042">
        <ele>1541.13</ele>
        <time>2015-10-26T08:54:42Z</time>
      </trkpt>
      <trkpt lat="46.4198" lon="6.10047">
        <ele>1542.09</ele>
        <time>2015-10-26T08:54:46Z</time>
      </trkpt>
      <trkpt lat="46.4198" lon="6.10059">
        <ele>1544.01</ele>
        <time>2015-10-26T08:54:58Z</time>
      </trkpt>
      <trkpt lat="46.4198" lon="6.10065">
        <ele>1544.01</ele>
        <time>2015-10-26T08:55:24Z</time>
      </trkpt>
      <trkpt lat="46.4198" lon="6.10068">
        <ele>1544.01</ele>
        <time>2015-10-26T08:55:26Z</time>
      </trkpt>
      <trkpt lat="46.41984" lon="6.10084">
        <ele>1540.65</ele>
        <time>2015-10-26T08:55:35Z</time>
      </trkpt>
      <trkpt lat="46.41984" lon="6.10087">
        <ele>1539.69</ele>
        <time>2015-10-26T08:55:37Z</time>
      </trkpt>
      <trkpt lat="46.41984" lon="6.10099">
        <ele>1537.77</ele>
        <time>2015-10-26T08:55:45Z</time>
      </trkpt>
      <trkpt lat="46.41986" lon="6.1012">
        <ele>1536.32</ele>
        <time>2015-10-26T08:55:57Z</time>
      </trkpt>
      <trkpt lat="46.41984" lon="6.10141">
        <ele>1536.8</ele>
        <time>2015-10-26T08:56:07Z</time>
      </trkpt>
      <trkpt lat="46.41982" lon="6.10152">
        <ele>1537.29</ele>
        <time>2015-10-26T08:56:14Z</time>
      </trkpt>
      <trkpt lat="46.4198" lon="6.10159">
        <ele>1538.25</ele>
        <time>2015-10-26T08:56:18Z</time>
      </trkpt>
      <trkpt lat="46.41977" lon="6.10171">
        <ele>1540.17</ele>
        <time>2015-10-26T08:56:24Z</time>
      </trkpt>
      <trkpt lat="46.4198" lon="6.10181">
        <ele>1542.09</ele>
        <time>2015-10-26T08:56:36Z</time>
      </trkpt>
      <trkpt lat="46.41981" lon="6.10182">
        <ele>1542.09</ele>
        <time>2015-10-26T08:56:37Z</time>
      </trkpt>
      <trkpt lat="46.41985" lon="6.10189">
        <ele>1541.61</ele>
        <time>2015-10-26T08:56:43Z</time>
      </trkpt>
      <trkpt lat="46.41986" lon="6.10198">
        <ele>1541.61</ele>
        <time>2015-10-26T08:56:50Z</time>
      </trkpt>
      <trkpt lat="46.41985" lon="6.10203">
        <ele>1541.61</ele>
        <time>2015-10-26T08:56:53Z</time>
      </trkpt>
      <trkpt lat="46.41987" lon="6.10207">
        <ele>1540.65</ele>
        <time>2015-10-26T08:56:56Z</time>
      </trkpt>
      <trkpt lat="46.41994" lon="6.10216">
        <ele>1538.73</ele>
        <time>2015-10-26T08:57:03Z</time>
      </trkpt>
      <trkpt lat="46.42008" lon="6.10237">
        <ele>1535.36</ele>
        <time>2015-10-26T08:57:18Z</time>
      </trkpt>
      <trkpt lat="46.42015" lon="6.10251">
        <ele>1537.29</ele>
        <time>2015-10-26T08:57:27Z</time>
      </trkpt>
      <trkpt lat="46.42019" lon="6.10259">
        <ele>1538.25</ele>
        <time>2015-10-26T08:57:32Z</time>
      </trkpt>
      <trkpt lat="46.42029" lon="6.1028">
        <ele>1539.69</ele>
        <time>2015-10-26T08:57:45Z</time>
      </trkpt>
      <trkpt lat="46.42032" lon="6.10285">
        <ele>1539.21</ele>
        <time>2015-10-26T08:57:49Z</time>
      </trkpt>
      <trkpt lat="46.4204" lon="6.10307">
        <ele>1538.73</ele>
        <time>2015-10-26T08:58:01Z</time>
      </trkpt>
      <trkpt lat="46.42046" lon="6.10319">
        <ele>1538.25</ele>
        <time>2015-10-26T08:58:09Z</time>
      </trkpt>
      <trkpt lat="46.4205" lon="6.10335">
        <ele>1538.25</ele>
        <time>2015-10-26T08:58:18Z</time>
      </trkpt>
      <trkpt lat="46.42056" lon="6.10349">
        <ele>1537.77</ele>
        <time>2015-10-26T08:58:27Z</time>
      </trkpt>
      <trkpt lat="46.4206" lon="6.10367">
        <ele>1537.29</ele>
        <time>2015-10-26T08:58:38Z</time>
      </trkpt>
      <trkpt lat="46.42066" lon="6.10379">
        <ele>1536.32</ele>
        <time>2015-10-26T08:58:45Z</time>
      </trkpt>
      <trkpt lat="46.42074" lon="6.10391">
        <ele>1534.4</ele>
        <time>2015-10-26T08:58:55Z</time>
      </trkpt>
      <trkpt lat="46.42074" lon="6.10393">
        <ele>1533.92</ele>
        <time>2015-10-26T08:58:56Z</time>
      </trkpt>
      <trkpt lat="46.42086" lon="6.1041">
        <ele>1531.04</ele>
        <time>2015-10-26T08:59:09Z</time>
      </trkpt>
      <trkpt lat="46.42097" lon="6.10424">
        <ele>1527.67</ele>
        <time>2015-10-26T08:59:21Z</time>
      </trkpt>
      <trkpt lat="46.42097" lon="6.10426">
        <ele>1527.67</ele>
        <time>2015-10-26T08:59:22Z</time>
      </trkpt>
      <trkpt lat="46.42098" lon="6.10434">
        <ele>1526.71</ele>
        <time>2015-10-26T08:59:31Z</time>
      </trkpt>
      <trkpt lat="46.42096" lon="6.10437">
        <ele>1525.27</ele>
        <time>2015-10-26T08:59:38Z</time>
      </trkpt>
      <trkpt lat="46.42096" lon="6.10446">
        <ele>1524.31</ele>
        <time>2015-10-26T08:59:44Z</time>
      </trkpt>
      <trkpt lat="46.42098" lon="6.1045">
        <ele>1523.35</ele>
        <time>2015-10-26T08:59:46Z</time>
      </trkpt>
      <trkpt lat="46.42109" lon="6.10463">
        <ele>1520.46</ele>
        <time>2015-10-26T08:59:58Z</time>
      </trkpt>
      <trkpt lat="46.42116" lon="6.10476">
        <ele>1517.58</ele>
        <time>2015-10-26T09:00:10Z</time>
      </trkpt>
      <trkpt lat="46.42123" lon="6.10488">
        <ele>1514.21</ele>
        <time>2015-10-26T09:00:20Z</time>
      </trkpt>
      <trkpt lat="46.42127" lon="6.10493">
        <ele>1512.77</ele>
        <time>2015-10-26T09:00:27Z</time>
      </trkpt>
      <trkpt lat="46.42135" lon="6.10502">
        <ele>1509.89</ele>
        <time>2015-10-26T09:00:39Z</time>
      </trkpt>
      <trkpt lat="46.42138" lon="6.10506">
        <ele>1508.93</ele>
        <time>2015-10-26T09:00:44Z</time>
      </trkpt>
      <trkpt lat="46.42139" lon="6.10504">
        <ele>1507.97</ele>
        <time>2015-10-26T09:00:46Z</time>
      </trkpt>
      <trkpt lat="46.42152" lon="6.10509">
        <ele>1505.56</ele>
        <time>2015-10-26T09:00:57Z</time>
      </trkpt>
      <trkpt lat="46.42159" lon="6.10519">
        <ele>1502.68</ele>
        <time>2015-10-26T09:01:09Z</time>
      </trkpt>
      <trkpt lat="46.42168" lon="6.10526">
        <ele>1498.83</ele>
        <time>2015-10-26T09:01:22Z</time>
      </trkpt>
      <trkpt lat="46.42171" lon="6.10527">
        <ele>1495.95</ele>
        <time>2015-10-26T09:01:33Z</time>
      </trkpt>
      <trkpt lat="46.42172" lon="6.10527">
        <ele>1495.47</ele>
        <time>2015-10-26T09:01:34Z</time>
      </trkpt>
      <trkpt lat="46.42176" lon="6.1053">
        <ele>1494.03</ele>
        <time>2015-10-26T09:01:40Z</time>
      </trkpt>
      <trkpt lat="46.42185" lon="6.10537">
        <ele>1490.66</ele>
        <time>2015-10-26T09:01:53Z</time>
      </trkpt>
      <trkpt lat="46.42187" lon="6.10535">
        <ele>1490.18</ele>
        <time>2015-10-26T09:01:57Z</time>
      </trkpt>
      <trkpt lat="46.42197" lon="6.1053">
        <ele>1486.82</ele>
        <time>2015-10-26T09:02:10Z</time>
      </trkpt>
      <trkpt lat="46.42203" lon="6.1052">
        <ele>1484.41</ele>
        <time>2015-10-26T09:02:22Z</time>
      </trkpt>
      <trkpt lat="46.42203" lon="6.1052">
        <ele>1481.05</ele>
        <time>2015-10-26T09:02:33Z</time>
      </trkpt>
      <trkpt lat="46.42206" lon="6.1052">
        <ele>1481.05</ele>
        <time>2015-10-26T09:02:36Z</time>
      </trkpt>
      <trkpt lat="46.42212" lon="6.10522">
        <ele>1479.61</ele>
        <time>2015-10-26T09:02:40Z</time>
      </trkpt>
      <trkpt lat="46.42214" lon="6.10507">
        <ele>1477.68</ele>
        <time>2015-10-26T09:02:50Z</time>
      </trkpt>
      <trkpt lat="46.42216" lon="6.10496">
        <ele>1475.28</ele>
        <time>2015-10-26T09:03:01Z</time>
      </trkpt>
      <trkpt lat="46.42213" lon="6.10483">
        <ele>1472.4</ele>
        <time>2015-10-26T09:03:11Z</time>
      </trkpt>
      <trkpt lat="46.42212" lon="6.10465">
        <ele>1469.51</ele>
        <time>2015-10-26T09:03:21Z</time>
      </trkpt>
      <trkpt lat="46.42213" lon="6.10441">
        <ele>1467.59</ele>
        <time>2015-10-26T09:03:32Z</time>
      </trkpt>
      <trkpt lat="46.4222" lon="6.1044">
        <ele>1466.63</ele>
        <time>2015-10-26T09:03:38Z</time>
      </trkpt>
      <trkpt lat="46.42226" lon="6.10437">
        <ele>1465.19</ele>
        <time>2015-10-26T09:03:46Z</time>
      </trkpt>
      <trkpt lat="46.42235" lon="6.10437">
        <ele>1462.3</ele>
        <time>2015-10-26T09:03:57Z</time>
      </trkpt>
      <trkpt lat="46.42244" lon="6.10437">
        <ele>1458.46</ele>
        <time>2015-10-26T09:04:08Z</time>
      </trkpt>
      <trkpt lat="46.42247" lon="6.10431">
        <ele>1457.02</ele>
        <time>2015-10-26T09:04:15Z</time>
      </trkpt>
      <trkpt lat="46.42249" lon="6.10429">
        <ele>1456.05</ele>
        <time>2015-10-26T09:04:17Z</time>
      </trkpt>
      <trkpt lat="46.42253" lon="6.10428">
        <ele>1455.09</ele>
        <time>2015-10-26T09:04:22Z</time>
      </trkpt>
      <trkpt lat="46.42259" lon="6.10427">
        <ele>1451.25</ele>
        <time>2015-10-26T09:04:31Z</time>
      </trkpt>
      <trkpt lat="46.4226" lon="6.10428">
        <ele>1451.73</ele>
        <time>2015-10-26T09:04:32Z</time>
      </trkpt>
      <trkpt lat="46.42265" lon="6.10427">
        <ele>1449.32</ele>
        <time>2015-10-26T09:04:38Z</time>
      </trkpt>
      <trkpt lat="46.42268" lon="6.1043">
        <ele>1448.36</ele>
        <time>2015-10-26T09:04:41Z</time>
      </trkpt>
      <trkpt lat="46.42278" lon="6.10429">
        <ele>1445</ele>
        <time>2015-10-26T09:04:51Z</time>
      </trkpt>
      <trkpt lat="46.4228" lon="6.10433">
        <ele>1444.52</ele>
        <time>2015-10-26T09:04:54Z</time>
      </trkpt>
      <trkpt lat="46.42282" lon="6.10435">
        <ele>1443.56</ele>
        <time>2015-10-26T09:04:56Z</time>
      </trkpt>
      <trkpt lat="46.42296" lon="6.10438">
        <ele>1440.19</ele>
        <time>2015-10-26T09:05:08Z</time>
      </trkpt>
      <trkpt lat="46.42305" lon="6.10438">
        <ele>1437.31</ele>
        <time>2015-10-26T09:05:17Z</time>
      </trkpt>
      <trkpt lat="46.42307" lon="6.10441">
        <ele>1436.35</ele>
        <time>2015-10-26T09:05:20Z</time>
      </trkpt>
      <trkpt lat="46.42308" lon="6.10441">
        <ele>1435.87</ele>
        <time>2015-10-26T09:05:21Z</time>
      </trkpt>
      <trkpt lat="46.42311" lon="6.10443">
        <ele>1434.91</ele>
        <time>2015-10-26T09:05:24Z</time>
      </trkpt>
      <trkpt lat="46.42323" lon="6.10448">
        <ele>1433.46</ele>
        <time>2015-10-26T09:05:32Z</time>
      </trkpt>
      <trkpt lat="46.42337" lon="6.10455">
        <ele>1432.02</ele>
        <time>2015-10-26T09:05:44Z</time>
      </trkpt>
      <trkpt lat="46.42356" lon="6.10462">
        <ele>1431.06</ele>
        <time>2015-10-26T09:05:55Z</time>
      </trkpt>
      <trkpt lat="46.42362" lon="6.10463">
        <ele>1430.58</ele>
        <time>2015-10-26T09:05:58Z</time>
      </trkpt>
      <trkpt lat="46.4238" lon="6.10468">
        <ele>1430.1</ele>
        <time>2015-10-26T09:06:12Z</time>
      </trkpt>
      <trkpt lat="46.42389" lon="6.10475">
        <ele>1429.14</ele>
        <time>2015-10-26T09:06:20Z</time>
      </trkpt>
      <trkpt lat="46.42401" lon="6.1049">
        <ele>1428.66</ele>
        <time>2015-10-26T09:06:30Z</time>
      </trkpt>
      <trkpt lat="46.42412" lon="6.10504">
        <ele>1428.18</ele>
        <time>2015-10-26T09:06:41Z</time>
      </trkpt>
      <trkpt lat="46.42423" lon="6.10513">
        <ele>1429.62</ele>
        <time>2015-10-26T09:06:50Z</time>
      </trkpt>
      <trkpt lat="46.42429" lon="6.10514">
        <ele>1430.1</ele>
        <time>2015-10-26T09:06:55Z</time>
      </trkpt>
      <trkpt lat="46.42433" lon="6.10515">
        <ele>1430.58</ele>
        <time>2015-10-26T09:06:58Z</time>
      </trkpt>
      <trkpt lat="46.42437" lon="6.10516">
        <ele>1431.54</ele>
        <time>2015-10-26T09:07:01Z</time>
      </trkpt>
      <trkpt lat="46.42443" lon="6.10518">
        <ele>1432.02</ele>
        <time>2015-10-26T09:07:07Z</time>
      </trkpt>
      <trkpt lat="46.42451" lon="6.10521">
        <ele>1432.5</ele>
        <time>2015-10-26T09:07:12Z</time>
      </trkpt>
      <trkpt lat="46.42456" lon="6.10524">
        <ele>1433.94</ele>
        <time>2015-10-26T09:07:19Z</time>
      </trkpt>
      <trkpt lat="46.42458" lon="6.10526">
        <ele>1434.91</ele>
        <time>2015-10-26T09:07:22Z</time>
      </trkpt>
      <trkpt lat="46.42462" lon="6.1053">
        <ele>1435.39</ele>
        <time>2015-10-26T09:07:27Z</time>
      </trkpt>
      <trkpt lat="46.42467" lon="6.1054">
        <ele>1437.31</ele>
        <time>2015-10-26T09:07:36Z</time>
      </trkpt>
      <trkpt lat="46.4247" lon="6.1054">
        <ele>1437.31</ele>
        <time>2015-10-26T09:07:39Z</time>
      </trkpt>
      <trkpt lat="46.42481" lon="6.10533">
        <ele>1437.79</ele>
        <time>2015-10-26T09:07:46Z</time>
      </trkpt>
      <trkpt lat="46.42484" lon="6.10526">
        <ele>1438.27</ele>
        <time>2015-10-26T09:07:51Z</time>
      </trkpt>
      <trkpt lat="46.42493" lon="6.10516">
        <ele>1439.71</ele>
        <time>2015-10-26T09:07:58Z</time>
      </trkpt>
      <trkpt lat="46.42498" lon="6.10515">
        <ele>1440.67</ele>
        <time>2015-10-26T09:08:03Z</time>
      </trkpt>
      <trkpt lat="46.42502" lon="6.10519">
        <ele>1441.63</ele>
        <time>2015-10-26T09:08:07Z</time>
      </trkpt>
      <trkpt lat="46.42509" lon="6.10522">
        <ele>1443.08</ele>
        <time>2015-10-26T09:08:14Z</time>
      </trkpt>
      <trkpt lat="46.42516" lon="6.10529">
        <ele>1443.56</ele>
        <time>2015-10-26T09:08:21Z</time>
      </trkpt>
      <trkpt lat="46.4252" lon="6.10532">
        <ele>1444.04</ele>
        <time>2015-10-26T09:08:24Z</time>
      </trkpt>
      <trkpt lat="46.4253" lon="6.10546">
        <ele>1444.52</ele>
        <time>2015-10-26T09:08:34Z</time>
      </trkpt>
      <trkpt lat="46.42531" lon="6.10549">
        <ele>1445</ele>
        <time>2015-10-26T09:08:36Z</time>
      </trkpt>
      <trkpt lat="46.42543" lon="6.10562">
        <ele>1443.56</ele>
        <time>2015-10-26T09:08:48Z</time>
      </trkpt>
      <trkpt lat="46.42549" lon="6.10566">
        <ele>1442.6</ele>
        <time>2015-10-26T09:08:53Z</time>
      </trkpt>
      <trkpt lat="46.42563" lon="6.10573">
        <ele>1439.23</ele>
        <time>2015-10-26T09:09:06Z</time>
      </trkpt>
      <trkpt lat="46.42574" lon="6.10588">
        <ele>1437.79</ele>
        <time>2015-10-26T09:09:16Z</time>
      </trkpt>
      <trkpt lat="46.42577" lon="6.10591">
        <ele>1437.31</ele>
        <time>2015-10-26T09:09:20Z</time>
      </trkpt>
      <trkpt lat="46.42579" lon="6.10592">
        <ele>1437.31</ele>
        <time>2015-10-26T09:09:22Z</time>
      </trkpt>
      <trkpt lat="46.42587" lon="6.10597">
        <ele>1435.39</ele>
        <time>2015-10-26T09:09:30Z</time>
      </trkpt>
      <trkpt lat="46.42597" lon="6.10607">
        <ele>1431.54</ele>
        <time>2015-10-26T09:09:42Z</time>
      </trkpt>
      <trkpt lat="46.42598" lon="6.10608">
        <ele>1431.06</ele>
        <time>2015-10-26T09:09:43Z</time>
      </trkpt>
      <trkpt lat="46.42604" lon="6.10605">
        <ele>1429.62</ele>
        <time>2015-10-26T09:09:48Z</time>
      </trkpt>
      <trkpt lat="46.42613" lon="6.10615">
        <ele>1427.21</ele>
        <time>2015-10-26T09:09:57Z</time>
      </trkpt>
      <trkpt lat="46.42625" lon="6.10623">
        <ele>1425.29</ele>
        <time>2015-10-26T09:10:07Z</time>
      </trkpt>
      <trkpt lat="46.42632" lon="6.10629">
        <ele>1425.29</ele>
        <time>2015-10-26T09:10:12Z</time>
      </trkpt>
      <trkpt lat="46.42646" lon="6.10641">
        <ele>1424.33</ele>
        <time>2015-10-26T09:10:24Z</time>
      </trkpt>
      <trkpt lat="46.42657" lon="6.10647">
        <ele>1424.33</ele>
        <time>2015-10-26T09:10:31Z</time>
      </trkpt>
      <trkpt lat="46.42662" lon="6.10651">
        <ele>1424.33</ele>
        <time>2015-10-26T09:10:36Z</time>
      </trkpt>
      <trkpt lat="46.42669" lon="6.10655">
        <ele>1423.85</ele>
        <time>2015-10-26T09:10:42Z</time>
      </trkpt>
      <trkpt lat="46.42688" lon="6.1065">
        <ele>1423.85</ele>
        <time>2015-10-26T09:10:55Z</time>
      </trkpt>
      <trkpt lat="46.42702" lon="6.10647">
        <ele>1423.85</ele>
        <time>2015-10-26T09:11:06Z</time>
      </trkpt>
      <trkpt lat="46.42718" lon="6.10637">
        <ele>1424.33</ele>
        <time>2015-10-26T09:11:17Z</time>
      </trkpt>
      <trkpt lat="46.4272" lon="6.10637">
        <ele>1424.81</ele>
        <time>2015-10-26T09:11:20Z</time>
      </trkpt>
      <trkpt lat="46.42724" lon="6.10633">
        <ele>1425.77</ele>
        <time>2015-10-26T09:11:24Z</time>
      </trkpt>
      <trkpt lat="46.42727" lon="6.10631">
        <ele>1426.25</ele>
        <time>2015-10-26T09:11:27Z</time>
      </trkpt>
      <trkpt lat="46.4273" lon="6.10631">
        <ele>1426.73</ele>
        <time>2015-10-26T09:11:30Z</time>
      </trkpt>
      <trkpt lat="46.42735" lon="6.10634">
        <ele>1427.7</ele>
        <time>2015-10-26T09:11:35Z</time>
      </trkpt>
      <trkpt lat="46.42739" lon="6.10638">
        <ele>1428.66</ele>
        <time>2015-10-26T09:11:39Z</time>
      </trkpt>
      <trkpt lat="46.4274" lon="6.10646">
        <ele>1430.1</ele>
        <time>2015-10-26T09:11:44Z</time>
      </trkpt>
      <trkpt lat="46.42748" lon="6.10659">
        <ele>1431.06</ele>
        <time>2015-10-26T09:11:54Z</time>
      </trkpt>
      <trkpt lat="46.42762" lon="6.10661">
        <ele>1431.54</ele>
        <time>2015-10-26T09:12:04Z</time>
      </trkpt>
      <trkpt lat="46.42775" lon="6.10657">
        <ele>1432.5</ele>
        <time>2015-10-26T09:12:16Z</time>
      </trkpt>
      <trkpt lat="46.4278" lon="6.10652">
        <ele>1432.02</ele>
        <time>2015-10-26T09:12:21Z</time>
      </trkpt>
      <trkpt lat="46.42788" lon="6.10644">
        <ele>1432.5</ele>
        <time>2015-10-26T09:12:29Z</time>
      </trkpt>
      <trkpt lat="46.4279" lon="6.10641">
        <ele>1432.02</ele>
        <time>2015-10-26T09:12:32Z</time>
      </trkpt>
      <trkpt lat="46.42794" lon="6.10636">
        <ele>1432.02</ele>
        <time>2015-10-26T09:12:36Z</time>
      </trkpt>
      <trkpt lat="46.42797" lon="6.10634">
        <ele>1431.06</ele>
        <time>2015-10-26T09:12:38Z</time>
      </trkpt>
      <trkpt lat="46.42801" lon="6.10633">
        <ele>1431.06</ele>
        <time>2015-10-26T09:12:42Z</time>
      </trkpt>
      <trkpt lat="46.42811" lon="6.10619">
        <ele>1431.54</ele>
        <time>2015-10-26T09:12:52Z</time>
      </trkpt>
      <trkpt lat="46.4282" lon="6.10611">
        <ele>1433.94</ele>
        <time>2015-10-26T09:13:03Z</time>
      </trkpt>
      <trkpt lat="46.4283" lon="6.10609">
        <ele>1435.87</ele>
        <time>2015-10-26T09:13:12Z</time>
      </trkpt>
      <trkpt lat="46.42832" lon="6.10608">
        <ele>1435.87</ele>
        <time>2015-10-26T09:13:14Z</time>
      </trkpt>
      <trkpt lat="46.42837" lon="6.10604">
        <ele>1437.79</ele>
        <time>2015-10-26T09:13:24Z</time>
      </trkpt>
      <trkpt lat="46.42846" lon="6.10593">
        <ele>1439.23</ele>
        <time>2015-10-26T09:13:33Z</time>
      </trkpt>
      <trkpt lat="46.42855" lon="6.10588">
        <ele>1441.15</ele>
        <time>2015-10-26T09:13:43Z</time>
      </trkpt>
      <trkpt lat="46.42857" lon="6.10588">
        <ele>1441.63</ele>
        <time>2015-10-26T09:13:45Z</time>
      </trkpt>
      <trkpt lat="46.42861" lon="6.10585">
        <ele>1443.08</ele>
        <time>2015-10-26T09:13:50Z</time>
      </trkpt>
      <trkpt lat="46.42867" lon="6.10577">
        <ele>1443.56</ele>
        <time>2015-10-26T09:13:58Z</time>
      </trkpt>
      <trkpt lat="46.42871" lon="6.10574">
        <ele>1444.52</ele>
        <time>2015-10-26T09:14:03Z</time>
      </trkpt>
      <trkpt lat="46.42878" lon="6.10569">
        <ele>1444.52</ele>
        <time>2015-10-26T09:14:09Z</time>
      </trkpt>
      <trkpt lat="46.4288" lon="6.10568">
        <ele>1444.52</ele>
        <time>2015-10-26T09:14:12Z</time>
      </trkpt>
      <trkpt lat="46.42882" lon="6.10566">
        <ele>1444.52</ele>
        <time>2015-10-26T09:14:14Z</time>
      </trkpt>
      <trkpt lat="46.4289" lon="6.10555">
        <ele>1445.48</ele>
        <time>2015-10-26T09:14:22Z</time>
      </trkpt>
      <trkpt lat="46.42895" lon="6.10552">
        <ele>1446.44</ele>
        <time>2015-10-26T09:14:26Z</time>
      </trkpt>
      <trkpt lat="46.42904" lon="6.10542">
        <ele>1447.4</ele>
        <time>2015-10-26T09:14:34Z</time>
      </trkpt>
      <trkpt lat="46.42906" lon="6.10539">
        <ele>1447.4</ele>
        <time>2015-10-26T09:14:37Z</time>
      </trkpt>
      <trkpt lat="46.42914" lon="6.10536">
        <ele>1447.4</ele>
        <time>2015-10-26T09:14:45Z</time>
      </trkpt>
      <trkpt lat="46.42921" lon="6.10533">
        <ele>1447.4</ele>
        <time>2015-10-26T09:14:51Z</time>
      </trkpt>
      <trkpt lat="46.42924" lon="6.10531">
        <ele>1447.88</ele>
        <time>2015-10-26T09:14:55Z</time>
      </trkpt>
      <trkpt lat="46.42928" lon="6.10526">
        <ele>1448.36</ele>
        <time>2015-10-26T09:14:59Z</time>
      </trkpt>
      <trkpt lat="46.42934" lon="6.10527">
        <ele>1448.84</ele>
        <time>2015-10-26T09:15:04Z</time>
      </trkpt>
      <trkpt lat="46.4294" lon="6.10525">
        <ele>1450.77</ele>
        <time>2015-10-26T09:15:14Z</time>
      </trkpt>
      <trkpt lat="46.42942" lon="6.10524">
        <ele>1451.25</ele>
        <time>2015-10-26T09:15:16Z</time>
      </trkpt>
      <trkpt lat="46.42945" lon="6.10521">
        <ele>1450.77</ele>
        <time>2015-10-26T09:15:20Z</time>
      </trkpt>
      <trkpt lat="46.42949" lon="6.10518">
        <ele>1451.73</ele>
        <time>2015-10-26T09:15:23Z</time>
      </trkpt>
      <trkpt lat="46.42959" lon="6.10514">
        <ele>1452.21</ele>
        <time>2015-10-26T09:15:32Z</time>
      </trkpt>
      <trkpt lat="46.42963" lon="6.10509">
        <ele>1453.17</ele>
        <time>2015-10-26T09:15:37Z</time>
      </trkpt>
      <trkpt lat="46.42972" lon="6.10497">
        <ele>1454.13</ele>
        <time>2015-10-26T09:15:47Z</time>
      </trkpt>
      <trkpt lat="46.42977" lon="6.10494">
        <ele>1455.09</ele>
        <time>2015-10-26T09:15:52Z</time>
      </trkpt>
      <trkpt lat="46.42981" lon="6.10491">
        <ele>1455.57</ele>
        <time>2015-10-26T09:15:57Z</time>
      </trkpt>
      <trkpt lat="46.42986" lon="6.10485">
        <ele>1457.02</ele>
        <time>2015-10-26T09:16:05Z</time>
      </trkpt>
      <trkpt lat="46.42998" lon="6.10472">
        <ele>1458.46</ele>
        <time>2015-10-26T09:16:16Z</time>
      </trkpt>
      <trkpt lat="46.43002" lon="6.10465">
        <ele>1459.42</ele>
        <time>2015-10-26T09:16:23Z</time>
      </trkpt>
      <trkpt lat="46.43014" lon="6.10449">
        <ele>1459.42</ele>
        <time>2015-10-26T09:16:34Z</time>
      </trkpt>
      <trkpt lat="46.43015" lon="6.10447">
        <ele>1459.9</ele>
        <time>2015-10-26T09:16:36Z</time>
      </trkpt>
      <trkpt lat="46.43018" lon="6.10435">
        <ele>1460.38</ele>
        <time>2015-10-26T09:16:43Z</time>
      </trkpt>
      <trkpt lat="46.43021" lon="6.10431">
        <ele>1460.86</ele>
        <time>2015-10-26T09:16:47Z</time>
      </trkpt>
      <trkpt lat="46.43026" lon="6.10426">
        <ele>1460.86</ele>
        <time>2015-10-26T09:16:51Z</time>
      </trkpt>
      <trkpt lat="46.4303" lon="6.10423">
        <ele>1460.86</ele>
        <time>2015-10-26T09:16:55Z</time>
      </trkpt>
      <trkpt lat="46.43035" lon="6.10414">
        <ele>1461.34</ele>
        <time>2015-10-26T09:17:01Z</time>
      </trkpt>
      <trkpt lat="46.43039" lon="6.10411">
        <ele>1462.3</ele>
        <time>2015-10-26T09:17:07Z</time>
      </trkpt>
      <trkpt lat="46.43048" lon="6.10406">
        <ele>1464.23</ele>
        <time>2015-10-26T09:17:17Z</time>
      </trkpt>
      <trkpt lat="46.43059" lon="6.10403">
        <ele>1466.63</ele>
        <time>2015-10-26T09:17:29Z</time>
      </trkpt>
      <trkpt lat="46.43066" lon="6.10397">
        <ele>1469.03</ele>
        <time>2015-10-26T09:17:40Z</time>
      </trkpt>
      <trkpt lat="46.43067" lon="6.10397">
        <ele>1469.51</ele>
        <time>2015-10-26T09:17:42Z</time>
      </trkpt>
      <trkpt lat="46.4307" lon="6.10394">
        <ele>1470.47</ele>
        <time>2015-10-26T09:17:52Z</time>
      </trkpt>
      <trkpt lat="46.43072" lon="6.10392">
        <ele>1471.92</ele>
        <time>2015-10-26T09:18:07Z</time>
      </trkpt>
      <trkpt lat="46.43082" lon="6.10387">
        <ele>1474.8</ele>
        <time>2015-10-26T09:18:18Z</time>
      </trkpt>
      <trkpt lat="46.43085" lon="6.10384">
        <ele>1476.24</ele>
        <time>2015-10-26T09:18:31Z</time>
      </trkpt>
      <trkpt lat="46.43086" lon="6.10383">
        <ele>1477.2</ele>
        <time>2015-10-26T09:18:34Z</time>
      </trkpt>
      <trkpt lat="46.43095" lon="6.10378">
        <ele>1480.09</ele>
        <time>2015-10-26T09:18:45Z</time>
      </trkpt>
      <trkpt lat="46.43107" lon="6.10377">
        <ele>1482.49</ele>
        <time>2015-10-26T09:18:58Z</time>
      </trkpt>
      <trkpt lat="46.43113" lon="6.10376">
        <ele>1485.37</ele>
        <time>2015-10-26T09:19:09Z</time>
      </trkpt>
      <trkpt lat="46.43116" lon="6.10378">
        <ele>1487.3</ele>
        <time>2015-10-26T09:19:17Z</time>
      </trkpt>
      <trkpt lat="46.43122" lon="6.1038">
        <ele>1489.22</ele>
        <time>2015-10-26T09:19:27Z</time>
      </trkpt>
      <trkpt lat="46.43129" lon="6.10379">
        <ele>1491.62</ele>
        <time>2015-10-26T09:19:38Z</time>
      </trkpt>
      <trkpt lat="46.43136" lon="6.1038">
        <ele>1493.06</ele>
        <time>2015-10-26T09:19:47Z</time>
      </trkpt>
      <trkpt lat="46.43143" lon="6.10383">
        <ele>1496.43</ele>
        <time>2015-10-26T09:19:57Z</time>
      </trkpt>
      <trkpt lat="46.43148" lon="6.10384">
        <ele>1497.87</ele>
        <time>2015-10-26T09:20:06Z</time>
      </trkpt>
      <trkpt lat="46.43151" lon="6.10386">
        <ele>1499.31</ele>
        <time>2015-10-26T09:20:17Z</time>
      </trkpt>
      <trkpt lat="46.43154" lon="6.10391">
        <ele>1500.27</ele>
        <time>2015-10-26T09:20:32Z</time>
      </trkpt>
      <trkpt lat="46.43155" lon="6.10391">
        <ele>1500.27</ele>
        <time>2015-10-26T09:20:33Z</time>
      </trkpt>
      <trkpt lat="46.43158" lon="6.10392">
        <ele>1501.24</ele>
        <time>2015-10-26T09:20:36Z</time>
      </trkpt>
      <trkpt lat="46.43165" lon="6.10392">
        <ele>1503.64</ele>
        <time>2015-10-26T09:20:47Z</time>
      </trkpt>
      <trkpt lat="46.4317" lon="6.10392">
        <ele>1505.56</ele>
        <time>2015-10-26T09:20:56Z</time>
      </trkpt>
      <trkpt lat="46.43176" lon="6.10394">
        <ele>1507.48</ele>
        <time>2015-10-26T09:21:06Z</time>
      </trkpt>
      <trkpt lat="46.43182" lon="6.10394">
        <ele>1509.41</ele>
        <time>2015-10-26T09:21:15Z</time>
      </trkpt>
      <trkpt lat="46.43189" lon="6.10391">
        <ele>1512.77</ele>
        <time>2015-10-26T09:21:26Z</time>
      </trkpt>
      <trkpt lat="46.43192" lon="6.10391">
        <ele>1514.21</ele>
        <time>2015-10-26T09:21:35Z</time>
      </trkpt>
      <trkpt lat="46.43194" lon="6.1039">
        <ele>1514.69</ele>
        <time>2015-10-26T09:21:39Z</time>
      </trkpt>
      <trkpt lat="46.43195" lon="6.10383">
        <ele>1517.1</ele>
        <time>2015-10-26T09:21:49Z</time>
      </trkpt>
      <trkpt lat="46.43197" lon="6.10386">
        <ele>1518.06</ele>
        <time>2015-10-26T09:21:52Z</time>
      </trkpt>
      <trkpt lat="46.43204" lon="6.10388">
        <ele>1520.94</ele>
        <time>2015-10-26T09:22:03Z</time>
      </trkpt>
      <trkpt lat="46.43208" lon="6.10391">
        <ele>1522.39</ele>
        <time>2015-10-26T09:22:14Z</time>
      </trkpt>
      <trkpt lat="46.43214" lon="6.1039">
        <ele>1524.79</ele>
        <time>2015-10-26T09:22:27Z</time>
      </trkpt>
      <trkpt lat="46.43219" lon="6.10389">
        <ele>1526.71</ele>
        <time>2015-10-26T09:22:36Z</time>
      </trkpt>
      <trkpt lat="46.43221" lon="6.1039">
        <ele>1527.67</ele>
        <time>2015-10-26T09:22:49Z</time>
      </trkpt>
      <trkpt lat="46.43228" lon="6.10389">
        <ele>1530.08</ele>
        <time>2015-10-26T09:23:01Z</time>
      </trkpt>
      <trkpt lat="46.43234" lon="6.1039">
        <ele>1532.96</ele>
        <time>2015-10-26T09:23:11Z</time>
      </trkpt>
      <trkpt lat="46.43238" lon="6.10391">
        <ele>1534.4</ele>
        <time>2015-10-26T09:23:21Z</time>
      </trkpt>
      <trkpt lat="46.43241" lon="6.10388">
        <ele>1537.77</ele>
        <time>2015-10-26T09:23:31Z</time>
      </trkpt>
      <trkpt lat="46.43242" lon="6.10383">
        <ele>1539.21</ele>
        <time>2015-10-26T09:23:40Z</time>
      </trkpt>
      <trkpt lat="46.43242" lon="6.10377">
        <ele>1542.09</ele>
        <time>2015-10-26T09:23:51Z</time>
      </trkpt>
      <trkpt lat="46.43245" lon="6.1037">
        <ele>1543.53</ele>
        <time>2015-10-26T09:24:02Z</time>
      </trkpt>
      <trkpt lat="46.4325" lon="6.10375">
        <ele>1545.94</ele>
        <time>2015-10-26T09:24:13Z</time>
      </trkpt>
      <trkpt lat="46.43253" lon="6.10377">
        <ele>1548.82</ele>
        <time>2015-10-26T09:24:23Z</time>
      </trkpt>
      <trkpt lat="46.43254" lon="6.10374">
        <ele>1549.3</ele>
        <time>2015-10-26T09:24:26Z</time>
      </trkpt>
      <trkpt lat="46.43256" lon="6.10365">
        <ele>1550.74</ele>
        <time>2015-10-26T09:24:38Z</time>
      </trkpt>
      <trkpt lat="46.43257" lon="6.10362">
        <ele>1551.71</ele>
        <time>2015-10-26T09:24:51Z</time>
      </trkpt>
      <trkpt lat="46.43258" lon="6.10355">
        <ele>1551.71</ele>
        <time>2015-10-26T09:25:02Z</time>
      </trkpt>
      <trkpt lat="46.43257" lon="6.10355">
        <ele>1551.71</ele>
        <time>2015-10-26T09:25:16Z</time>
      </trkpt>
      <trkpt lat="46.43254" lon="6.10356">
        <ele>1552.19</ele>
        <time>2015-10-26T09:25:28Z</time>
      </trkpt>
      <trkpt lat="46.43255" lon="6.10356">
        <ele>1552.19</ele>
        <time>2015-10-26T09:25:52Z</time>
      </trkpt>
      <trkpt lat="46.43255" lon="6.10356">
        <ele>1552.19</ele>
        <time>2015-10-26T09:26:23Z</time>
      </trkpt>
      <trkpt lat="46.43254" lon="6.10354">
        <ele>1553.15</ele>
        <time>2015-10-26T09:26:33Z</time>
      </trkpt>
      <trkpt lat="46.43254" lon="6.10352">
        <ele>1553.15</ele>
        <time>2015-10-26T09:26:35Z</time>
      </trkpt>
      <trkpt lat="46.43251" lon="6.10339">
        <ele>1553.63</ele>
        <time>2015-10-26T09:26:48Z</time>
      </trkpt>
      <trkpt lat="46.4325" lon="6.10333">
        <ele>1552.67</ele>
        <time>2015-10-26T09:26:52Z</time>
      </trkpt>
      <trkpt lat="46.43241" lon="6.10324">
        <ele>1552.19</ele>
        <time>2015-10-26T09:27:00Z</time>
      </trkpt>
      <trkpt lat="46.43235" lon="6.10329">
        <ele>1554.59</ele>
        <time>2015-10-26T09:27:10Z</time>
      </trkpt>
      <trkpt lat="46.43229" lon="6.1033">
        <ele>1556.51</ele>
        <time>2015-10-26T09:27:17Z</time>
      </trkpt>
      <trkpt lat="46.43226" lon="6.10332">
        <ele>1557.47</ele>
        <time>2015-10-26T09:27:21Z</time>
      </trkpt>
      <trkpt lat="46.43224" lon="6.10333">
        <ele>1557.95</ele>
        <time>2015-10-26T09:27:24Z</time>
      </trkpt>
      <trkpt lat="46.43219" lon="6.10335">
        <ele>1559.4</ele>
        <time>2015-10-26T09:27:29Z</time>
      </trkpt>
      <trkpt lat="46.43217" lon="6.10333">
        <ele>1560.36</ele>
        <time>2015-10-26T09:27:35Z</time>
      </trkpt>
      <trkpt lat="46.43217" lon="6.10322">
        <ele>1562.76</ele>
        <time>2015-10-26T09:27:45Z</time>
      </trkpt>
      <trkpt lat="46.43218" lon="6.10315">
        <ele>1563.72</ele>
        <time>2015-10-26T09:27:50Z</time>
      </trkpt>
      <trkpt lat="46.43217" lon="6.10311">
        <ele>1563.72</ele>
        <time>2015-10-26T09:27:53Z</time>
      </trkpt>
      <trkpt lat="46.43213" lon="6.10306">
        <ele>1563.24</ele>
        <time>2015-10-26T09:27:59Z</time>
      </trkpt>
      <trkpt lat="46.43208" lon="6.10297">
        <ele>1562.28</ele>
        <time>2015-10-26T09:28:08Z</time>
      </trkpt>
      <trkpt lat="46.43207" lon="6.10288">
        <ele>1561.32</ele>
        <time>2015-10-26T09:28:19Z</time>
      </trkpt>
      <trkpt lat="46.43206" lon="6.10285">
        <ele>1560.36</ele>
        <time>2015-10-26T09:28:25Z</time>
      </trkpt>
      <trkpt lat="46.43207" lon="6.10274">
        <ele>1562.76</ele>
        <time>2015-10-26T09:28:35Z</time>
      </trkpt>
      <trkpt lat="46.43206" lon="6.10272">
        <ele>1563.72</ele>
        <time>2015-10-26T09:28:38Z</time>
      </trkpt>
      <trkpt lat="46.43201" lon="6.10259">
        <ele>1565.16</ele>
        <time>2015-10-26T09:28:49Z</time>
      </trkpt>
      <trkpt lat="46.43198" lon="6.10254">
        <ele>1566.61</ele>
        <time>2015-10-26T09:28:54Z</time>
      </trkpt>
      <trkpt lat="46.43196" lon="6.1025">
        <ele>1567.09</ele>
        <time>2015-10-26T09:28:58Z</time>
      </trkpt>
      <trkpt lat="46.43194" lon="6.10246">
        <ele>1567.09</ele>
        <time>2015-10-26T09:29:01Z</time>
      </trkpt>
      <trkpt lat="46.43189" lon="6.10238">
        <ele>1567.09</ele>
        <time>2015-10-26T09:29:08Z</time>
      </trkpt>
      <trkpt lat="46.43187" lon="6.10235">
        <ele>1567.09</ele>
        <time>2015-10-26T09:29:10Z</time>
      </trkpt>
      <trkpt lat="46.43183" lon="6.10229">
        <ele>1567.57</ele>
        <time>2015-10-26T09:29:16Z</time>
      </trkpt>
      <trkpt lat="46.43176" lon="6.10226">
        <ele>1569.97</ele>
        <time>2015-10-26T09:29:27Z</time>
      </trkpt>
      <trkpt lat="46.43171" lon="6.10223">
        <ele>1572.85</ele>
        <time>2015-10-26T09:29:35Z</time>
      </trkpt>
      <trkpt lat="46.43168" lon="6.10221">
        <ele>1573.33</ele>
        <time>2015-10-26T09:29:38Z</time>
      </trkpt>
      <trkpt lat="46.43162" lon="6.10218">
        <ele>1574.78</ele>
        <time>2015-10-26T09:29:45Z</time>
      </trkpt>
      <trkpt lat="46.43156" lon="6.10215">
        <ele>1576.7</ele>
        <time>2015-10-26T09:29:52Z</time>
      </trkpt>
      <trkpt lat="46.43153" lon="6.10214">
        <ele>1577.66</ele>
        <time>2015-10-26T09:29:55Z</time>
      </trkpt>
      <trkpt lat="46.43145" lon="6.1021">
        <ele>1579.1</ele>
        <time>2015-10-26T09:30:04Z</time>
      </trkpt>
      <trkpt lat="46.43138" lon="6.10207">
        <ele>1581.03</ele>
        <time>2015-10-26T09:30:12Z</time>
      </trkpt>
      <trkpt lat="46.43127" lon="6.10202">
        <ele>1582.95</ele>
        <time>2015-10-26T09:30:24Z</time>
      </trkpt>
      <trkpt lat="46.43118" lon="6.10199">
        <ele>1584.39</ele>
        <time>2015-10-26T09:30:32Z</time>
      </trkpt>
      <trkpt lat="46.43114" lon="6.10198">
        <ele>1585.35</ele>
        <time>2015-10-26T09:30:36Z</time>
      </trkpt>
      <trkpt lat="46.43105" lon="6.10196">
        <ele>1586.79</ele>
        <time>2015-10-26T09:30:45Z</time>
      </trkpt>
      <trkpt lat="46.43097" lon="6.102">
        <ele>1588.72</ele>
        <time>2015-10-26T09:30:55Z</time>
      </trkpt>
      <trkpt lat="46.43096" lon="6.102">
        <ele>1588.72</ele>
        <time>2015-10-26T09:30:56Z</time>
      </trkpt>
      <trkpt lat="46.43092" lon="6.10199">
        <ele>1589.68</ele>
        <time>2015-10-26T09:31:01Z</time>
      </trkpt>
      <trkpt lat="46.4309" lon="6.10199">
        <ele>1590.16</ele>
        <time>2015-10-26T09:31:03Z</time>
      </trkpt>
      <trkpt lat="46.43083" lon="6.102">
        <ele>1591.6</ele>
        <time>2015-10-26T09:31:13Z</time>
      </trkpt>
      <trkpt lat="46.43081" lon="6.10202">
        <ele>1593.04</ele>
        <time>2015-10-26T09:31:16Z</time>
      </trkpt>
      <trkpt lat="46.43078" lon="6.10205">
        <ele>1594.48</ele>
        <time>2015-10-26T09:31:22Z</time>
      </trkpt>
      <trkpt lat="46.43075" lon="6.10205">
        <ele>1594.96</ele>
        <time>2015-10-26T09:31:25Z</time>
      </trkpt>
      <trkpt lat="46.43072" lon="6.10206">
        <ele>1597.37</ele>
        <time>2015-10-26T09:31:35Z</time>
      </trkpt>
      <trkpt lat="46.43068" lon="6.10207">
        <ele>1599.77</ele>
        <time>2015-10-26T09:31:45Z</time>
      </trkpt>
      <trkpt lat="46.43067" lon="6.10208">
        <ele>1601.69</ele>
        <time>2015-10-26T09:31:50Z</time>
      </trkpt>
      <trkpt lat="46.43065" lon="6.10208">
        <ele>1604.1</ele>
        <time>2015-10-26T09:32:01Z</time>
      </trkpt>
      <trkpt lat="46.43058" lon="6.10211">
        <ele>1606.5</ele>
        <time>2015-10-26T09:32:11Z</time>
      </trkpt>
      <trkpt lat="46.43055" lon="6.10213">
        <ele>1606.98</ele>
        <time>2015-10-26T09:32:14Z</time>
      </trkpt>
      <trkpt lat="46.43053" lon="6.10216">
        <ele>1607.46</ele>
        <time>2015-10-26T09:32:18Z</time>
      </trkpt>
      <trkpt lat="46.43049" lon="6.10215">
        <ele>1607.94</ele>
        <time>2015-10-26T09:32:21Z</time>
      </trkpt>
      <trkpt lat="46.43045" lon="6.10214">
        <ele>1608.42</ele>
        <time>2015-10-26T09:32:25Z</time>
      </trkpt>
      <trkpt lat="46.43038" lon="6.10215">
        <ele>1610.83</ele>
        <time>2015-10-26T09:32:35Z</time>
      </trkpt>
      <trkpt lat="46.43034" lon="6.10216">
        <ele>1612.27</ele>
        <time>2015-10-26T09:32:41Z</time>
      </trkpt>
      <trkpt lat="46.43028" lon="6.10216">
        <ele>1613.23</ele>
        <time>2015-10-26T09:32:47Z</time>
      </trkpt>
      <trkpt lat="46.43023" lon="6.10224">
        <ele>1615.63</ele>
        <time>2015-10-26T09:32:57Z</time>
      </trkpt>
      <trkpt lat="46.43021" lon="6.10236">
        <ele>1616.59</ele>
        <time>2015-10-26T09:33:07Z</time>
      </trkpt>
      <trkpt lat="46.4302" lon="6.10237">
        <ele>1617.07</ele>
        <time>2015-10-26T09:33:09Z</time>
      </trkpt>
      <trkpt lat="46.43017" lon="6.10238">
        <ele>1617.56</ele>
        <time>2015-10-26T09:33:11Z</time>
      </trkpt>
      <trkpt lat="46.43011" lon="6.10238">
        <ele>1618.04</ele>
        <time>2015-10-26T09:33:18Z</time>
      </trkpt>
      <trkpt lat="46.43007" lon="6.10237">
        <ele>1618.52</ele>
        <time>2015-10-26T09:33:22Z</time>
      </trkpt>
      <trkpt lat="46.42994" lon="6.1023">
        <ele>1619.48</ele>
        <time>2015-10-26T09:33:34Z</time>
      </trkpt>
      <trkpt lat="46.42987" lon="6.10227">
        <ele>1620.92</ele>
        <time>2015-10-26T09:33:41Z</time>
      </trkpt>
      <trkpt lat="46.42976" lon="6.10225">
        <ele>1622.84</ele>
        <time>2015-10-26T09:33:53Z</time>
      </trkpt>
      <trkpt lat="46.42969" lon="6.10221">
        <ele>1624.77</ele>
        <time>2015-10-26T09:34:02Z</time>
      </trkpt>
      <trkpt lat="46.42966" lon="6.10222">
        <ele>1625.25</ele>
        <time>2015-10-26T09:34:05Z</time>
      </trkpt>
      <trkpt lat="46.42964" lon="6.1022">
        <ele>1626.21</ele>
        <time>2015-10-26T09:34:08Z</time>
      </trkpt>
      <trkpt lat="46.42957" lon="6.10219">
        <ele>1628.13</ele>
        <time>2015-10-26T09:34:16Z</time>
      </trkpt>
      <trkpt lat="46.42954" lon="6.10215">
        <ele>1629.09</ele>
        <time>2015-10-26T09:34:20Z</time>
      </trkpt>
      <trkpt lat="46.42955" lon="6.10211">
        <ele>1628.61</ele>
        <time>2015-10-26T09:34:34Z</time>
      </trkpt>
      <trkpt lat="46.42955" lon="6.10211">
        <ele>1628.61</ele>
        <time>2015-10-26T09:34:43Z</time>
      </trkpt>
      <trkpt lat="46.42954" lon="6.10215">
        <ele>1629.57</ele>
        <time>2015-10-26T09:34:55Z</time>
      </trkpt>
      <trkpt lat="46.42952" lon="6.10215">
        <ele>1629.57</ele>
        <time>2015-10-26T09:35:07Z</time>
      </trkpt>
      <trkpt lat="46.42948" lon="6.10214">
        <ele>1630.05</ele>
        <time>2015-10-26T09:35:10Z</time>
      </trkpt>
      <trkpt lat="46.42945" lon="6.10216">
        <ele>1630.53</ele>
        <time>2015-10-26T09:35:13Z</time>
      </trkpt>
      <trkpt lat="46.42941" lon="6.10214">
        <ele>1631.98</ele>
        <time>2015-10-26T09:35:18Z</time>
      </trkpt>
      <trkpt lat="46.42938" lon="6.10212">
        <ele>1631.49</ele>
        <time>2015-10-26T09:35:21Z</time>
      </trkpt>
      <trkpt lat="46.42937" lon="6.10208">
        <ele>1632.46</ele>
        <time>2015-10-26T09:35:34Z</time>
      </trkpt>
      <trkpt lat="46.42937" lon="6.10208">
        <ele>1632.94</ele>
        <time>2015-10-26T09:36:05Z</time>
      </trkpt>
      <trkpt lat="46.42937" lon="6.10208">
        <ele>1632.94</ele>
        <time>2015-10-26T09:36:09Z</time>
      </trkpt>
      <trkpt lat="46.42936" lon="6.10208">
        <ele>1633.42</ele>
        <time>2015-10-26T09:36:11Z</time>
      </trkpt>
      <trkpt lat="46.42927" lon="6.10209">
        <ele>1634.38</ele>
        <time>2015-10-26T09:36:21Z</time>
      </trkpt>
      <trkpt lat="46.42923" lon="6.10206">
        <ele>1634.86</ele>
        <time>2015-10-26T09:36:25Z</time>
      </trkpt>
      <trkpt lat="46.42916" lon="6.10209">
        <ele>1637.26</ele>
        <time>2015-10-26T09:36:31Z</time>
      </trkpt>
      <trkpt lat="46.42915" lon="6.10209">
        <ele>1637.26</ele>
        <time>2015-10-26T09:36:32Z</time>
      </trkpt>
      <trkpt lat="46.42909" lon="6.10206">
        <ele>1636.78</ele>
        <time>2015-10-26T09:36:37Z</time>
      </trkpt>
      <trkpt lat="46.42905" lon="6.10207">
        <ele>1637.26</ele>
        <time>2015-10-26T09:36:41Z</time>
      </trkpt>
      <trkpt lat="46.42899" lon="6.10206">
        <ele>1638.22</ele>
        <time>2015-10-26T09:36:46Z</time>
      </trkpt>
      <trkpt lat="46.42895" lon="6.10207">
        <ele>1638.22</ele>
        <time>2015-10-26T09:36:49Z</time>
      </trkpt>
      <trkpt lat="46.4289" lon="6.10206">
        <ele>1639.67</ele>
        <time>2015-10-26T09:36:54Z</time>
      </trkpt>
      <trkpt lat="46.42886" lon="6.10205">
        <ele>1640.15</ele>
        <time>2015-10-26T09:36:58Z</time>
      </trkpt>
      <trkpt lat="46.42876" lon="6.10203">
        <ele>1642.55</ele>
        <time>2015-10-26T09:37:08Z</time>
      </trkpt>
      <trkpt lat="46.42873" lon="6.10202">
        <ele>1642.55</ele>
        <time>2015-10-26T09:37:11Z</time>
      </trkpt>
      <trkpt lat="46.42869" lon="6.10201">
        <ele>1643.99</ele>
        <time>2015-10-26T09:37:16Z</time>
      </trkpt>
      <trkpt lat="46.42864" lon="6.102">
        <ele>1643.99</ele>
        <time>2015-10-26T09:37:20Z</time>
      </trkpt>
      <trkpt lat="46.42861" lon="6.102">
        <ele>1644.95</ele>
        <time>2015-10-26T09:37:24Z</time>
      </trkpt>
      <trkpt lat="46.42856" lon="6.10199">
        <ele>1645.91</ele>
        <time>2015-10-26T09:37:28Z</time>
      </trkpt>
      <trkpt lat="46.42852" lon="6.10198">
        <ele>1646.88</ele>
        <time>2015-10-26T09:37:32Z</time>
      </trkpt>
      <trkpt lat="46.42841" lon="6.10199">
        <ele>1649.28</ele>
        <time>2015-10-26T09:37:42Z</time>
      </trkpt>
      <trkpt lat="46.42839" lon="6.10199">
        <ele>1649.76</ele>
        <time>2015-10-26T09:37:44Z</time>
      </trkpt>
      <trkpt lat="46.42835" lon="6.10199">
        <ele>1650.72</ele>
        <time>2015-10-26T09:37:49Z</time>
      </trkpt>
      <trkpt lat="46.42832" lon="6.10197">
        <ele>1650.72</ele>
        <time>2015-10-26T09:37:52Z</time>
      </trkpt>
      <trkpt lat="46.42823" lon="6.10197">
        <ele>1652.64</ele>
        <time>2015-10-26T09:38:01Z</time>
      </trkpt>
      <trkpt lat="46.42818" lon="6.10196">
        <ele>1653.6</ele>
        <time>2015-10-26T09:38:05Z</time>
      </trkpt>
      <trkpt lat="46.42812" lon="6.10193">
        <ele>1654.09</ele>
        <time>2015-10-26T09:38:11Z</time>
      </trkpt>
      <trkpt lat="46.42808" lon="6.10193">
        <ele>1654.09</ele>
        <time>2015-10-26T09:38:15Z</time>
      </trkpt>
      <trkpt lat="46.42794" lon="6.10188">
        <ele>1655.53</ele>
        <time>2015-10-26T09:38:26Z</time>
      </trkpt>
      <trkpt lat="46.42779" lon="6.10183">
        <ele>1656.01</ele>
        <time>2015-10-26T09:38:38Z</time>
      </trkpt>
      <trkpt lat="46.42768" lon="6.10177">
        <ele>1655.53</ele>
        <time>2015-10-26T09:38:49Z</time>
      </trkpt>
      <trkpt lat="46.42768" lon="6.10177">
        <ele>1655.53</ele>
        <time>2015-10-26T09:39:22Z</time>
      </trkpt>
      <trkpt lat="46.42763" lon="6.10171">
        <ele>1655.05</ele>
        <time>2015-10-26T09:39:28Z</time>
      </trkpt>
      <trkpt lat="46.42752" lon="6.10165">
        <ele>1654.57</ele>
        <time>2015-10-26T09:39:37Z</time>
      </trkpt>
      <trkpt lat="46.4274" lon="6.10159">
        <ele>1654.09</ele>
        <time>2015-10-26T09:39:47Z</time>
      </trkpt>
      <trkpt lat="46.42739" lon="6.10157">
        <ele>1654.09</ele>
        <time>2015-10-26T09:39:48Z</time>
      </trkpt>
      <trkpt lat="46.42729" lon="6.10153">
        <ele>1654.57</ele>
        <time>2015-10-26T09:39:56Z</time>
      </trkpt>
      <trkpt lat="46.42722" lon="6.10149">
        <ele>1655.05</ele>
        <time>2015-10-26T09:40:02Z</time>
      </trkpt>
      <trkpt lat="46.42713" lon="6.10142">
        <ele>1655.05</ele>
        <time>2015-10-26T09:40:10Z</time>
      </trkpt>
      <trkpt lat="46.42701" lon="6.10132">
        <ele>1656.01</ele>
        <time>2015-10-26T09:40:21Z</time>
      </trkpt>
      <trkpt lat="46.42695" lon="6.1013">
        <ele>1656.01</ele>
        <time>2015-10-26T09:40:25Z</time>
      </trkpt>
      <trkpt lat="46.42692" lon="6.10128">
        <ele>1656.01</ele>
        <time>2015-10-26T09:40:28Z</time>
      </trkpt>
      <trkpt lat="46.42687" lon="6.10122">
        <ele>1656.97</ele>
        <time>2015-10-26T09:40:33Z</time>
      </trkpt>
      <trkpt lat="46.42672" lon="6.1011">
        <ele>1657.45</ele>
        <time>2015-10-26T09:40:45Z</time>
      </trkpt>
      <trkpt lat="46.42666" lon="6.10097">
        <ele>1657.93</ele>
        <time>2015-10-26T09:40:55Z</time>
      </trkpt>
      <trkpt lat="46.42661" lon="6.10088">
        <ele>1656.97</ele>
        <time>2015-10-26T09:41:02Z</time>
      </trkpt>
      <trkpt lat="46.42655" lon="6.10085">
        <ele>1658.41</ele>
        <time>2015-10-26T09:41:07Z</time>
      </trkpt>
      <trkpt lat="46.42644" lon="6.10076">
        <ele>1660.33</ele>
        <time>2015-10-26T09:41:18Z</time>
      </trkpt>
      <trkpt lat="46.42632" lon="6.1007">
        <ele>1660.33</ele>
        <time>2015-10-26T09:41:28Z</time>
      </trkpt>
      <trkpt lat="46.4262" lon="6.10062">
        <ele>1661.3</ele>
        <time>2015-10-26T09:41:38Z</time>
      </trkpt>
      <trkpt lat="46.4261" lon="6.10056">
        <ele>1663.22</ele>
        <time>2015-10-26T09:41:47Z</time>
      </trkpt>
      <trkpt lat="46.42603" lon="6.10055">
        <ele>1663.22</ele>
        <time>2015-10-26T09:41:53Z</time>
      </trkpt>
      <trkpt lat="46.42593" lon="6.10047">
        <ele>1664.18</ele>
        <time>2015-10-26T09:42:02Z</time>
      </trkpt>
      <trkpt lat="46.42588" lon="6.10045">
        <ele>1664.66</ele>
        <time>2015-10-26T09:42:07Z</time>
      </trkpt>
      <trkpt lat="46.42579" lon="6.10038">
        <ele>1666.1</ele>
        <time>2015-10-26T09:42:18Z</time>
      </trkpt>
      <trkpt lat="46.42578" lon="6.10038">
        <ele>1666.58</ele>
        <time>2015-10-26T09:42:21Z</time>
      </trkpt>
      <trkpt lat="46.42573" lon="6.10032">
        <ele>1667.06</ele>
        <time>2015-10-26T09:42:25Z</time>
      </trkpt>
      <trkpt lat="46.42561" lon="6.10018">
        <ele>1667.06</ele>
        <time>2015-10-26T09:42:37Z</time>
      </trkpt>
      <trkpt lat="46.42556" lon="6.10013">
        <ele>1667.06</ele>
        <time>2015-10-26T09:42:43Z</time>
      </trkpt>
      <trkpt lat="46.42552" lon="6.10012">
        <ele>1667.06</ele>
        <time>2015-10-26T09:42:47Z</time>
      </trkpt>
      <trkpt lat="46.42546" lon="6.10012">
        <ele>1667.54</ele>
        <time>2015-10-26T09:42:53Z</time>
      </trkpt>
      <trkpt lat="46.42534" lon="6.10002">
        <ele>1667.06</ele>
        <time>2015-10-26T09:43:03Z</time>
      </trkpt>
      <trkpt lat="46.42525" lon="6.09997">
        <ele>1666.58</ele>
        <time>2015-10-26T09:43:10Z</time>
      </trkpt>
      <trkpt lat="46.42523" lon="6.1">
        <ele>1666.58</ele>
        <time>2015-10-26T09:43:20Z</time>
      </trkpt>
      <trkpt lat="46.42523" lon="6.1">
        <ele>1665.14</ele>
        <time>2015-10-26T09:43:26Z</time>
      </trkpt>
      <trkpt lat="46.42523" lon="6.09997">
        <ele>1666.58</ele>
        <time>2015-10-26T09:54:53Z</time>
      </trkpt>
      <trkpt lat="46.42524" lon="6.09997">
        <ele>1666.58</ele>
        <time>2015-10-26T09:54:54Z</time>
      </trkpt>
      <trkpt lat="46.42515" lon="6.09991">
        <ele>1667.54</ele>
        <time>2015-10-26T09:55:02Z</time>
      </trkpt>
      <trkpt lat="46.42513" lon="6.09986">
        <ele>1668.99</ele>
        <time>2015-10-26T09:55:07Z</time>
      </trkpt>
      <trkpt lat="46.42507" lon="6.09976">
        <ele>1668.99</ele>
        <time>2015-10-26T09:55:17Z</time>
      </trkpt>
      <trkpt lat="46.42497" lon="6.09965">
        <ele>1668.99</ele>
        <time>2015-10-26T09:55:30Z</time>
      </trkpt>
      <trkpt lat="46.42492" lon="6.09951">
        <ele>1668.99</ele>
        <time>2015-10-26T09:55:41Z</time>
      </trkpt>
      <trkpt lat="46.42493" lon="6.09937">
        <ele>1668.99</ele>
        <time>2015-10-26T09:55:50Z</time>
      </trkpt>
      <trkpt lat="46.42492" lon="6.09928">
        <ele>1671.39</ele>
        <time>2015-10-26T09:56:01Z</time>
      </trkpt>
      <trkpt lat="46.42496" lon="6.09928">
        <ele>1673.31</ele>
        <time>2015-10-26T09:56:14Z</time>
      </trkpt>
      <trkpt lat="46.42495" lon="6.09929">
        <ele>1673.79</ele>
        <time>2015-10-26T09:56:18Z</time>
      </trkpt>
      <trkpt lat="46.42492" lon="6.09927">
        <ele>1672.35</ele>
        <time>2015-10-26T09:56:21Z</time>
      </trkpt>
      <trkpt lat="46.42488" lon="6.0992">
        <ele>1671.39</ele>
        <time>2015-10-26T09:56:30Z</time>
      </trkpt>
      <trkpt lat="46.42486" lon="6.09919">
        <ele>1670.91</ele>
        <time>2015-10-26T09:56:32Z</time>
      </trkpt>
      <trkpt lat="46.4248" lon="6.09916">
        <ele>1670.91</ele>
        <time>2015-10-26T09:56:38Z</time>
      </trkpt>
      <trkpt lat="46.42477" lon="6.09915">
        <ele>1670.43</ele>
        <time>2015-10-26T09:56:48Z</time>
      </trkpt>
      <trkpt lat="46.42456" lon="6.099">
        <ele>1668.51</ele>
        <time>2015-10-26T10:54:20Z</time>
      </trkpt>
      <trkpt lat="46.4246" lon="6.09902">
        <ele>1668.02</ele>
        <time>2015-10-26T10:54:21Z</time>
      </trkpt>
      <trkpt lat="46.42473" lon="6.09914">
        <ele>1670.43</ele>
        <time>2015-10-26T10:54:45Z</time>
      </trkpt>
      <trkpt lat="46.42472" lon="6.09914">
        <ele>1669.95</ele>
        <time>2015-10-26T10:54:46Z</time>
      </trkpt>
      <trkpt lat="46.42464" lon="6.0991">
        <ele>1668.02</ele>
        <time>2015-10-26T10:54:55Z</time>
      </trkpt>
      <trkpt lat="46.4246" lon="6.0991">
        <ele>1667.54</ele>
        <time>2015-10-26T10:54:59Z</time>
      </trkpt>
      <trkpt lat="46.42456" lon="6.0991">
        <ele>1666.58</ele>
        <time>2015-10-26T10:55:05Z</time>
      </trkpt>
      <trkpt lat="46.42443" lon="6.099">
        <ele>1665.14</ele>
        <time>2015-10-26T10:55:17Z</time>
      </trkpt>
      <trkpt lat="46.42433" lon="6.09897">
        <ele>1663.7</ele>
        <time>2015-10-26T10:55:26Z</time>
      </trkpt>
      <trkpt lat="46.42427" lon="6.099">
        <ele>1661.78</ele>
        <time>2015-10-26T10:55:33Z</time>
      </trkpt>
      <trkpt lat="46.42422" lon="6.09895">
        <ele>1660.81</ele>
        <time>2015-10-26T10:55:40Z</time>
      </trkpt>
      <trkpt lat="46.42419" lon="6.09894">
        <ele>1660.81</ele>
        <time>2015-10-26T10:55:43Z</time>
      </trkpt>
      <trkpt lat="46.42414" lon="6.09892">
        <ele>1660.33</ele>
        <time>2015-10-26T10:55:48Z</time>
      </trkpt>
      <trkpt lat="46.42413" lon="6.09889">
        <ele>1659.85</ele>
        <time>2015-10-26T10:55:50Z</time>
      </trkpt>
      <trkpt lat="46.4241" lon="6.09884">
        <ele>1658.89</ele>
        <time>2015-10-26T10:55:57Z</time>
      </trkpt>
      <trkpt lat="46.42408" lon="6.09882">
        <ele>1658.89</ele>
        <time>2015-10-26T10:55:59Z</time>
      </trkpt>
      <trkpt lat="46.42402" lon="6.09878">
        <ele>1657.45</ele>
        <time>2015-10-26T10:56:05Z</time>
      </trkpt>
      <trkpt lat="46.42398" lon="6.09871">
        <ele>1656.97</ele>
        <time>2015-10-26T10:56:12Z</time>
      </trkpt>
      <trkpt lat="46.42395" lon="6.09872">
        <ele>1656.97</ele>
        <time>2015-10-26T10:56:16Z</time>
      </trkpt>
      <trkpt lat="46.4239" lon="6.09869">
        <ele>1656.01</ele>
        <time>2015-10-26T10:56:20Z</time>
      </trkpt>
      <trkpt lat="46.42387" lon="6.09867">
        <ele>1655.53</ele>
        <time>2015-10-26T10:56:25Z</time>
      </trkpt>
      <trkpt lat="46.42385" lon="6.09864">
        <ele>1654.57</ele>
        <time>2015-10-26T10:56:28Z</time>
      </trkpt>
      <trkpt lat="46.42383" lon="6.09861">
        <ele>1655.05</ele>
        <time>2015-10-26T10:56:31Z</time>
      </trkpt>
      <trkpt lat="46.4238" lon="6.09857">
        <ele>1654.09</ele>
        <time>2015-10-26T10:56:35Z</time>
      </trkpt>
      <trkpt lat="46.4237" lon="6.09843">
        <ele>1652.16</ele>
        <time>2015-10-26T10:56:47Z</time>
      </trkpt>
      <trkpt lat="46.42369" lon="6.09842">
        <ele>1652.16</ele>
        <time>2015-10-26T10:56:48Z</time>
      </trkpt>
      <trkpt lat="46.42361" lon="6.09836">
        <ele>1650.72</ele>
        <time>2015-10-26T10:56:56Z</time>
      </trkpt>
      <trkpt lat="46.42354" lon="6.09828">
        <ele>1650.72</ele>
        <time>2015-10-26T10:57:03Z</time>
      </trkpt>
      <trkpt lat="46.42351" lon="6.09826">
        <ele>1650.24</ele>
        <time>2015-10-26T10:57:06Z</time>
      </trkpt>
      <trkpt lat="46.42348" lon="6.09823">
        <ele>1649.76</ele>
        <time>2015-10-26T10:57:10Z</time>
      </trkpt>
      <trkpt lat="46.42335" lon="6.09809">
        <ele>1648.32</ele>
        <time>2015-10-26T10:57:24Z</time>
      </trkpt>
      <trkpt lat="46.42331" lon="6.09808">
        <ele>1647.84</ele>
        <time>2015-10-26T10:57:35Z</time>
      </trkpt>
      <trkpt lat="46.4233" lon="6.09803">
        <ele>1646.88</ele>
        <time>2015-10-26T10:57:40Z</time>
      </trkpt>
      <trkpt lat="46.42329" lon="6.09797">
        <ele>1646.4</ele>
        <time>2015-10-26T10:57:45Z</time>
      </trkpt>
      <trkpt lat="46.42327" lon="6.09795">
        <ele>1645.91</ele>
        <time>2015-10-26T10:57:47Z</time>
      </trkpt>
      <trkpt lat="46.42324" lon="6.09793">
        <ele>1645.43</ele>
        <time>2015-10-26T10:57:51Z</time>
      </trkpt>
      <trkpt lat="46.42323" lon="6.09791">
        <ele>1644.95</ele>
        <time>2015-10-26T10:57:53Z</time>
      </trkpt>
      <trkpt lat="46.42315" lon="6.09785">
        <ele>1642.07</ele>
        <time>2015-10-26T10:58:02Z</time>
      </trkpt>
      <trkpt lat="46.42309" lon="6.09782">
        <ele>1640.63</ele>
        <time>2015-10-26T10:58:07Z</time>
      </trkpt>
      <trkpt lat="46.42308" lon="6.0978">
        <ele>1640.15</ele>
        <time>2015-10-26T10:58:09Z</time>
      </trkpt>
      <trkpt lat="46.42307" lon="6.09778">
        <ele>1639.67</ele>
        <time>2015-10-26T10:58:11Z</time>
      </trkpt>
      <trkpt lat="46.42306" lon="6.09775">
        <ele>1638.7</ele>
        <time>2015-10-26T10:58:15Z</time>
      </trkpt>
      <trkpt lat="46.42301" lon="6.09758">
        <ele>1635.82</ele>
        <time>2015-10-26T10:58:26Z</time>
      </trkpt>
      <trkpt lat="46.423" lon="6.0975">
        <ele>1634.38</ele>
        <time>2015-10-26T10:58:32Z</time>
      </trkpt>
      <trkpt lat="46.42295" lon="6.09737">
        <ele>1632.94</ele>
        <time>2015-10-26T10:58:41Z</time>
      </trkpt>
      <trkpt lat="46.42291" lon="6.09734">
        <ele>1632.94</ele>
        <time>2015-10-26T10:58:45Z</time>
      </trkpt>
      <trkpt lat="46.4229" lon="6.09733">
        <ele>1631.98</ele>
        <time>2015-10-26T10:58:47Z</time>
      </trkpt>
      <trkpt lat="46.42282" lon="6.09726">
        <ele>1631.01</ele>
        <time>2015-10-26T10:58:53Z</time>
      </trkpt>
      <trkpt lat="46.42272" lon="6.09719">
        <ele>1631.49</ele>
        <time>2015-10-26T10:59:02Z</time>
      </trkpt>
      <trkpt lat="46.42265" lon="6.09715">
        <ele>1631.01</ele>
        <time>2015-10-26T10:59:10Z</time>
      </trkpt>
      <trkpt lat="46.4226" lon="6.09712">
        <ele>1630.53</ele>
        <time>2015-10-26T10:59:14Z</time>
      </trkpt>
      <trkpt lat="46.42252" lon="6.09706">
        <ele>1630.53</ele>
        <time>2015-10-26T10:59:21Z</time>
      </trkpt>
      <trkpt lat="46.42241" lon="6.09698">
        <ele>1629.09</ele>
        <time>2015-10-26T10:59:30Z</time>
      </trkpt>
      <trkpt lat="46.42237" lon="6.09695">
        <ele>1628.13</ele>
        <time>2015-10-26T10:59:34Z</time>
      </trkpt>
      <trkpt lat="46.42224" lon="6.09685">
        <ele>1627.17</ele>
        <time>2015-10-26T10:59:45Z</time>
      </trkpt>
      <trkpt lat="46.42217" lon="6.09674">
        <ele>1627.17</ele>
        <time>2015-10-26T10:59:53Z</time>
      </trkpt>
      <trkpt lat="46.42209" lon="6.09668">
        <ele>1626.69</ele>
        <time>2015-10-26T11:00:00Z</time>
      </trkpt>
      <trkpt lat="46.42205" lon="6.09663">
        <ele>1626.21</ele>
        <time>2015-10-26T11:00:04Z</time>
      </trkpt>
      <trkpt lat="46.42201" lon="6.09658">
        <ele>1627.17</ele>
        <time>2015-10-26T11:00:08Z</time>
      </trkpt>
      <trkpt lat="46.42193" lon="6.09654">
        <ele>1627.65</ele>
        <time>2015-10-26T11:00:14Z</time>
      </trkpt>
      <trkpt lat="46.42186" lon="6.09646">
        <ele>1628.13</ele>
        <time>2015-10-26T11:00:22Z</time>
      </trkpt>
      <trkpt lat="46.42182" lon="6.09645">
        <ele>1628.13</ele>
        <time>2015-10-26T11:00:26Z</time>
      </trkpt>
      <trkpt lat="46.42176" lon="6.09639">
        <ele>1628.13</ele>
        <time>2015-10-26T11:00:33Z</time>
      </trkpt>
      <trkpt lat="46.4217" lon="6.09631">
        <ele>1630.53</ele>
        <time>2015-10-26T11:00:40Z</time>
      </trkpt>
      <trkpt lat="46.42168" lon="6.09629">
        <ele>1631.01</ele>
        <time>2015-10-26T11:00:43Z</time>
      </trkpt>
      <trkpt lat="46.42167" lon="6.09628">
        <ele>1631.98</ele>
        <time>2015-10-26T11:00:45Z</time>
      </trkpt>
      <trkpt lat="46.42163" lon="6.09624">
        <ele>1633.42</ele>
        <time>2015-10-26T11:00:55Z</time>
      </trkpt>
      <trkpt lat="46.42161" lon="6.09619">
        <ele>1632.46</ele>
        <time>2015-10-26T11:01:04Z</time>
      </trkpt>
      <trkpt lat="46.42148" lon="6.09618">
        <ele>1629.57</ele>
        <time>2015-10-26T11:01:15Z</time>
      </trkpt>
      <trkpt lat="46.42148" lon="6.09618">
        <ele>1630.05</ele>
        <time>2015-10-26T11:01:16Z</time>
      </trkpt>
      <trkpt lat="46.4214" lon="6.09615">
        <ele>1628.13</ele>
        <time>2015-10-26T11:01:26Z</time>
      </trkpt>
      <trkpt lat="46.42134" lon="6.09612">
        <ele>1625.25</ele>
        <time>2015-10-26T11:01:36Z</time>
      </trkpt>
      <trkpt lat="46.42123" lon="6.09604">
        <ele>1624.28</ele>
        <time>2015-10-26T11:01:44Z</time>
      </trkpt>
      <trkpt lat="46.42122" lon="6.09603">
        <ele>1624.28</ele>
        <time>2015-10-26T11:01:45Z</time>
      </trkpt>
      <trkpt lat="46.42116" lon="6.09598">
        <ele>1622.84</ele>
        <time>2015-10-26T11:01:51Z</time>
      </trkpt>
      <trkpt lat="46.42109" lon="6.09593">
        <ele>1619.96</ele>
        <time>2015-10-26T11:02:00Z</time>
      </trkpt>
      <trkpt lat="46.42093" lon="6.09589">
        <ele>1619.48</ele>
        <time>2015-10-26T11:02:13Z</time>
      </trkpt>
      <trkpt lat="46.42086" lon="6.09585">
        <ele>1619</ele>
        <time>2015-10-26T11:02:21Z</time>
      </trkpt>
      <trkpt lat="46.42079" lon="6.09578">
        <ele>1616.11</ele>
        <time>2015-10-26T11:02:33Z</time>
      </trkpt>
      <trkpt lat="46.42076" lon="6.09573">
        <ele>1613.23</ele>
        <time>2015-10-26T11:02:43Z</time>
      </trkpt>
      <trkpt lat="46.42076" lon="6.09573">
        <ele>1612.75</ele>
        <time>2015-10-26T11:02:44Z</time>
      </trkpt>
      <trkpt lat="46.42073" lon="6.09567">
        <ele>1610.83</ele>
        <time>2015-10-26T11:02:51Z</time>
      </trkpt>
      <trkpt lat="46.42063" lon="6.09554">
        <ele>1608.42</ele>
        <time>2015-10-26T11:03:04Z</time>
      </trkpt>
      <trkpt lat="46.42062" lon="6.09551">
        <ele>1606.98</ele>
        <time>2015-10-26T11:03:07Z</time>
      </trkpt>
      <trkpt lat="46.4206" lon="6.09548">
        <ele>1606.5</ele>
        <time>2015-10-26T11:03:09Z</time>
      </trkpt>
      <trkpt lat="46.42049" lon="6.09537">
        <ele>1603.14</ele>
        <time>2015-10-26T11:03:22Z</time>
      </trkpt>
      <trkpt lat="46.42044" lon="6.09533">
        <ele>1602.17</ele>
        <time>2015-10-26T11:03:27Z</time>
      </trkpt>
      <trkpt lat="46.42038" lon="6.09529">
        <ele>1599.77</ele>
        <time>2015-10-26T11:03:35Z</time>
      </trkpt>
      <trkpt lat="46.42034" lon="6.09525">
        <ele>1599.29</ele>
        <time>2015-10-26T11:03:39Z</time>
      </trkpt>
      <trkpt lat="46.42029" lon="6.09521">
        <ele>1597.37</ele>
        <time>2015-10-26T11:03:46Z</time>
      </trkpt>
      <trkpt lat="46.42025" lon="6.09519">
        <ele>1595.93</ele>
        <time>2015-10-26T11:03:51Z</time>
      </trkpt>
      <trkpt lat="46.42023" lon="6.09515">
        <ele>1595.45</ele>
        <time>2015-10-26T11:03:54Z</time>
      </trkpt>
      <trkpt lat="46.42015" lon="6.09512">
        <ele>1593.52</ele>
        <time>2015-10-26T11:04:02Z</time>
      </trkpt>
      <trkpt lat="46.42013" lon="6.0951">
        <ele>1593.04</ele>
        <time>2015-10-26T11:04:04Z</time>
      </trkpt>
      <trkpt lat="46.4201" lon="6.09509">
        <ele>1592.08</ele>
        <time>2015-10-26T11:04:07Z</time>
      </trkpt>
      <trkpt lat="46.42007" lon="6.09504">
        <ele>1589.68</ele>
        <time>2015-10-26T11:04:19Z</time>
      </trkpt>
      <trkpt lat="46.42004" lon="6.09497">
        <ele>1586.79</ele>
        <time>2015-10-26T11:04:31Z</time>
      </trkpt>
      <trkpt lat="46.42005" lon="6.09493">
        <ele>1584.87</ele>
        <time>2015-10-26T11:04:39Z</time>
      </trkpt>
      <trkpt lat="46.42005" lon="6.0948">
        <ele>1581.99</ele>
        <time>2015-10-26T11:04:49Z</time>
      </trkpt>
      <trkpt lat="46.41998" lon="6.09468">
        <ele>1578.14</ele>
        <time>2015-10-26T11:05:01Z</time>
      </trkpt>
      <trkpt lat="46.41992" lon="6.0946">
        <ele>1576.22</ele>
        <time>2015-10-26T11:05:08Z</time>
      </trkpt>
      <trkpt lat="46.41989" lon="6.09458">
        <ele>1575.26</ele>
        <time>2015-10-26T11:05:10Z</time>
      </trkpt>
      <trkpt lat="46.41985" lon="6.09455">
        <ele>1574.3</ele>
        <time>2015-10-26T11:05:14Z</time>
      </trkpt>
      <trkpt lat="46.4198" lon="6.09449">
        <ele>1572.37</ele>
        <time>2015-10-26T11:05:20Z</time>
      </trkpt>
      <trkpt lat="46.41975" lon="6.09441">
        <ele>1569.49</ele>
        <time>2015-10-26T11:05:31Z</time>
      </trkpt>
      <trkpt lat="46.41974" lon="6.09439">
        <ele>1569.01</ele>
        <time>2015-10-26T11:05:32Z</time>
      </trkpt>
      <trkpt lat="46.41969" lon="6.09437">
        <ele>1568.05</ele>
        <time>2015-10-26T11:05:36Z</time>
      </trkpt>
      <trkpt lat="46.41962" lon="6.09429">
        <ele>1565.64</ele>
        <time>2015-10-26T11:05:44Z</time>
      </trkpt>
      <trkpt lat="46.4195" lon="6.09422">
        <ele>1562.28</ele>
        <time>2015-10-26T11:05:57Z</time>
      </trkpt>
      <trkpt lat="46.41941" lon="6.09418">
        <ele>1559.4</ele>
        <time>2015-10-26T11:06:09Z</time>
      </trkpt>
      <trkpt lat="46.41939" lon="6.09416">
        <ele>1558.92</ele>
        <time>2015-10-26T11:06:12Z</time>
      </trkpt>
      <trkpt lat="46.41932" lon="6.09402">
        <ele>1556.99</ele>
        <time>2015-10-26T11:06:20Z</time>
      </trkpt>
      <trkpt lat="46.41926" lon="6.09396">
        <ele>1554.11</ele>
        <time>2015-10-26T11:06:27Z</time>
      </trkpt>
      <trkpt lat="46.41917" lon="6.09386">
        <ele>1551.22</ele>
        <time>2015-10-26T11:06:38Z</time>
      </trkpt>
      <trkpt lat="46.41909" lon="6.09379">
        <ele>1548.34</ele>
        <time>2015-10-26T11:06:49Z</time>
      </trkpt>
      <trkpt lat="46.41899" lon="6.0938">
        <ele>1546.9</ele>
        <time>2015-10-26T11:06:59Z</time>
      </trkpt>
      <trkpt lat="46.41895" lon="6.09378">
        <ele>1546.42</ele>
        <time>2015-10-26T11:07:02Z</time>
      </trkpt>
      <trkpt lat="46.41882" lon="6.09367">
        <ele>1544.01</ele>
        <time>2015-10-26T11:07:15Z</time>
      </trkpt>
      <trkpt lat="46.41878" lon="6.09363">
        <ele>1542.57</ele>
        <time>2015-10-26T11:07:22Z</time>
      </trkpt>
      <trkpt lat="46.41876" lon="6.0936">
        <ele>1541.61</ele>
        <time>2015-10-26T11:07:25Z</time>
      </trkpt>
      <trkpt lat="46.41873" lon="6.09357">
        <ele>1541.13</ele>
        <time>2015-10-26T11:07:28Z</time>
      </trkpt>
      <trkpt lat="46.41863" lon="6.09351">
        <ele>1537.77</ele>
        <time>2015-10-26T11:07:40Z</time>
      </trkpt>
      <trkpt lat="46.4186" lon="6.09347">
        <ele>1536.32</ele>
        <time>2015-10-26T11:07:47Z</time>
      </trkpt>
      <trkpt lat="46.41849" lon="6.09341">
        <ele>1533.92</ele>
        <time>2015-10-26T11:07:57Z</time>
      </trkpt>
      <trkpt lat="46.41837" lon="6.09332">
        <ele>1531.04</ele>
        <time>2015-10-26T11:08:08Z</time>
      </trkpt>
      <trkpt lat="46.4183" lon="6.09326">
        <ele>1529.59</ele>
        <time>2015-10-26T11:08:15Z</time>
      </trkpt>
      <trkpt lat="46.41815" lon="6.09315">
        <ele>1526.71</ele>
        <time>2015-10-26T11:08:27Z</time>
      </trkpt>
      <trkpt lat="46.41804" lon="6.09308">
        <ele>1524.79</ele>
        <time>2015-10-26T11:08:40Z</time>
      </trkpt>
      <trkpt lat="46.41794" lon="6.09302">
        <ele>1521.9</ele>
        <time>2015-10-26T11:08:53Z</time>
      </trkpt>
      <trkpt lat="46.41793" lon="6.09301">
        <ele>1521.9</ele>
        <time>2015-10-26T11:08:55Z</time>
      </trkpt>
      <trkpt lat="46.41788" lon="6.09297">
        <ele>1521.42</ele>
        <time>2015-10-26T11:08:59Z</time>
      </trkpt>
      <trkpt lat="46.41781" lon="6.0929">
        <ele>1519.5</ele>
        <time>2015-10-26T11:09:11Z</time>
      </trkpt>
      <trkpt lat="46.41777" lon="6.09288">
        <ele>1517.58</ele>
        <time>2015-10-26T11:09:19Z</time>
      </trkpt>
      <trkpt lat="46.41769" lon="6.09282">
        <ele>1515.18</ele>
        <time>2015-10-26T11:09:29Z</time>
      </trkpt>
      <trkpt lat="46.41764" lon="6.09277">
        <ele>1511.81</ele>
        <time>2015-10-26T11:09:40Z</time>
      </trkpt>
      <trkpt lat="46.41758" lon="6.09276">
        <ele>1509.41</ele>
        <time>2015-10-26T11:09:50Z</time>
      </trkpt>
      <trkpt lat="46.41758" lon="6.09268">
        <ele>1507.97</ele>
        <time>2015-10-26T11:09:56Z</time>
      </trkpt>
      <trkpt lat="46.41757" lon="6.09257">
        <ele>1506.04</ele>
        <time>2015-10-26T11:10:02Z</time>
      </trkpt>
      <trkpt lat="46.41748" lon="6.09251">
        <ele>1503.16</ele>
        <time>2015-10-26T11:10:10Z</time>
      </trkpt>
      <trkpt lat="46.41748" lon="6.0925">
        <ele>1502.68</ele>
        <time>2015-10-26T11:10:11Z</time>
      </trkpt>
      <trkpt lat="46.41745" lon="6.0925">
        <ele>1502.2</ele>
        <time>2015-10-26T11:10:13Z</time>
      </trkpt>
      <trkpt lat="46.41741" lon="6.0925">
        <ele>1501.24</ele>
        <time>2015-10-26T11:10:17Z</time>
      </trkpt>
      <trkpt lat="46.41736" lon="6.09243">
        <ele>1499.31</ele>
        <time>2015-10-26T11:10:24Z</time>
      </trkpt>
      <trkpt lat="46.41732" lon="6.0924">
        <ele>1497.87</ele>
        <time>2015-10-26T11:10:28Z</time>
      </trkpt>
      <trkpt lat="46.41724" lon="6.09234">
        <ele>1495.47</ele>
        <time>2015-10-26T11:10:34Z</time>
      </trkpt>
      <trkpt lat="46.41713" lon="6.09219">
        <ele>1493.55</ele>
        <time>2015-10-26T11:10:45Z</time>
      </trkpt>
      <trkpt lat="46.41708" lon="6.09213">
        <ele>1493.55</ele>
        <time>2015-10-26T11:10:49Z</time>
      </trkpt>
      <trkpt lat="46.41696" lon="6.092">
        <ele>1494.03</ele>
        <time>2015-10-26T11:11:00Z</time>
      </trkpt>
      <trkpt lat="46.41687" lon="6.09188">
        <ele>1493.06</ele>
        <time>2015-10-26T11:11:09Z</time>
      </trkpt>
      <trkpt lat="46.41679" lon="6.09172">
        <ele>1491.62</ele>
        <time>2015-10-26T11:11:17Z</time>
      </trkpt>
      <trkpt lat="46.41675" lon="6.09169">
        <ele>1491.14</ele>
        <time>2015-10-26T11:11:22Z</time>
      </trkpt>
      <trkpt lat="46.41664" lon="6.09159">
        <ele>1488.74</ele>
        <time>2015-10-26T11:11:31Z</time>
      </trkpt>
      <trkpt lat="46.41652" lon="6.09143">
        <ele>1486.34</ele>
        <time>2015-10-26T11:11:44Z</time>
      </trkpt>
      <trkpt lat="46.4165" lon="6.09141">
        <ele>1486.34</ele>
        <time>2015-10-26T11:11:45Z</time>
      </trkpt>
      <trkpt lat="46.41649" lon="6.09138">
        <ele>1485.85</ele>
        <time>2015-10-26T11:11:47Z</time>
      </trkpt>
      <trkpt lat="46.41645" lon="6.09134">
        <ele>1484.89</ele>
        <time>2015-10-26T11:11:50Z</time>
      </trkpt>
      <trkpt lat="46.41635" lon="6.09117">
        <ele>1482.97</ele>
        <time>2015-10-26T11:12:01Z</time>
      </trkpt>
      <trkpt lat="46.41634" lon="6.09115">
        <ele>1482.49</ele>
        <time>2015-10-26T11:12:02Z</time>
      </trkpt>
      <trkpt lat="46.41627" lon="6.09096">
        <ele>1480.09</ele>
        <time>2015-10-26T11:12:13Z</time>
      </trkpt>
      <trkpt lat="46.41625" lon="6.09094">
        <ele>1479.13</ele>
        <time>2015-10-26T11:12:17Z</time>
      </trkpt>
      <trkpt lat="46.41621" lon="6.09087">
        <ele>1478.16</ele>
        <time>2015-10-26T11:12:21Z</time>
      </trkpt>
      <trkpt lat="46.41614" lon="6.09077">
        <ele>1476.72</ele>
        <time>2015-10-26T11:12:29Z</time>
      </trkpt>
      <trkpt lat="46.41611" lon="6.09074">
        <ele>1475.76</ele>
        <time>2015-10-26T11:12:32Z</time>
      </trkpt>
      <trkpt lat="46.41599" lon="6.09056">
        <ele>1474.32</ele>
        <time>2015-10-26T11:12:44Z</time>
      </trkpt>
      <trkpt lat="46.41586" lon="6.0904">
        <ele>1472.4</ele>
        <time>2015-10-26T11:12:56Z</time>
      </trkpt>
      <trkpt lat="46.41579" lon="6.09027">
        <ele>1470.47</ele>
        <time>2015-10-26T11:13:06Z</time>
      </trkpt>
      <trkpt lat="46.41574" lon="6.09021">
        <ele>1469.51</ele>
        <time>2015-10-26T11:13:10Z</time>
      </trkpt>
      <trkpt lat="46.41571" lon="6.09017">
        <ele>1469.03</ele>
        <time>2015-10-26T11:13:13Z</time>
      </trkpt>
      <trkpt lat="46.4157" lon="6.09006">
        <ele>1467.11</ele>
        <time>2015-10-26T11:13:23Z</time>
      </trkpt>
      <trkpt lat="46.4157" lon="6.09004">
        <ele>1467.11</ele>
        <time>2015-10-26T11:13:24Z</time>
      </trkpt>
      <trkpt lat="46.41572" lon="6.08989">
        <ele>1463.26</ele>
        <time>2015-10-26T11:13:34Z</time>
      </trkpt>
      <trkpt lat="46.41572" lon="6.08985">
        <ele>1462.3</ele>
        <time>2015-10-26T11:13:38Z</time>
      </trkpt>
      <trkpt lat="46.41577" lon="6.08963">
        <ele>1458.94</ele>
        <time>2015-10-26T11:13:50Z</time>
      </trkpt>
      <trkpt lat="46.41578" lon="6.08961">
        <ele>1458.46</ele>
        <time>2015-10-26T11:13:52Z</time>
      </trkpt>
      <trkpt lat="46.41579" lon="6.08952">
        <ele>1457.5</ele>
        <time>2015-10-26T11:13:58Z</time>
      </trkpt>
      <trkpt lat="46.41579" lon="6.08949">
        <ele>1457.02</ele>
        <time>2015-10-26T11:14:00Z</time>
      </trkpt>
      <trkpt lat="46.41589" lon="6.08941">
        <ele>1455.57</ele>
        <time>2015-10-26T11:14:09Z</time>
      </trkpt>
      <trkpt lat="46.41589" lon="6.08937">
        <ele>1454.13</ele>
        <time>2015-10-26T11:14:13Z</time>
      </trkpt>
      <trkpt lat="46.4159" lon="6.08932">
        <ele>1452.69</ele>
        <time>2015-10-26T11:14:18Z</time>
      </trkpt>
      <trkpt lat="46.41589" lon="6.08929">
        <ele>1451.73</ele>
        <time>2015-10-26T11:14:20Z</time>
      </trkpt>
      <trkpt lat="46.41589" lon="6.08927">
        <ele>1451.25</ele>
        <time>2015-10-26T11:14:21Z</time>
      </trkpt>
      <trkpt lat="46.41586" lon="6.08917">
        <ele>1449.32</ele>
        <time>2015-10-26T11:14:30Z</time>
      </trkpt>
      <trkpt lat="46.41585" lon="6.0891">
        <ele>1448.36</ele>
        <time>2015-10-26T11:14:35Z</time>
      </trkpt>
      <trkpt lat="46.41585" lon="6.08902">
        <ele>1446.92</ele>
        <time>2015-10-26T11:14:40Z</time>
      </trkpt>
      <trkpt lat="46.41586" lon="6.08897">
        <ele>1445.96</ele>
        <time>2015-10-26T11:14:43Z</time>
      </trkpt>
      <trkpt lat="46.41585" lon="6.08892">
        <ele>1445.48</ele>
        <time>2015-10-26T11:14:46Z</time>
      </trkpt>
      <trkpt lat="46.41583" lon="6.08887">
        <ele>1444.04</ele>
        <time>2015-10-26T11:14:51Z</time>
      </trkpt>
      <trkpt lat="46.41581" lon="6.08883">
        <ele>1443.08</ele>
        <time>2015-10-26T11:14:54Z</time>
      </trkpt>
      <trkpt lat="46.4158" lon="6.0887">
        <ele>1441.63</ele>
        <time>2015-10-26T11:15:01Z</time>
      </trkpt>
      <trkpt lat="46.41579" lon="6.08867">
        <ele>1441.15</ele>
        <time>2015-10-26T11:15:03Z</time>
      </trkpt>
      <trkpt lat="46.41575" lon="6.08857">
        <ele>1439.71</ele>
        <time>2015-10-26T11:15:09Z</time>
      </trkpt>
      <trkpt lat="46.41572" lon="6.08853">
        <ele>1438.75</ele>
        <time>2015-10-26T11:15:13Z</time>
      </trkpt>
      <trkpt lat="46.41571" lon="6.08848">
        <ele>1438.75</ele>
        <time>2015-10-26T11:15:16Z</time>
      </trkpt>
      <trkpt lat="46.41568" lon="6.08842">
        <ele>1437.79</ele>
        <time>2015-10-26T11:15:21Z</time>
      </trkpt>
      <trkpt lat="46.41565" lon="6.08839">
        <ele>1437.79</ele>
        <time>2015-10-26T11:15:24Z</time>
      </trkpt>
      <trkpt lat="46.41562" lon="6.08835">
        <ele>1436.83</ele>
        <time>2015-10-26T11:15:28Z</time>
      </trkpt>
      <trkpt lat="46.41559" lon="6.0883">
        <ele>1436.35</ele>
        <time>2015-10-26T11:15:32Z</time>
      </trkpt>
      <trkpt lat="46.41553" lon="6.08823">
        <ele>1435.87</ele>
        <time>2015-10-26T11:15:37Z</time>
      </trkpt>
      <trkpt lat="46.41547" lon="6.08809">
        <ele>1435.39</ele>
        <time>2015-10-26T11:15:48Z</time>
      </trkpt>
      <trkpt lat="46.41546" lon="6.08806">
        <ele>1434.42</ele>
        <time>2015-10-26T11:15:59Z</time>
      </trkpt>
      <trkpt lat="46.41546" lon="6.08806">
        <ele>1433.94</ele>
        <time>2015-10-26T11:16:31Z</time>
      </trkpt>
      <trkpt lat="46.41546" lon="6.08806">
        <ele>1433.94</ele>
        <time>2015-10-26T11:16:53Z</time>
      </trkpt>
      <trkpt lat="46.41546" lon="6.08807">
        <ele>1433.94</ele>
        <time>2015-10-26T11:17:23Z</time>
      </trkpt>
      <trkpt lat="46.41546" lon="6.08807">
        <ele>1433.46</ele>
        <time>2015-10-26T11:17:29Z</time>
      </trkpt>
      <trkpt lat="46.41544" lon="6.08801">
        <ele>1432.98</ele>
        <time>2015-10-26T11:17:32Z</time>
      </trkpt>
      <trkpt lat="46.41545" lon="6.08797">
        <ele>1432.02</ele>
        <time>2015-10-26T11:17:34Z</time>
      </trkpt>
      <trkpt lat="46.41545" lon="6.0879">
        <ele>1431.06</ele>
        <time>2015-10-26T11:17:37Z</time>
      </trkpt>
      <trkpt lat="46.41545" lon="6.08779">
        <ele>1429.62</ele>
        <time>2015-10-26T11:17:43Z</time>
      </trkpt>
      <trkpt lat="46.41545" lon="6.08755">
        <ele>1426.25</ele>
        <time>2015-10-26T11:17:55Z</time>
      </trkpt>
      <trkpt lat="46.41542" lon="6.08751">
        <ele>1426.25</ele>
        <time>2015-10-26T11:17:58Z</time>
      </trkpt>
      <trkpt lat="46.41529" lon="6.08732">
        <ele>1425.77</ele>
        <time>2015-10-26T11:18:09Z</time>
      </trkpt>
      <trkpt lat="46.41519" lon="6.08719">
        <ele>1425.77</ele>
        <time>2015-10-26T11:18:18Z</time>
      </trkpt>
      <trkpt lat="46.41515" lon="6.08716">
        <ele>1425.29</ele>
        <time>2015-10-26T11:18:22Z</time>
      </trkpt>
      <trkpt lat="46.41501" lon="6.08701">
        <ele>1424.81</ele>
        <time>2015-10-26T11:18:33Z</time>
      </trkpt>
      <trkpt lat="46.41494" lon="6.08694">
        <ele>1424.81</ele>
        <time>2015-10-26T11:18:41Z</time>
      </trkpt>
      <trkpt lat="46.41478" lon="6.08677">
        <ele>1424.33</ele>
        <time>2015-10-26T11:18:53Z</time>
      </trkpt>
      <trkpt lat="46.41468" lon="6.08665">
        <ele>1423.85</ele>
        <time>2015-10-26T11:19:04Z</time>
      </trkpt>
      <trkpt lat="46.4145" lon="6.08655">
        <ele>1423.85</ele>
        <time>2015-10-26T11:19:17Z</time>
      </trkpt>
      <trkpt lat="46.41435" lon="6.08651">
        <ele>1422.89</ele>
        <time>2015-10-26T11:19:26Z</time>
      </trkpt>
      <trkpt lat="46.41419" lon="6.08645">
        <ele>1421.45</ele>
        <time>2015-10-26T11:19:38Z</time>
      </trkpt>
      <trkpt lat="46.41407" lon="6.08639">
        <ele>1420.97</ele>
        <time>2015-10-26T11:19:45Z</time>
      </trkpt>
      <trkpt lat="46.41385" lon="6.08632">
        <ele>1420.49</ele>
        <time>2015-10-26T11:19:58Z</time>
      </trkpt>
      <trkpt lat="46.41367" lon="6.08631">
        <ele>1419.52</ele>
        <time>2015-10-26T11:20:12Z</time>
      </trkpt>
      <trkpt lat="46.4135" lon="6.08636">
        <ele>1419.04</ele>
        <time>2015-10-26T11:20:24Z</time>
      </trkpt>
      <trkpt lat="46.41334" lon="6.0865">
        <ele>1417.6</ele>
        <time>2015-10-26T11:20:37Z</time>
      </trkpt>
      <trkpt lat="46.41318" lon="6.08666">
        <ele>1416.64</ele>
        <time>2015-10-26T11:20:51Z</time>
      </trkpt>
      <trkpt lat="46.41299" lon="6.0867">
        <ele>1416.16</ele>
        <time>2015-10-26T11:21:03Z</time>
      </trkpt>
      <trkpt lat="46.41279" lon="6.08675">
        <ele>1415.68</ele>
        <time>2015-10-26T11:21:15Z</time>
      </trkpt>
      <trkpt lat="46.41275" lon="6.08676">
        <ele>1415.2</ele>
        <time>2015-10-26T11:21:20Z</time>
      </trkpt>
      <trkpt lat="46.41261" lon="6.08672">
        <ele>1415.2</ele>
        <time>2015-10-26T11:21:28Z</time>
      </trkpt>
      <trkpt lat="46.41249" lon="6.08665">
        <ele>1414.24</ele>
        <time>2015-10-26T11:21:35Z</time>
      </trkpt>
      <trkpt lat="46.41238" lon="6.08651">
        <ele>1412.79</ele>
        <time>2015-10-26T11:21:48Z</time>
      </trkpt>
      <trkpt lat="46.41237" lon="6.0865">
        <ele>1412.79</ele>
        <time>2015-10-26T11:21:49Z</time>
      </trkpt>
      <trkpt lat="46.41223" lon="6.08632">
        <ele>1410.39</ele>
        <time>2015-10-26T11:22:00Z</time>
      </trkpt>
      <trkpt lat="46.41214" lon="6.08625">
        <ele>1409.91</ele>
        <time>2015-10-26T11:22:06Z</time>
      </trkpt>
      <trkpt lat="46.41203" lon="6.08608">
        <ele>1407.51</ele>
        <time>2015-10-26T11:22:19Z</time>
      </trkpt>
      <trkpt lat="46.4119" lon="6.08588">
        <ele>1404.62</ele>
        <time>2015-10-26T11:22:30Z</time>
      </trkpt>
      <trkpt lat="46.41188" lon="6.0858">
        <ele>1403.66</ele>
        <time>2015-10-26T11:22:34Z</time>
      </trkpt>
      <trkpt lat="46.41185" lon="6.08574">
        <ele>1403.18</ele>
        <time>2015-10-26T11:22:40Z</time>
      </trkpt>
      <trkpt lat="46.41175" lon="6.08545">
        <ele>1401.74</ele>
        <time>2015-10-26T11:22:52Z</time>
      </trkpt>
      <trkpt lat="46.41169" lon="6.0853">
        <ele>1400.78</ele>
        <time>2015-10-26T11:23:01Z</time>
      </trkpt>
      <trkpt lat="46.41169" lon="6.08524">
        <ele>1400.3</ele>
        <time>2015-10-26T11:23:05Z</time>
      </trkpt>
      <trkpt lat="46.41167" lon="6.08497">
        <ele>1399.34</ele>
        <time>2015-10-26T11:23:16Z</time>
      </trkpt>
      <trkpt lat="46.41165" lon="6.08481">
        <ele>1398.37</ele>
        <time>2015-10-26T11:23:26Z</time>
      </trkpt>
      <trkpt lat="46.41165" lon="6.08477">
        <ele>1398.86</ele>
        <time>2015-10-26T11:23:28Z</time>
      </trkpt>
      <trkpt lat="46.4116" lon="6.08464">
        <ele>1397.89</ele>
        <time>2015-10-26T11:23:34Z</time>
      </trkpt>
      <trkpt lat="46.41159" lon="6.08456">
        <ele>1397.89</ele>
        <time>2015-10-26T11:23:39Z</time>
      </trkpt>
      <trkpt lat="46.41165" lon="6.08445">
        <ele>1397.41</ele>
        <time>2015-10-26T11:23:45Z</time>
      </trkpt>
      <trkpt lat="46.41173" lon="6.0844">
        <ele>1396.45</ele>
        <time>2015-10-26T11:23:51Z</time>
      </trkpt>
      <trkpt lat="46.41169" lon="6.08431">
        <ele>1396.45</ele>
        <time>2015-10-26T11:23:57Z</time>
      </trkpt>
      <trkpt lat="46.41166" lon="6.08427">
        <ele>1396.45</ele>
        <time>2015-10-26T11:24:00Z</time>
      </trkpt>
      <trkpt lat="46.41155" lon="6.08411">
        <ele>1396.93</ele>
        <time>2015-10-26T11:24:09Z</time>
      </trkpt>
      <trkpt lat="46.41148" lon="6.08397">
        <ele>1398.37</ele>
        <time>2015-10-26T11:24:18Z</time>
      </trkpt>
      <trkpt lat="46.41139" lon="6.08384">
        <ele>1400.3</ele>
        <time>2015-10-26T11:24:28Z</time>
      </trkpt>
      <trkpt lat="46.41134" lon="6.08371">
        <ele>1401.74</ele>
        <time>2015-10-26T11:24:38Z</time>
      </trkpt>
      <trkpt lat="46.41123" lon="6.08364">
        <ele>1402.22</ele>
        <time>2015-10-26T11:24:47Z</time>
      </trkpt>
      <trkpt lat="46.41115" lon="6.08348">
        <ele>1399.82</ele>
        <time>2015-10-26T11:24:59Z</time>
      </trkpt>
      <trkpt lat="46.41106" lon="6.08323">
        <ele>1399.82</ele>
        <time>2015-10-26T11:25:10Z</time>
      </trkpt>
      <trkpt lat="46.41107" lon="6.08301">
        <ele>1400.3</ele>
        <time>2015-10-26T11:25:22Z</time>
      </trkpt>
      <trkpt lat="46.41106" lon="6.08275">
        <ele>1401.26</ele>
        <time>2015-10-26T11:25:34Z</time>
      </trkpt>
      <trkpt lat="46.41105" lon="6.08251">
        <ele>1400.3</ele>
        <time>2015-10-26T11:25:45Z</time>
      </trkpt>
      <trkpt lat="46.41105" lon="6.08247">
        <ele>1400.3</ele>
        <time>2015-10-26T11:25:48Z</time>
      </trkpt>
      <trkpt lat="46.41104" lon="6.08238">
        <ele>1400.78</ele>
        <time>2015-10-26T11:25:52Z</time>
      </trkpt>
      <trkpt lat="46.411" lon="6.08212">
        <ele>1401.26</ele>
        <time>2015-10-26T11:26:04Z</time>
      </trkpt>
      <trkpt lat="46.41098" lon="6.082">
        <ele>1401.74</ele>
        <time>2015-10-26T11:26:11Z</time>
      </trkpt>
      <trkpt lat="46.41093" lon="6.08193">
        <ele>1401.74</ele>
        <time>2015-10-26T11:26:15Z</time>
      </trkpt>
      <trkpt lat="46.41087" lon="6.08189">
        <ele>1402.7</ele>
        <time>2015-10-26T11:26:20Z</time>
      </trkpt>
      <trkpt lat="46.41073" lon="6.0819">
        <ele>1404.14</ele>
        <time>2015-10-26T11:26:31Z</time>
      </trkpt>
      <trkpt lat="46.41068" lon="6.0819">
        <ele>1405.1</ele>
        <time>2015-10-26T11:26:35Z</time>
      </trkpt>
      <trkpt lat="46.41059" lon="6.08194">
        <ele>1406.07</ele>
        <time>2015-10-26T11:26:42Z</time>
      </trkpt>
      <trkpt lat="46.41055" lon="6.08196">
        <ele>1406.55</ele>
        <time>2015-10-26T11:26:45Z</time>
      </trkpt>
      <trkpt lat="46.41051" lon="6.08199">
        <ele>1407.51</ele>
        <time>2015-10-26T11:26:49Z</time>
      </trkpt>
      <trkpt lat="46.41043" lon="6.08201">
        <ele>1408.47</ele>
        <time>2015-10-26T11:26:55Z</time>
      </trkpt>
      <trkpt lat="46.41036" lon="6.08206">
        <ele>1409.91</ele>
        <time>2015-10-26T11:27:02Z</time>
      </trkpt>
      <trkpt lat="46.41027" lon="6.08211">
        <ele>1411.83</ele>
        <time>2015-10-26T11:27:10Z</time>
      </trkpt>
      <trkpt lat="46.41013" lon="6.08215">
        <ele>1413.28</ele>
        <time>2015-10-26T11:27:21Z</time>
      </trkpt>
      <trkpt lat="46.41007" lon="6.08216">
        <ele>1414.24</ele>
        <time>2015-10-26T11:27:25Z</time>
      </trkpt>
      <trkpt lat="46.41005" lon="6.08217">
        <ele>1414.72</ele>
        <time>2015-10-26T11:27:28Z</time>
      </trkpt>
      <trkpt lat="46.40988" lon="6.08218">
        <ele>1417.12</ele>
        <time>2015-10-26T11:27:40Z</time>
      </trkpt>
      <trkpt lat="46.40976" lon="6.08219">
        <ele>1417.6</ele>
        <time>2015-10-26T11:27:49Z</time>
      </trkpt>
      <trkpt lat="46.40957" lon="6.08218">
        <ele>1418.08</ele>
        <time>2015-10-26T11:28:02Z</time>
      </trkpt>
      <trkpt lat="46.40943" lon="6.08217">
        <ele>1419.52</ele>
        <time>2015-10-26T11:28:13Z</time>
      </trkpt>
      <trkpt lat="46.40942" lon="6.08217">
        <ele>1419.52</ele>
        <time>2015-10-26T11:28:14Z</time>
      </trkpt>
      <trkpt lat="46.40929" lon="6.08217">
        <ele>1420.49</ele>
        <time>2015-10-26T11:28:24Z</time>
      </trkpt>
      <trkpt lat="46.40925" lon="6.08216">
        <ele>1420.97</ele>
        <time>2015-10-26T11:28:26Z</time>
      </trkpt>
      <trkpt lat="46.40911" lon="6.08215">
        <ele>1422.89</ele>
        <time>2015-10-26T11:28:38Z</time>
      </trkpt>
      <trkpt lat="46.40902" lon="6.08201">
        <ele>1422.89</ele>
        <time>2015-10-26T11:28:50Z</time>
      </trkpt>
      <trkpt lat="46.40903" lon="6.08186">
        <ele>1423.37</ele>
        <time>2015-10-26T11:28:57Z</time>
      </trkpt>
      <trkpt lat="46.40906" lon="6.08177">
        <ele>1423.85</ele>
        <time>2015-10-26T11:29:09Z</time>
      </trkpt>
      <trkpt lat="46.40905" lon="6.08178">
        <ele>1423.37</ele>
        <time>2015-10-26T11:29:17Z</time>
      </trkpt>
      <trkpt lat="46.40898" lon="6.08196">
        <ele>1422.89</ele>
        <time>2015-10-26T11:29:28Z</time>
      </trkpt>
      <trkpt lat="46.40895" lon="6.08201">
        <ele>1422.89</ele>
        <time>2015-10-26T11:29:31Z</time>
      </trkpt>
      <trkpt lat="46.40892" lon="6.08211">
        <ele>1422.41</ele>
        <time>2015-10-26T11:29:41Z</time>
      </trkpt>
      <trkpt lat="46.40893" lon="6.08212">
        <ele>1422.89</ele>
        <time>2015-10-26T11:29:44Z</time>
      </trkpt>
      <trkpt lat="46.40889" lon="6.08221">
        <ele>1422.89</ele>
        <time>2015-10-26T11:29:50Z</time>
      </trkpt>
      <trkpt lat="46.40872" lon="6.08224">
        <ele>1422.89</ele>
        <time>2015-10-26T11:30:03Z</time>
      </trkpt>
      <trkpt lat="46.40855" lon="6.08221">
        <ele>1421.93</ele>
        <time>2015-10-26T11:30:14Z</time>
      </trkpt>
      <trkpt lat="46.40839" lon="6.08213">
        <ele>1421.45</ele>
        <time>2015-10-26T11:30:26Z</time>
      </trkpt>
      <trkpt lat="46.40825" lon="6.08204">
        <ele>1420</ele>
        <time>2015-10-26T11:30:38Z</time>
      </trkpt>
      <trkpt lat="46.40815" lon="6.08201">
        <ele>1418.56</ele>
        <time>2015-10-26T11:30:44Z</time>
      </trkpt>
      <trkpt lat="46.40802" lon="6.08191">
        <ele>1415.68</ele>
        <time>2015-10-26T11:30:56Z</time>
      </trkpt>
      <trkpt lat="46.40794" lon="6.08184">
        <ele>1415.2</ele>
        <time>2015-10-26T11:31:02Z</time>
      </trkpt>
      <trkpt lat="46.40789" lon="6.08181">
        <ele>1414.24</ele>
        <time>2015-10-26T11:31:06Z</time>
      </trkpt>
      <trkpt lat="46.40786" lon="6.08174">
        <ele>1413.28</ele>
        <time>2015-10-26T11:31:12Z</time>
      </trkpt>
      <trkpt lat="46.40773" lon="6.08159">
        <ele>1412.79</ele>
        <time>2015-10-26T11:31:22Z</time>
      </trkpt>
      <trkpt lat="46.4077" lon="6.08152">
        <ele>1412.31</ele>
        <time>2015-10-26T11:31:25Z</time>
      </trkpt>
      <trkpt lat="46.40762" lon="6.08144">
        <ele>1411.35</ele>
        <time>2015-10-26T11:31:33Z</time>
      </trkpt>
      <trkpt lat="46.40755" lon="6.08137">
        <ele>1410.87</ele>
        <time>2015-10-26T11:31:39Z</time>
      </trkpt>
      <trkpt lat="46.40745" lon="6.08133">
        <ele>1409.43</ele>
        <time>2015-10-26T11:31:45Z</time>
      </trkpt>
      <trkpt lat="46.40732" lon="6.08129">
        <ele>1407.03</ele>
        <time>2015-10-26T11:31:57Z</time>
      </trkpt>
      <trkpt lat="46.40718" lon="6.08116">
        <ele>1404.62</ele>
        <time>2015-10-26T11:32:07Z</time>
      </trkpt>
      <trkpt lat="46.40714" lon="6.08104">
        <ele>1404.14</ele>
        <time>2015-10-26T11:32:12Z</time>
      </trkpt>
      <trkpt lat="46.40711" lon="6.08084">
        <ele>1403.18</ele>
        <time>2015-10-26T11:32:24Z</time>
      </trkpt>
      <trkpt lat="46.40709" lon="6.08077">
        <ele>1402.7</ele>
        <time>2015-10-26T11:32:27Z</time>
      </trkpt>
      <trkpt lat="46.40703" lon="6.0807">
        <ele>1400.78</ele>
        <time>2015-10-26T11:32:33Z</time>
      </trkpt>
      <trkpt lat="46.40684" lon="6.08061">
        <ele>1400.78</ele>
        <time>2015-10-26T11:32:47Z</time>
      </trkpt>
      <trkpt lat="46.40679" lon="6.08062">
        <ele>1400.78</ele>
        <time>2015-10-26T11:32:51Z</time>
      </trkpt>
      <trkpt lat="46.40676" lon="6.08063">
        <ele>1400.78</ele>
        <time>2015-10-26T11:32:53Z</time>
      </trkpt>
      <trkpt lat="46.40671" lon="6.08066">
        <ele>1400.78</ele>
        <time>2015-10-26T11:32:57Z</time>
      </trkpt>
      <trkpt lat="46.40668" lon="6.08068">
        <ele>1400.78</ele>
        <time>2015-10-26T11:32:59Z</time>
      </trkpt>
      <trkpt lat="46.4065" lon="6.08066">
        <ele>1400.78</ele>
        <time>2015-10-26T11:33:12Z</time>
      </trkpt>
      <trkpt lat="46.40632" lon="6.08059">
        <ele>1399.82</ele>
        <time>2015-10-26T11:33:21Z</time>
      </trkpt>
      <trkpt lat="46.40625" lon="6.08048">
        <ele>1398.86</ele>
        <time>2015-10-26T11:33:30Z</time>
      </trkpt>
      <trkpt lat="46.40624" lon="6.0804">
        <ele>1397.89</ele>
        <time>2015-10-26T11:33:34Z</time>
      </trkpt>
      <trkpt lat="46.40622" lon="6.08033">
        <ele>1397.89</ele>
        <time>2015-10-26T11:33:37Z</time>
      </trkpt>
      <trkpt lat="46.40622" lon="6.08029">
        <ele>1396.93</ele>
        <time>2015-10-26T11:33:39Z</time>
      </trkpt>
      <trkpt lat="46.40618" lon="6.08012">
        <ele>1395.49</ele>
        <time>2015-10-26T11:33:46Z</time>
      </trkpt>
      <trkpt lat="46.40618" lon="6.07997">
        <ele>1394.05</ele>
        <time>2015-10-26T11:33:56Z</time>
      </trkpt>
      <trkpt lat="46.40613" lon="6.07971">
        <ele>1394.05</ele>
        <time>2015-10-26T11:34:07Z</time>
      </trkpt>
      <trkpt lat="46.40609" lon="6.07956">
        <ele>1394.05</ele>
        <time>2015-10-26T11:34:12Z</time>
      </trkpt>
      <trkpt lat="46.40607" lon="6.07943">
        <ele>1395.01</ele>
        <time>2015-10-26T11:34:20Z</time>
      </trkpt>
      <trkpt lat="46.40604" lon="6.07931">
        <ele>1395.49</ele>
        <time>2015-10-26T11:34:26Z</time>
      </trkpt>
      <trkpt lat="46.40591" lon="6.07914">
        <ele>1396.93</ele>
        <time>2015-10-26T11:34:38Z</time>
      </trkpt>
      <trkpt lat="46.40586" lon="6.07913">
        <ele>1396.45</ele>
        <time>2015-10-26T11:34:45Z</time>
      </trkpt>
      <trkpt lat="46.40583" lon="6.07911">
        <ele>1396.93</ele>
        <time>2015-10-26T11:34:47Z</time>
      </trkpt>
      <trkpt lat="46.40578" lon="6.07908">
        <ele>1395.97</ele>
        <time>2015-10-26T11:34:51Z</time>
      </trkpt>
      <trkpt lat="46.4056" lon="6.07894">
        <ele>1395.49</ele>
        <time>2015-10-26T11:35:02Z</time>
      </trkpt>
      <trkpt lat="46.40554" lon="6.07885">
        <ele>1395.01</ele>
        <time>2015-10-26T11:35:08Z</time>
      </trkpt>
      <trkpt lat="46.4055" lon="6.07881">
        <ele>1395.01</ele>
        <time>2015-10-26T11:35:11Z</time>
      </trkpt>
      <trkpt lat="46.40547" lon="6.07879">
        <ele>1395.01</ele>
        <time>2015-10-26T11:35:13Z</time>
      </trkpt>
      <trkpt lat="46.40534" lon="6.0787">
        <ele>1394.53</ele>
        <time>2015-10-26T11:35:21Z</time>
      </trkpt>
      <trkpt lat="46.40518" lon="6.07852">
        <ele>1393.09</ele>
        <time>2015-10-26T11:35:34Z</time>
      </trkpt>
      <trkpt lat="46.40516" lon="6.07851">
        <ele>1393.09</ele>
        <time>2015-10-26T11:35:36Z</time>
      </trkpt>
      <trkpt lat="46.40508" lon="6.07844">
        <ele>1392.13</ele>
        <time>2015-10-26T11:35:43Z</time>
      </trkpt>
      <trkpt lat="46.40493" lon="6.07841">
        <ele>1391.65</ele>
        <time>2015-10-26T11:35:52Z</time>
      </trkpt>
      <trkpt lat="46.40484" lon="6.07832">
        <ele>1390.68</ele>
        <time>2015-10-26T11:35:59Z</time>
      </trkpt>
      <trkpt lat="46.40479" lon="6.0783">
        <ele>1390.68</ele>
        <time>2015-10-26T11:36:03Z</time>
      </trkpt>
      <trkpt lat="46.40459" lon="6.07816">
        <ele>1389.24</ele>
        <time>2015-10-26T11:36:14Z</time>
      </trkpt>
      <trkpt lat="46.40453" lon="6.07812">
        <ele>1389.24</ele>
        <time>2015-10-26T11:36:20Z</time>
      </trkpt>
      <trkpt lat="46.4045" lon="6.07809">
        <ele>1389.24</ele>
        <time>2015-10-26T11:36:23Z</time>
      </trkpt>
      <trkpt lat="46.40442" lon="6.07806">
        <ele>1389.24</ele>
        <time>2015-10-26T11:36:29Z</time>
      </trkpt>
      <trkpt lat="46.40428" lon="6.07796">
        <ele>1388.76</ele>
        <time>2015-10-26T11:36:40Z</time>
      </trkpt>
      <trkpt lat="46.40416" lon="6.07792">
        <ele>1387.8</ele>
        <time>2015-10-26T11:36:51Z</time>
      </trkpt>
      <trkpt lat="46.40412" lon="6.07793">
        <ele>1386.84</ele>
        <time>2015-10-26T11:36:54Z</time>
      </trkpt>
      <trkpt lat="46.404" lon="6.078">
        <ele>1386.36</ele>
        <time>2015-10-26T11:37:04Z</time>
      </trkpt>
      <trkpt lat="46.40392" lon="6.0781">
        <ele>1386.36</ele>
        <time>2015-10-26T11:37:14Z</time>
      </trkpt>
      <trkpt lat="46.40391" lon="6.0781">
        <ele>1386.36</ele>
        <time>2015-10-26T11:37:15Z</time>
      </trkpt>
      <trkpt lat="46.40375" lon="6.07807">
        <ele>1386.84</ele>
        <time>2015-10-26T11:37:24Z</time>
      </trkpt>
      <trkpt lat="46.4037" lon="6.07803">
        <ele>1387.32</ele>
        <time>2015-10-26T11:37:27Z</time>
      </trkpt>
      <trkpt lat="46.40364" lon="6.07799">
        <ele>1387.8</ele>
        <time>2015-10-26T11:37:31Z</time>
      </trkpt>
      <trkpt lat="46.40354" lon="6.07779">
        <ele>1389.24</ele>
        <time>2015-10-26T11:37:42Z</time>
      </trkpt>
      <trkpt lat="46.4035" lon="6.0776">
        <ele>1389.24</ele>
        <time>2015-10-26T11:37:51Z</time>
      </trkpt>
      <trkpt lat="46.40347" lon="6.07754">
        <ele>1389.24</ele>
        <time>2015-10-26T11:37:54Z</time>
      </trkpt>
      <trkpt lat="46.40341" lon="6.07739">
        <ele>1389.24</ele>
        <time>2015-10-26T11:38:01Z</time>
      </trkpt>
      <trkpt lat="46.40337" lon="6.07723">
        <ele>1387.32</ele>
        <time>2015-10-26T11:38:12Z</time>
      </trkpt>
      <trkpt lat="46.40337" lon="6.07718">
        <ele>1387.32</ele>
        <time>2015-10-26T11:38:14Z</time>
      </trkpt>
      <trkpt lat="46.40338" lon="6.07703">
        <ele>1386.84</ele>
        <time>2015-10-26T11:38:20Z</time>
      </trkpt>
      <trkpt lat="46.40337" lon="6.07699">
        <ele>1386.84</ele>
        <time>2015-10-26T11:38:22Z</time>
      </trkpt>
      <trkpt lat="46.40333" lon="6.07669">
        <ele>1385.4</ele>
        <time>2015-10-26T11:38:33Z</time>
      </trkpt>
      <trkpt lat="46.40332" lon="6.07664">
        <ele>1384.92</ele>
        <time>2015-10-26T11:38:37Z</time>
      </trkpt>
      <trkpt lat="46.40328" lon="6.07639">
        <ele>1383.96</ele>
        <time>2015-10-26T11:38:49Z</time>
      </trkpt>
      <trkpt lat="46.40326" lon="6.07628">
        <ele>1383.47</ele>
        <time>2015-10-26T11:38:54Z</time>
      </trkpt>
      <trkpt lat="46.40327" lon="6.07623">
        <ele>1382.99</ele>
        <time>2015-10-26T11:38:58Z</time>
      </trkpt>
      <trkpt lat="46.40324" lon="6.07603">
        <ele>1382.51</ele>
        <time>2015-10-26T11:39:05Z</time>
      </trkpt>
      <trkpt lat="46.40324" lon="6.07598">
        <ele>1382.03</ele>
        <time>2015-10-26T11:39:07Z</time>
      </trkpt>
      <trkpt lat="46.40324" lon="6.0758">
        <ele>1381.55</ele>
        <time>2015-10-26T11:39:14Z</time>
      </trkpt>
      <trkpt lat="46.40319" lon="6.07557">
        <ele>1380.59</ele>
        <time>2015-10-26T11:39:25Z</time>
      </trkpt>
      <trkpt lat="46.40317" lon="6.07551">
        <ele>1380.11</ele>
        <time>2015-10-26T11:39:33Z</time>
      </trkpt>
      <trkpt lat="46.40315" lon="6.07547">
        <ele>1379.63</ele>
        <time>2015-10-26T11:39:35Z</time>
      </trkpt>
      <trkpt lat="46.40309" lon="6.07531">
        <ele>1379.15</ele>
        <time>2015-10-26T11:39:41Z</time>
      </trkpt>
      <trkpt lat="46.40307" lon="6.07526">
        <ele>1379.15</ele>
        <time>2015-10-26T11:39:43Z</time>
      </trkpt>
      <trkpt lat="46.403" lon="6.07512">
        <ele>1378.67</ele>
        <time>2015-10-26T11:39:49Z</time>
      </trkpt>
      <trkpt lat="46.40295" lon="6.07499">
        <ele>1377.23</ele>
        <time>2015-10-26T11:40:00Z</time>
      </trkpt>
      <trkpt lat="46.40295" lon="6.07499">
        <ele>1377.71</ele>
        <time>2015-10-26T11:40:01Z</time>
      </trkpt>
      <trkpt lat="46.40292" lon="6.0749">
        <ele>1377.23</ele>
        <time>2015-10-26T11:40:05Z</time>
      </trkpt>
      <trkpt lat="46.40279" lon="6.07467">
        <ele>1375.78</ele>
        <time>2015-10-26T11:40:15Z</time>
      </trkpt>
      <trkpt lat="46.4027" lon="6.07445">
        <ele>1375.3</ele>
        <time>2015-10-26T11:40:27Z</time>
      </trkpt>
      <trkpt lat="46.40266" lon="6.07431">
        <ele>1374.82</ele>
        <time>2015-10-26T11:40:35Z</time>
      </trkpt>
      <trkpt lat="46.40264" lon="6.07423">
        <ele>1374.82</ele>
        <time>2015-10-26T11:40:39Z</time>
      </trkpt>
      <trkpt lat="46.40257" lon="6.07411">
        <ele>1374.82</ele>
        <time>2015-10-26T11:40:44Z</time>
      </trkpt>
      <trkpt lat="46.40253" lon="6.074">
        <ele>1374.34</ele>
        <time>2015-10-26T11:40:49Z</time>
      </trkpt>
      <trkpt lat="46.4025" lon="6.07392">
        <ele>1374.34</ele>
        <time>2015-10-26T11:40:52Z</time>
      </trkpt>
      <trkpt lat="46.40242" lon="6.07384">
        <ele>1374.82</ele>
        <time>2015-10-26T11:40:58Z</time>
      </trkpt>
      <trkpt lat="46.40237" lon="6.07378">
        <ele>1374.82</ele>
        <time>2015-10-26T11:41:02Z</time>
      </trkpt>
      <trkpt lat="46.40232" lon="6.07358">
        <ele>1375.3</ele>
        <time>2015-10-26T11:41:13Z</time>
      </trkpt>
      <trkpt lat="46.40232" lon="6.07357">
        <ele>1375.3</ele>
        <time>2015-10-26T11:41:14Z</time>
      </trkpt>
      <trkpt lat="46.40228" lon="6.0735">
        <ele>1375.78</ele>
        <time>2015-10-26T11:41:19Z</time>
      </trkpt>
      <trkpt lat="46.40215" lon="6.07324">
        <ele>1375.78</ele>
        <time>2015-10-26T11:41:31Z</time>
      </trkpt>
      <trkpt lat="46.40212" lon="6.07322">
        <ele>1375.78</ele>
        <time>2015-10-26T11:41:36Z</time>
      </trkpt>
      <trkpt lat="46.4021" lon="6.07311">
        <ele>1375.3</ele>
        <time>2015-10-26T11:41:44Z</time>
      </trkpt>
      <trkpt lat="46.40207" lon="6.07307">
        <ele>1374.82</ele>
        <time>2015-10-26T11:41:47Z</time>
      </trkpt>
      <trkpt lat="46.40197" lon="6.07286">
        <ele>1373.86</ele>
        <time>2015-10-26T11:41:57Z</time>
      </trkpt>
      <trkpt lat="46.40196" lon="6.07284">
        <ele>1374.34</ele>
        <time>2015-10-26T11:41:58Z</time>
      </trkpt>
      <trkpt lat="46.40191" lon="6.07268">
        <ele>1372.9</ele>
        <time>2015-10-26T11:42:09Z</time>
      </trkpt>
      <trkpt lat="46.40188" lon="6.07262">
        <ele>1372.9</ele>
        <time>2015-10-26T11:42:12Z</time>
      </trkpt>
      <trkpt lat="46.40183" lon="6.07248">
        <ele>1372.42</ele>
        <time>2015-10-26T11:42:17Z</time>
      </trkpt>
      <trkpt lat="46.40176" lon="6.07228">
        <ele>1371.46</ele>
        <time>2015-10-26T11:42:26Z</time>
      </trkpt>
      <trkpt lat="46.40173" lon="6.07223">
        <ele>1370.5</ele>
        <time>2015-10-26T11:42:30Z</time>
      </trkpt>
      <trkpt lat="46.40171" lon="6.07215">
        <ele>1370.5</ele>
        <time>2015-10-26T11:42:33Z</time>
      </trkpt>
      <trkpt lat="46.4016" lon="6.07191">
        <ele>1369.05</ele>
        <time>2015-10-26T11:42:42Z</time>
      </trkpt>
      <trkpt lat="46.40154" lon="6.07182">
        <ele>1368.57</ele>
        <time>2015-10-26T11:42:47Z</time>
      </trkpt>
      <trkpt lat="46.4015" lon="6.0717">
        <ele>1367.61</ele>
        <time>2015-10-26T11:42:56Z</time>
      </trkpt>
      <trkpt lat="46.40148" lon="6.07167">
        <ele>1367.13</ele>
        <time>2015-10-26T11:42:58Z</time>
      </trkpt>
      <trkpt lat="46.40142" lon="6.07156">
        <ele>1367.13</ele>
        <time>2015-10-26T11:43:04Z</time>
      </trkpt>
      <trkpt lat="46.40131" lon="6.07141">
        <ele>1366.65</ele>
        <time>2015-10-26T11:43:12Z</time>
      </trkpt>
      <trkpt lat="46.40123" lon="6.07126">
        <ele>1366.17</ele>
        <time>2015-10-26T11:43:22Z</time>
      </trkpt>
      <trkpt lat="46.40122" lon="6.07123">
        <ele>1366.17</ele>
        <time>2015-10-26T11:43:24Z</time>
      </trkpt>
      <trkpt lat="46.40118" lon="6.0712">
        <ele>1366.17</ele>
        <time>2015-10-26T11:43:27Z</time>
      </trkpt>
      <trkpt lat="46.40104" lon="6.07105">
        <ele>1365.69</ele>
        <time>2015-10-26T11:43:38Z</time>
      </trkpt>
      <trkpt lat="46.40098" lon="6.071">
        <ele>1366.17</ele>
        <time>2015-10-26T11:43:42Z</time>
      </trkpt>
      <trkpt lat="46.40088" lon="6.07083">
        <ele>1365.69</ele>
        <time>2015-10-26T11:43:55Z</time>
      </trkpt>
      <trkpt lat="46.40085" lon="6.07079">
        <ele>1365.69</ele>
        <time>2015-10-26T11:43:58Z</time>
      </trkpt>
      <trkpt lat="46.40078" lon="6.07071">
        <ele>1365.69</ele>
        <time>2015-10-26T11:44:03Z</time>
      </trkpt>
      <trkpt lat="46.40075" lon="6.07068">
        <ele>1365.69</ele>
        <time>2015-10-26T11:44:05Z</time>
      </trkpt>
      <trkpt lat="46.40067" lon="6.0706">
        <ele>1365.69</ele>
        <time>2015-10-26T11:44:10Z</time>
      </trkpt>
      <trkpt lat="46.40059" lon="6.07057">
        <ele>1365.69</ele>
        <time>2015-10-26T11:44:14Z</time>
      </trkpt>
      <trkpt lat="46.40052" lon="6.07047">
        <ele>1365.21</ele>
        <time>2015-10-26T11:44:19Z</time>
      </trkpt>
      <trkpt lat="46.40043" lon="6.07027">
        <ele>1364.25</ele>
        <time>2015-10-26T11:44:32Z</time>
      </trkpt>
      <trkpt lat="46.40026" lon="6.0701">
        <ele>1363.29</ele>
        <time>2015-10-26T11:44:43Z</time>
      </trkpt>
      <trkpt lat="46.40023" lon="6.07007">
        <ele>1363.29</ele>
        <time>2015-10-26T11:44:46Z</time>
      </trkpt>
      <trkpt lat="46.40007" lon="6.06995">
        <ele>1362.33</ele>
        <time>2015-10-26T11:44:56Z</time>
      </trkpt>
      <trkpt lat="46.39999" lon="6.06982">
        <ele>1361.36</ele>
        <time>2015-10-26T11:45:06Z</time>
      </trkpt>
      <trkpt lat="46.39997" lon="6.06979">
        <ele>1361.36</ele>
        <time>2015-10-26T11:45:11Z</time>
      </trkpt>
      <trkpt lat="46.39994" lon="6.06976">
        <ele>1361.36</ele>
        <time>2015-10-26T11:45:14Z</time>
      </trkpt>
      <trkpt lat="46.39988" lon="6.06971">
        <ele>1360.88</ele>
        <time>2015-10-26T11:45:18Z</time>
      </trkpt>
      <trkpt lat="46.39985" lon="6.06967">
        <ele>1360.88</ele>
        <time>2015-10-26T11:45:20Z</time>
      </trkpt>
      <trkpt lat="46.39967" lon="6.0695">
        <ele>1359.44</ele>
        <time>2015-10-26T11:45:31Z</time>
      </trkpt>
      <trkpt lat="46.39956" lon="6.06936">
        <ele>1358.48</ele>
        <time>2015-10-26T11:45:41Z</time>
      </trkpt>
      <trkpt lat="46.39952" lon="6.06931">
        <ele>1357.52</ele>
        <time>2015-10-26T11:45:47Z</time>
      </trkpt>
      <trkpt lat="46.39948" lon="6.06928">
        <ele>1357.04</ele>
        <time>2015-10-26T11:45:50Z</time>
      </trkpt>
      <trkpt lat="46.39928" lon="6.06912">
        <ele>1355.6</ele>
        <time>2015-10-26T11:46:02Z</time>
      </trkpt>
      <trkpt lat="46.39914" lon="6.06904">
        <ele>1354.63</ele>
        <time>2015-10-26T11:46:13Z</time>
      </trkpt>
      <trkpt lat="46.3991" lon="6.06897">
        <ele>1354.15</ele>
        <time>2015-10-26T11:46:24Z</time>
      </trkpt>
      <trkpt lat="46.39895" lon="6.06874">
        <ele>1353.19</ele>
        <time>2015-10-26T11:46:33Z</time>
      </trkpt>
      <trkpt lat="46.39894" lon="6.06873">
        <ele>1353.19</ele>
        <time>2015-10-26T11:46:34Z</time>
      </trkpt>
      <trkpt lat="46.39879" lon="6.06854">
        <ele>1352.23</ele>
        <time>2015-10-26T11:46:42Z</time>
      </trkpt>
      <trkpt lat="46.39869" lon="6.06844">
        <ele>1351.75</ele>
        <time>2015-10-26T11:46:49Z</time>
      </trkpt>
      <trkpt lat="46.39847" lon="6.06824">
        <ele>1350.79</ele>
        <time>2015-10-26T11:47:01Z</time>
      </trkpt>
      <trkpt lat="46.39841" lon="6.06817">
        <ele>1350.31</ele>
        <time>2015-10-26T11:47:05Z</time>
      </trkpt>
      <trkpt lat="46.39835" lon="6.06811">
        <ele>1350.31</ele>
        <time>2015-10-26T11:47:10Z</time>
      </trkpt>
      <trkpt lat="46.39825" lon="6.06797">
        <ele>1349.35</ele>
        <time>2015-10-26T11:47:24Z</time>
      </trkpt>
      <trkpt lat="46.39822" lon="6.06795">
        <ele>1349.83</ele>
        <time>2015-10-26T11:47:28Z</time>
      </trkpt>
      <trkpt lat="46.39816" lon="6.06793">
        <ele>1349.35</ele>
        <time>2015-10-26T11:47:32Z</time>
      </trkpt>
      <trkpt lat="46.39809" lon="6.06789">
        <ele>1349.35</ele>
        <time>2015-10-26T11:47:43Z</time>
      </trkpt>
      <trkpt lat="46.398" lon="6.06785">
        <ele>1349.35</ele>
        <time>2015-10-26T11:47:49Z</time>
      </trkpt>
      <trkpt lat="46.39789" lon="6.06779">
        <ele>1349.35</ele>
        <time>2015-10-26T11:47:56Z</time>
      </trkpt>
      <trkpt lat="46.39779" lon="6.0678">
        <ele>1349.35</ele>
        <time>2015-10-26T11:48:01Z</time>
      </trkpt>
      <trkpt lat="46.39757" lon="6.06771">
        <ele>1349.83</ele>
        <time>2015-10-26T11:48:12Z</time>
      </trkpt>
      <trkpt lat="46.39743" lon="6.06763">
        <ele>1349.83</ele>
        <time>2015-10-26T11:48:23Z</time>
      </trkpt>
      <trkpt lat="46.39734" lon="6.0676">
        <ele>1349.35</ele>
        <time>2015-10-26T11:48:33Z</time>
      </trkpt>
      <trkpt lat="46.39725" lon="6.06755">
        <ele>1349.35</ele>
        <time>2015-10-26T11:48:40Z</time>
      </trkpt>
      <trkpt lat="46.39708" lon="6.06755">
        <ele>1347.91</ele>
        <time>2015-10-26T11:48:53Z</time>
      </trkpt>
      <trkpt lat="46.39701" lon="6.06754">
        <ele>1347.91</ele>
        <time>2015-10-26T11:48:56Z</time>
      </trkpt>
      <trkpt lat="46.39676" lon="6.06751">
        <ele>1346.94</ele>
        <time>2015-10-26T11:49:08Z</time>
      </trkpt>
      <trkpt lat="46.39656" lon="6.06752">
        <ele>1345.98</ele>
        <time>2015-10-26T11:49:20Z</time>
      </trkpt>
      <trkpt lat="46.39655" lon="6.06751">
        <ele>1345.98</ele>
        <time>2015-10-26T11:49:21Z</time>
      </trkpt>
      <trkpt lat="46.39646" lon="6.06747">
        <ele>1345.5</ele>
        <time>2015-10-26T11:49:28Z</time>
      </trkpt>
      <trkpt lat="46.39633" lon="6.0675">
        <ele>1345.02</ele>
        <time>2015-10-26T11:49:39Z</time>
      </trkpt>
      <trkpt lat="46.39631" lon="6.0675">
        <ele>1345.5</ele>
        <time>2015-10-26T11:49:40Z</time>
      </trkpt>
      <trkpt lat="46.39617" lon="6.06754">
        <ele>1345.02</ele>
        <time>2015-10-26T11:49:50Z</time>
      </trkpt>
      <trkpt lat="46.3961" lon="6.06762">
        <ele>1344.54</ele>
        <time>2015-10-26T11:49:55Z</time>
      </trkpt>
      <trkpt lat="46.39594" lon="6.06778">
        <ele>1344.54</ele>
        <time>2015-10-26T11:50:06Z</time>
      </trkpt>
      <trkpt lat="46.39578" lon="6.06795">
        <ele>1344.06</ele>
        <time>2015-10-26T11:50:18Z</time>
      </trkpt>
      <trkpt lat="46.39561" lon="6.06807">
        <ele>1344.06</ele>
        <time>2015-10-26T11:50:32Z</time>
      </trkpt>
      <trkpt lat="46.39539" lon="6.06808">
        <ele>1344.54</ele>
        <time>2015-10-26T11:50:43Z</time>
      </trkpt>
      <trkpt lat="46.39533" lon="6.06808">
        <ele>1345.5</ele>
        <time>2015-10-26T11:50:47Z</time>
      </trkpt>
      <trkpt lat="46.39507" lon="6.06789">
        <ele>1346.46</ele>
        <time>2015-10-26T11:51:01Z</time>
      </trkpt>
      <trkpt lat="46.39505" lon="6.06788">
        <ele>1346.94</ele>
        <time>2015-10-26T11:51:03Z</time>
      </trkpt>
      <trkpt lat="46.395" lon="6.06783">
        <ele>1346.46</ele>
        <time>2015-10-26T11:51:08Z</time>
      </trkpt>
      <trkpt lat="46.39498" lon="6.0678">
        <ele>1346.94</ele>
        <time>2015-10-26T11:51:11Z</time>
      </trkpt>
      <trkpt lat="46.39477" lon="6.06753">
        <ele>1348.39</ele>
        <time>2015-10-26T11:51:26Z</time>
      </trkpt>
      <trkpt lat="46.39475" lon="6.06752">
        <ele>1348.39</ele>
        <time>2015-10-26T11:51:27Z</time>
      </trkpt>
      <trkpt lat="46.39464" lon="6.06737">
        <ele>1349.35</ele>
        <time>2015-10-26T11:51:37Z</time>
      </trkpt>
      <trkpt lat="46.39451" lon="6.06727">
        <ele>1350.31</ele>
        <time>2015-10-26T11:51:48Z</time>
      </trkpt>
      <trkpt lat="46.39446" lon="6.06727">
        <ele>1350.31</ele>
        <time>2015-10-26T11:51:51Z</time>
      </trkpt>
      <trkpt lat="46.39434" lon="6.06725">
        <ele>1350.31</ele>
        <time>2015-10-26T11:51:57Z</time>
      </trkpt>
      <trkpt lat="46.39411" lon="6.06721">
        <ele>1349.83</ele>
        <time>2015-10-26T11:52:09Z</time>
      </trkpt>
      <trkpt lat="46.39407" lon="6.0672">
        <ele>1349.83</ele>
        <time>2015-10-26T11:52:11Z</time>
      </trkpt>
      <trkpt lat="46.39394" lon="6.06712">
        <ele>1349.35</ele>
        <time>2015-10-26T11:52:22Z</time>
      </trkpt>
      <trkpt lat="46.3938" lon="6.06695">
        <ele>1349.35</ele>
        <time>2015-10-26T11:52:35Z</time>
      </trkpt>
      <trkpt lat="46.39379" lon="6.06691">
        <ele>1349.83</ele>
        <time>2015-10-26T11:52:37Z</time>
      </trkpt>
      <trkpt lat="46.39376" lon="6.0668">
        <ele>1349.83</ele>
        <time>2015-10-26T11:52:44Z</time>
      </trkpt>
      <trkpt lat="46.39374" lon="6.06676">
        <ele>1350.31</ele>
        <time>2015-10-26T11:52:47Z</time>
      </trkpt>
      <trkpt lat="46.3936" lon="6.06654">
        <ele>1351.27</ele>
        <time>2015-10-26T11:52:59Z</time>
      </trkpt>
      <trkpt lat="46.39347" lon="6.06637">
        <ele>1352.23</ele>
        <time>2015-10-26T11:53:07Z</time>
      </trkpt>
      <trkpt lat="46.39342" lon="6.06627">
        <ele>1352.71</ele>
        <time>2015-10-26T11:53:13Z</time>
      </trkpt>
      <trkpt lat="46.39338" lon="6.06623">
        <ele>1353.19</ele>
        <time>2015-10-26T11:53:16Z</time>
      </trkpt>
      <trkpt lat="46.39333" lon="6.06614">
        <ele>1353.67</ele>
        <time>2015-10-26T11:53:22Z</time>
      </trkpt>
      <trkpt lat="46.39327" lon="6.06604">
        <ele>1354.15</ele>
        <time>2015-10-26T11:53:28Z</time>
      </trkpt>
      <trkpt lat="46.39323" lon="6.06599">
        <ele>1354.63</ele>
        <time>2015-10-26T11:53:32Z</time>
      </trkpt>
      <trkpt lat="46.39311" lon="6.0658">
        <ele>1355.6</ele>
        <time>2015-10-26T11:53:41Z</time>
      </trkpt>
      <trkpt lat="46.39309" lon="6.06577">
        <ele>1355.6</ele>
        <time>2015-10-26T11:53:43Z</time>
      </trkpt>
      <trkpt lat="46.39298" lon="6.06556">
        <ele>1355.6</ele>
        <time>2015-10-26T11:53:56Z</time>
      </trkpt>
      <trkpt lat="46.39285" lon="6.0654">
        <ele>1356.08</ele>
        <time>2015-10-26T11:54:10Z</time>
      </trkpt>
      <trkpt lat="46.39281" lon="6.06538">
        <ele>1355.6</ele>
        <time>2015-10-26T11:54:13Z</time>
      </trkpt>
      <trkpt lat="46.39268" lon="6.06533">
        <ele>1355.6</ele>
        <time>2015-10-26T11:54:24Z</time>
      </trkpt>
      <trkpt lat="46.39246" lon="6.06508">
        <ele>1355.12</ele>
        <time>2015-10-26T11:54:38Z</time>
      </trkpt>
      <trkpt lat="46.39224" lon="6.06493">
        <ele>1354.63</ele>
        <time>2015-10-26T11:54:48Z</time>
      </trkpt>
      <trkpt lat="46.39221" lon="6.06491">
        <ele>1354.63</ele>
        <time>2015-10-26T11:54:50Z</time>
      </trkpt>
      <trkpt lat="46.39202" lon="6.0648">
        <ele>1354.15</ele>
        <time>2015-10-26T11:55:01Z</time>
      </trkpt>
      <trkpt lat="46.39199" lon="6.06478">
        <ele>1354.15</ele>
        <time>2015-10-26T11:55:03Z</time>
      </trkpt>
      <trkpt lat="46.39197" lon="6.06474">
        <ele>1353.67</ele>
        <time>2015-10-26T11:55:05Z</time>
      </trkpt>
      <trkpt lat="46.3919" lon="6.06467">
        <ele>1353.67</ele>
        <time>2015-10-26T11:55:11Z</time>
      </trkpt>
      <trkpt lat="46.39178" lon="6.06452">
        <ele>1353.19</ele>
        <time>2015-10-26T11:55:21Z</time>
      </trkpt>
      <trkpt lat="46.39171" lon="6.06444">
        <ele>1352.71</ele>
        <time>2015-10-26T11:55:26Z</time>
      </trkpt>
      <trkpt lat="46.3915" lon="6.06418">
        <ele>1351.27</ele>
        <time>2015-10-26T11:55:41Z</time>
      </trkpt>
      <trkpt lat="46.39148" lon="6.06416">
        <ele>1351.27</ele>
        <time>2015-10-26T11:55:42Z</time>
      </trkpt>
      <trkpt lat="46.39139" lon="6.06407">
        <ele>1350.31</ele>
        <time>2015-10-26T11:55:48Z</time>
      </trkpt>
      <trkpt lat="46.39135" lon="6.06405">
        <ele>1349.83</ele>
        <time>2015-10-26T11:55:52Z</time>
      </trkpt>
      <trkpt lat="46.39133" lon="6.06403">
        <ele>1349.83</ele>
        <time>2015-10-26T11:55:54Z</time>
      </trkpt>
      <trkpt lat="46.39131" lon="6.06399">
        <ele>1349.35</ele>
        <time>2015-10-26T11:55:57Z</time>
      </trkpt>
      <trkpt lat="46.3913" lon="6.06396">
        <ele>1349.35</ele>
        <time>2015-10-26T11:56:00Z</time>
      </trkpt>
      <trkpt lat="46.39122" lon="6.06384">
        <ele>1347.43</ele>
        <time>2015-10-26T11:56:13Z</time>
      </trkpt>
      <trkpt lat="46.39121" lon="6.06383">
        <ele>1347.43</ele>
        <time>2015-10-26T11:56:14Z</time>
      </trkpt>
      <trkpt lat="46.39116" lon="6.06371">
        <ele>1346.46</ele>
        <time>2015-10-26T11:56:21Z</time>
      </trkpt>
      <trkpt lat="46.39115" lon="6.06365">
        <ele>1345.02</ele>
        <time>2015-10-26T11:56:25Z</time>
      </trkpt>
      <trkpt lat="46.39114" lon="6.06362">
        <ele>1344.54</ele>
        <time>2015-10-26T11:56:27Z</time>
      </trkpt>
      <trkpt lat="46.39109" lon="6.0635">
        <ele>1343.1</ele>
        <time>2015-10-26T11:56:33Z</time>
      </trkpt>
      <trkpt lat="46.39104" lon="6.06341">
        <ele>1341.66</ele>
        <time>2015-10-26T11:56:38Z</time>
      </trkpt>
      <trkpt lat="46.39097" lon="6.06326">
        <ele>1340.7</ele>
        <time>2015-10-26T11:56:44Z</time>
      </trkpt>
      <trkpt lat="46.39086" lon="6.06297">
        <ele>1338.77</ele>
        <time>2015-10-26T11:56:53Z</time>
      </trkpt>
      <trkpt lat="46.39082" lon="6.06289">
        <ele>1337.81</ele>
        <time>2015-10-26T11:56:57Z</time>
      </trkpt>
      <trkpt lat="46.39079" lon="6.06285">
        <ele>1337.33</ele>
        <time>2015-10-26T11:56:59Z</time>
      </trkpt>
      <trkpt lat="46.39065" lon="6.06277">
        <ele>1335.89</ele>
        <time>2015-10-26T11:57:07Z</time>
      </trkpt>
      <trkpt lat="46.39046" lon="6.06256">
        <ele>1333.49</ele>
        <time>2015-10-26T11:57:19Z</time>
      </trkpt>
      <trkpt lat="46.39045" lon="6.06254">
        <ele>1333.01</ele>
        <time>2015-10-26T11:57:20Z</time>
      </trkpt>
      <trkpt lat="46.3904" lon="6.06245">
        <ele>1332.52</ele>
        <time>2015-10-26T11:57:24Z</time>
      </trkpt>
      <trkpt lat="46.39034" lon="6.06225">
        <ele>1331.08</ele>
        <time>2015-10-26T11:57:34Z</time>
      </trkpt>
      <trkpt lat="46.3903" lon="6.06208">
        <ele>1330.12</ele>
        <time>2015-10-26T11:57:46Z</time>
      </trkpt>
      <trkpt lat="46.39028" lon="6.06193">
        <ele>1328.2</ele>
        <time>2015-10-26T11:57:54Z</time>
      </trkpt>
      <trkpt lat="46.39028" lon="6.06188">
        <ele>1327.72</ele>
        <time>2015-10-26T11:57:56Z</time>
      </trkpt>
      <trkpt lat="46.39028" lon="6.06164">
        <ele>1323.87</ele>
        <time>2015-10-26T11:58:08Z</time>
      </trkpt>
      <trkpt lat="46.39028" lon="6.0616">
        <ele>1322.43</ele>
        <time>2015-10-26T11:58:11Z</time>
      </trkpt>
      <trkpt lat="46.39028" lon="6.06157">
        <ele>1321.95</ele>
        <time>2015-10-26T11:58:13Z</time>
      </trkpt>
      <trkpt lat="46.39029" lon="6.06151">
        <ele>1321.47</ele>
        <time>2015-10-26T11:58:16Z</time>
      </trkpt>
      <trkpt lat="46.39028" lon="6.0614">
        <ele>1320.51</ele>
        <time>2015-10-26T11:58:20Z</time>
      </trkpt>
      <trkpt lat="46.39021" lon="6.06115">
        <ele>1318.59</ele>
        <time>2015-10-26T11:58:31Z</time>
      </trkpt>
      <trkpt lat="46.39015" lon="6.06092">
        <ele>1318.1</ele>
        <time>2015-10-26T11:58:39Z</time>
      </trkpt>
      <trkpt lat="46.39013" lon="6.06088">
        <ele>1318.1</ele>
        <time>2015-10-26T11:58:41Z</time>
      </trkpt>
      <trkpt lat="46.39004" lon="6.06066">
        <ele>1316.18</ele>
        <time>2015-10-26T11:58:51Z</time>
      </trkpt>
      <trkpt lat="46.38999" lon="6.06056">
        <ele>1315.22</ele>
        <time>2015-10-26T11:58:56Z</time>
      </trkpt>
      <trkpt lat="46.39" lon="6.06047">
        <ele>1315.22</ele>
        <time>2015-10-26T11:59:00Z</time>
      </trkpt>
      <trkpt lat="46.39008" lon="6.06032">
        <ele>1312.82</ele>
        <time>2015-10-26T11:59:10Z</time>
      </trkpt>
      <trkpt lat="46.39011" lon="6.06027">
        <ele>1312.34</ele>
        <time>2015-10-26T11:59:13Z</time>
      </trkpt>
      <trkpt lat="46.39015" lon="6.06016">
        <ele>1311.86</ele>
        <time>2015-10-26T11:59:19Z</time>
      </trkpt>
      <trkpt lat="46.39018" lon="6.06009">
        <ele>1311.86</ele>
        <time>2015-10-26T11:59:22Z</time>
      </trkpt>
      <trkpt lat="46.3903" lon="6.05988">
        <ele>1311.86</ele>
        <time>2015-10-26T11:59:31Z</time>
      </trkpt>
      <trkpt lat="46.39043" lon="6.05973">
        <ele>1311.38</ele>
        <time>2015-10-26T11:59:43Z</time>
      </trkpt>
      <trkpt lat="46.39049" lon="6.05944">
        <ele>1310.41</ele>
        <time>2015-10-26T11:59:54Z</time>
      </trkpt>
      <trkpt lat="46.3905" lon="6.05939">
        <ele>1309.93</ele>
        <time>2015-10-26T11:59:57Z</time>
      </trkpt>
      <trkpt lat="46.39049" lon="6.05933">
        <ele>1309.45</ele>
        <time>2015-10-26T12:00:00Z</time>
      </trkpt>
      <trkpt lat="46.39043" lon="6.05921">
        <ele>1308.49</ele>
        <time>2015-10-26T12:00:10Z</time>
      </trkpt>
      <trkpt lat="46.39042" lon="6.05917">
        <ele>1308.01</ele>
        <time>2015-10-26T12:00:12Z</time>
      </trkpt>
      <trkpt lat="46.39041" lon="6.05908">
        <ele>1307.53</ele>
        <time>2015-10-26T12:00:15Z</time>
      </trkpt>
      <trkpt lat="46.39041" lon="6.05905">
        <ele>1307.05</ele>
        <time>2015-10-26T12:00:17Z</time>
      </trkpt>
      <trkpt lat="46.39042" lon="6.05877">
        <ele>1303.2</ele>
        <time>2015-10-26T12:00:29Z</time>
      </trkpt>
      <trkpt lat="46.39041" lon="6.05863">
        <ele>1301.76</ele>
        <time>2015-10-26T12:00:35Z</time>
      </trkpt>
      <trkpt lat="46.39035" lon="6.05836">
        <ele>1299.84</ele>
        <time>2015-10-26T12:00:46Z</time>
      </trkpt>
      <trkpt lat="46.39035" lon="6.05816">
        <ele>1297.92</ele>
        <time>2015-10-26T12:00:55Z</time>
      </trkpt>
      <trkpt lat="46.39033" lon="6.05802">
        <ele>1296.48</ele>
        <time>2015-10-26T12:01:06Z</time>
      </trkpt>
      <trkpt lat="46.39027" lon="6.05792">
        <ele>1295.99</ele>
        <time>2015-10-26T12:01:10Z</time>
      </trkpt>
      <trkpt lat="46.39023" lon="6.05786">
        <ele>1295.51</ele>
        <time>2015-10-26T12:01:13Z</time>
      </trkpt>
      <trkpt lat="46.39016" lon="6.05779">
        <ele>1295.51</ele>
        <time>2015-10-26T12:01:18Z</time>
      </trkpt>
      <trkpt lat="46.39013" lon="6.05768">
        <ele>1295.51</ele>
        <time>2015-10-26T12:01:24Z</time>
      </trkpt>
      <trkpt lat="46.39013" lon="6.05755">
        <ele>1294.55</ele>
        <time>2015-10-26T12:01:29Z</time>
      </trkpt>
      <trkpt lat="46.39013" lon="6.05746">
        <ele>1294.55</ele>
        <time>2015-10-26T12:01:33Z</time>
      </trkpt>
      <trkpt lat="46.39008" lon="6.05726">
        <ele>1293.11</ele>
        <time>2015-10-26T12:01:42Z</time>
      </trkpt>
      <trkpt lat="46.39008" lon="6.05725">
        <ele>1292.63</ele>
        <time>2015-10-26T12:01:43Z</time>
      </trkpt>
      <trkpt lat="46.39002" lon="6.05708">
        <ele>1291.19</ele>
        <time>2015-10-26T12:01:51Z</time>
      </trkpt>
      <trkpt lat="46.38989" lon="6.05683">
        <ele>1289.27</ele>
        <time>2015-10-26T12:02:03Z</time>
      </trkpt>
      <trkpt lat="46.38978" lon="6.05662">
        <ele>1287.34</ele>
        <time>2015-10-26T12:02:15Z</time>
      </trkpt>
      <trkpt lat="46.3898" lon="6.0565">
        <ele>1285.42</ele>
        <time>2015-10-26T12:02:22Z</time>
      </trkpt>
      <trkpt lat="46.38984" lon="6.05623">
        <ele>1283.5</ele>
        <time>2015-10-26T12:02:36Z</time>
      </trkpt>
      <trkpt lat="46.38981" lon="6.0561">
        <ele>1283.02</ele>
        <time>2015-10-26T12:02:43Z</time>
      </trkpt>
      <trkpt lat="46.38975" lon="6.05596">
        <ele>1282.54</ele>
        <time>2015-10-26T12:02:49Z</time>
      </trkpt>
      <trkpt lat="46.38968" lon="6.05567">
        <ele>1281.57</ele>
        <time>2015-10-26T12:03:00Z</time>
      </trkpt>
      <trkpt lat="46.38967" lon="6.05565">
        <ele>1281.09</ele>
        <time>2015-10-26T12:03:01Z</time>
      </trkpt>
      <trkpt lat="46.38963" lon="6.05547">
        <ele>1281.09</ele>
        <time>2015-10-26T12:03:08Z</time>
      </trkpt>
      <trkpt lat="46.38964" lon="6.05538">
        <ele>1280.61</ele>
        <time>2015-10-26T12:03:11Z</time>
      </trkpt>
      <trkpt lat="46.38959" lon="6.05514">
        <ele>1280.13</ele>
        <time>2015-10-26T12:03:20Z</time>
      </trkpt>
      <trkpt lat="46.38956" lon="6.05496">
        <ele>1278.69</ele>
        <time>2015-10-26T12:03:34Z</time>
      </trkpt>
      <trkpt lat="46.38954" lon="6.05494">
        <ele>1278.21</ele>
        <time>2015-10-26T12:03:36Z</time>
      </trkpt>
      <trkpt lat="46.38941" lon="6.05467">
        <ele>1277.25</ele>
        <time>2015-10-26T12:03:50Z</time>
      </trkpt>
      <trkpt lat="46.3894" lon="6.05466">
        <ele>1276.77</ele>
        <time>2015-10-26T12:03:51Z</time>
      </trkpt>
      <trkpt lat="46.38928" lon="6.05435">
        <ele>1275.81</ele>
        <time>2015-10-26T12:04:05Z</time>
      </trkpt>
      <trkpt lat="46.38928" lon="6.05429">
        <ele>1275.33</ele>
        <time>2015-10-26T12:04:07Z</time>
      </trkpt>
      <trkpt lat="46.38928" lon="6.05413">
        <ele>1273.88</ele>
        <time>2015-10-26T12:04:13Z</time>
      </trkpt>
      <trkpt lat="46.38938" lon="6.05393">
        <ele>1271.96</ele>
        <time>2015-10-26T12:04:24Z</time>
      </trkpt>
      <trkpt lat="46.38939" lon="6.05383">
        <ele>1270.52</ele>
        <time>2015-10-26T12:04:28Z</time>
      </trkpt>
      <trkpt lat="46.38936" lon="6.05366">
        <ele>1269.56</ele>
        <time>2015-10-26T12:04:36Z</time>
      </trkpt>
      <trkpt lat="46.38931" lon="6.05345">
        <ele>1269.56</ele>
        <time>2015-10-26T12:04:46Z</time>
      </trkpt>
      <trkpt lat="46.3893" lon="6.05342">
        <ele>1269.56</ele>
        <time>2015-10-26T12:04:48Z</time>
      </trkpt>
      <trkpt lat="46.38923" lon="6.05339">
        <ele>1270.52</ele>
        <time>2015-10-26T12:04:53Z</time>
      </trkpt>
      <trkpt lat="46.38918" lon="6.05324">
        <ele>1267.64</ele>
        <time>2015-10-26T12:05:10Z</time>
      </trkpt>
      <trkpt lat="46.3892" lon="6.0532">
        <ele>1267.16</ele>
        <time>2015-10-26T12:05:12Z</time>
      </trkpt>
      <trkpt lat="46.38928" lon="6.05309">
        <ele>1266.19</ele>
        <time>2015-10-26T12:05:24Z</time>
      </trkpt>
      <trkpt lat="46.38931" lon="6.05316">
        <ele>1266.19</ele>
        <time>2015-10-26T12:05:35Z</time>
      </trkpt>
    </trkseg>
  </trk>
</gpx>